[[{"header":{"parameterUnit":"m.s-1","parameterCategory":1,"la1":30.6,"la2":29.2853,"lo1":-89.7004,"lo2":-87.6739,"dx":0.0162,"dy":0.0183,"nx":112,"ny":82,"refTime":"2023-01-24T06:00:00:Z","depth":0,"parameterNumber":2,"parameterNumberName":"U-component_of_WINDS"},"data":[0.0,0.0,0.0,0.0,0.0,0.0,0.0,0.0,0.0,0.0,0.0,0.0,0.0,0.0,0.0,0.0,0.0,0.0,0.0,0.0,0.0,0.0,0.0,0.0,0.0,0.0,0.0,0.0,0.0,0.0,0.0,0.0,0.0,0.0,0.0,0.0,0.0,0.0,0.0,0.0,0.0,0.0,0.0,0.0,0.0,0.0,0.0,0.0,0.0,0.0,0.0,0.0,0.0,0.0,0.0,0.0,0.0,0.0,0.0,0.0,0.0,0.0,0.0,0.0,0.0,0.0,0.0,0.0,0.0,0.0,0.0,0.0,0.0,0.0,0.0,0.0,0.0,0.0,0.0,0.0,0.0,0.0,0.0,0.0,0.0,0.0,0.0,0.0,0.0,0.0,-5.4838,-5.4092,-5.4878,-5.5496,-5.5496,-5.5496,-5.4737,-5.2967,0.0,0.0,0.0,0.0,0.0,0.0,0.0,0.0,0.0,0.0,0.0,0.0,0.0,0.0,0.0,0.0,0.0,0.0,0.0,0.0,0.0,0.0,0.0,0.0,0.0,0.0,0.0,0.0,0.0,0.0,0.0,0.0,0.0,0.0,0.0,0.0,0.0,0.0,0.0,0.0,0.0,0.0,0.0,0.0,0.0,0.0,0.0,0.0,0.0,0.0,0.0,0.0,0.0,0.0,0.0,0.0,0.0,0.0,0.0,0.0,0.0,0.0,0.0,0.0,0.0,0.0,0.0,0.0,0.0,0.0,0.0,0.0,0.0,0.0,0.0,0.0,0.0,0.0,0.0,0.0,0.0,0.0,0.0,0.0,0.0,0.0,0.0,0.0,0.0,0.0,0.0,0.0,0.0,0.0,0.0,0.0,0.0,0.0,0.0,0.0,0.0,0.0,0.0,0.0,-5.3977,-5.5104,-5.5383,-5.5496,-5.5496,-5.5496,-5.4934,-5.3613,0.0,0.0,0.0,0.0,0.0,0.0,0.0,0.0,0.0,0.0,0.0,0.0,0.0,0.0,0.0,0.0,0.0,0.0,0.0,0.0,0.0,0.0,0.0,0.0,0.0,0.0,0.0,0.0,0.0,0.0,0.0,0.0,0.0,0.0,0.0,0.0,0.0,0.0,0.0,0.0,0.0,0.0,0.0,0.0,0.0,0.0,0.0,0.0,0.0,0.0,0.0,0.0,0.0,0.0,0.0,0.0,0.0,0.0,0.0,0.0,0.0,0.0,0.0,0.0,0.0,0.0,0.0,0.0,0.0,0.0,0.0,0.0,0.0,0.0,0.0,0.0,0.0,0.0,0.0,0.0,0.0,0.0,0.0,0.0,0.0,0.0,0.0,0.0,0.0,0.0,0.0,0.0,0.0,0.0,0.0,0.0,0.0,0.0,0.0,0.0,0.0,0.0,0.0,-5.5728,-5.5501,-5.6185,-5.6102,-5.5961,-5.5787,-5.5729,-5.5164,-5.381,-5.3388,0.0,0.0,0.0,0.0,0.0,0.0,0.0,0.0,0.0,0.0,0.0,0.0,0.0,0.0,0.0,0.0,0.0,0.0,0.0,0.0,0.0,0.0,0.0,0.0,0.0,0.0,0.0,0.0,0.0,0.0,0.0,0.0,0.0,0.0,0.0,0.0,0.0,0.0,0.0,0.0,0.0,0.0,0.0,0.0,0.0,0.0,0.0,0.0,0.0,0.0,0.0,0.0,0.0,0.0,0.0,0.0,0.0,0.0,0.0,0.0,0.0,0.0,0.0,0.0,0.0,0.0,0.0,0.0,0.0,0.0,0.0,0.0,0.0,0.0,0.0,0.0,0.0,0.0,0.0,0.0,0.0,0.0,0.0,0.0,0.0,0.0,0.0,0.0,0.0,0.0,0.0,0.0,0.0,0.0,0.0,0.0,0.0,0.0,0.0,0.0,0.0,0.0,-5.7937,-5.7959,-5.7801,-5.7196,-5.6651,-5.6394,-5.6135,-5.5336,-5.381,-5.3726,0.0,0.0,0.0,0.0,0.0,0.0,0.0,0.0,0.0,0.0,0.0,0.0,0.0,0.0,0.0,0.0,0.0,0.0,0.0,0.0,0.0,0.0,0.0,0.0,0.0,0.0,0.0,0.0,0.0,0.0,0.0,0.0,0.0,0.0,0.0,0.0,0.0,0.0,0.0,0.0,0.0,0.0,0.0,0.0,0.0,0.0,0.0,0.0,0.0,0.0,0.0,0.0,0.0,0.0,0.0,0.0,0.0,0.0,0.0,0.0,0.0,0.0,0.0,0.0,0.0,0.0,0.0,0.0,0.0,0.0,0.0,0.0,0.0,0.0,0.0,0.0,0.0,0.0,0.0,0.0,0.0,0.0,0.0,0.0,0.0,0.0,0.0,0.0,0.0,0.0,0.0,0.0,0.0,0.0,0.0,0.0,0.0,0.0,0.0,0.0,0.0,0.0,-6.0211,-6.0898,-6.0583,-5.9011,-5.7886,-5.7523,-5.6594,-5.5336,-5.381,-5.3726,0.0,0.0,0.0,0.0,0.0,0.0,0.0,0.0,0.0,0.0,0.0,0.0,0.0,0.0,0.0,0.0,0.0,0.0,0.0,0.0,0.0,0.0,0.0,0.0,0.0,0.0,0.0,0.0,0.0,0.0,0.0,0.0,0.0,0.0,0.0,0.0,0.0,0.0,0.0,0.0,0.0,0.0,0.0,0.0,0.0,0.0,0.0,0.0,0.0,0.0,0.0,0.0,0.0,0.0,0.0,0.0,0.0,0.0,0.0,0.0,0.0,0.0,0.0,0.0,0.0,0.0,0.0,0.0,0.0,0.0,0.0,0.0,0.0,0.0,0.0,0.0,0.0,0.0,0.0,0.0,0.0,0.0,0.0,0.0,0.0,0.0,0.0,0.0,0.0,0.0,0.0,0.0,0.0,0.0,0.0,0.0,0.0,0.0,0.0,0.0,0.0,0.0,-6.175,-6.1867,0.0,-6.0495,-5.9272,-5.8242,-5.7664,-5.6331,-5.412,0.0,0.0,0.0,0.0,0.0,0.0,0.0,0.0,0.0,0.0,0.0,0.0,0.0,0.0,0.0,0.0,0.0,0.0,0.0,0.0,0.0,0.0,0.0,0.0,0.0,0.0,0.0,0.0,0.0,0.0,0.0,0.0,0.0,0.0,0.0,0.0,0.0,0.0,0.0,0.0,0.0,0.0,0.0,0.0,0.0,0.0,0.0,0.0,0.0,0.0,0.0,0.0,0.0,0.0,0.0,0.0,0.0,0.0,0.0,0.0,0.0,0.0,0.0,0.0,0.0,0.0,0.0,0.0,0.0,0.0,0.0,0.0,0.0,0.0,0.0,0.0,0.0,0.0,0.0,0.0,0.0,0.0,0.0,0.0,0.0,0.0,0.0,0.0,0.0,0.0,0.0,0.0,0.0,0.0,0.0,0.0,0.0,0.0,0.0,0.0,0.0,0.0,-6.3486,-6.368,-6.3829,0.0,-6.2675,-6.1246,-5.9764,-5.917,-5.7782,-5.5172,0.0,0.0,0.0,0.0,0.0,0.0,0.0,0.0,0.0,0.0,0.0,0.0,0.0,0.0,0.0,0.0,0.0,0.0,0.0,0.0,0.0,0.0,0.0,0.0,0.0,0.0,0.0,0.0,0.0,0.0,0.0,0.0,0.0,0.0,0.0,0.0,0.0,0.0,0.0,0.0,0.0,0.0,0.0,0.0,0.0,0.0,0.0,0.0,0.0,0.0,0.0,0.0,0.0,0.0,0.0,0.0,0.0,0.0,0.0,0.0,0.0,0.0,0.0,0.0,0.0,0.0,0.0,0.0,0.0,0.0,0.0,0.0,0.0,0.0,0.0,0.0,0.0,0.0,0.0,0.0,0.0,0.0,0.0,0.0,0.0,0.0,0.0,0.0,0.0,0.0,0.0,0.0,0.0,0.0,0.0,0.0,0.0,0.0,0.0,0.0,0.0,0.0,-6.498,-6.629,-6.7197,-6.7197,-6.556,-6.3803,-6.2239,-6.1157,-5.9506,0.0,0.0,0.0,0.0,0.0,0.0,0.0,0.0,0.0,0.0,0.0,0.0,0.0,0.0,0.0,0.0,0.0,0.0,0.0,0.0,0.0,0.0,0.0,0.0,0.0,0.0,0.0,0.0,0.0,0.0,0.0,0.0,0.0,0.0,0.0,0.0,0.0,0.0,0.0,0.0,0.0,0.0,0.0,0.0,0.0,0.0,0.0,0.0,0.0,0.0,0.0,0.0,0.0,0.0,0.0,0.0,0.0,0.0,0.0,0.0,0.0,0.0,0.0,0.0,0.0,0.0,0.0,0.0,0.0,0.0,0.0,0.0,0.0,0.0,0.0,0.0,0.0,0.0,0.0,0.0,0.0,0.0,0.0,0.0,0.0,0.0,0.0,0.0,0.0,0.0,0.0,0.0,0.0,0.0,0.0,0.0,0.0,0.0,0.0,0.0,0.0,0.0,0.0,-6.5805,-6.6614,-6.7197,-6.7197,-6.6271,-6.5098,-6.3917,-6.2819,-6.1246,-5.8919,0.0,0.0,0.0,0.0,0.0,0.0,0.0,0.0,0.0,0.0,0.0,0.0,0.0,0.0,0.0,0.0,0.0,0.0,0.0,0.0,0.0,0.0,0.0,0.0,0.0,0.0,0.0,0.0,0.0,0.0,0.0,0.0,0.0,0.0,0.0,0.0,0.0,0.0,0.0,0.0,0.0,0.0,0.0,0.0,0.0,0.0,0.0,0.0,0.0,0.0,0.0,0.0,0.0,0.0,0.0,0.0,0.0,0.0,0.0,0.0,0.0,0.0,0.0,0.0,0.0,0.0,0.0,0.0,0.0,0.0,0.0,0.0,0.0,0.0,0.0,0.0,0.0,0.0,0.0,0.0,0.0,0.0,0.0,0.0,0.0,0.0,0.0,0.0,0.0,0.0,0.0,0.0,0.0,0.0,0.0,0.0,0.0,0.0,0.0,0.0,0.0,0.0,-6.6096,-6.6744,-6.7197,-6.7197,-6.655,-6.5625,-6.4511,-6.3615,-6.2441,-6.0701,0.0,0.0,0.0,0.0,0.0,0.0,0.0,0.0,0.0,0.0,0.0,0.0,0.0,0.0,0.0,0.0,0.0,0.0,0.0,0.0,0.0,0.0,0.0,0.0,0.0,0.0,0.0,0.0,0.0,0.0,0.0,0.0,0.0,0.0,0.0,0.0,0.0,0.0,0.0,0.0,0.0,0.0,0.0,0.0,0.0,0.0,0.0,0.0,0.0,0.0,0.0,0.0,0.0,0.0,0.0,0.0,0.0,0.0,0.0,0.0,0.0,0.0,0.0,0.0,0.0,0.0,0.0,0.0,0.0,0.0,0.0,0.0,0.0,0.0,0.0,0.0,0.0,0.0,0.0,0.0,0.0,0.0,0.0,0.0,0.0,0.0,0.0,0.0,0.0,0.0,0.0,0.0,0.0,0.0,0.0,0.0,0.0,0.0,0.0,0.0,0.0,0.0,-6.5999,-6.6647,-6.71,-6.71,-6.6485,-6.5643,-6.4478,-6.3857,-6.3241,-6.2509,0.0,0.0,0.0,0.0,0.0,0.0,0.0,0.0,0.0,0.0,0.0,0.0,0.0,0.0,0.0,0.0,0.0,0.0,0.0,0.0,0.0,0.0,0.0,0.0,0.0,0.0,0.0,0.0,0.0,0.0,0.0,0.0,0.0,0.0,0.0,0.0,0.0,0.0,0.0,0.0,0.0,0.0,0.0,0.0,0.0,0.0,0.0,0.0,0.0,0.0,0.0,0.0,0.0,0.0,0.0,0.0,0.0,0.0,0.0,0.0,-6.9463,0.0,0.0,0.0,0.0,0.0,0.0,0.0,0.0,0.0,0.0,0.0,0.0,0.0,0.0,0.0,0.0,0.0,0.0,0.0,0.0,0.0,0.0,0.0,0.0,0.0,0.0,0.0,0.0,0.0,0.0,0.0,0.0,0.0,0.0,0.0,0.0,0.0,0.0,0.0,0.0,0.0,-6.5206,-6.5902,-6.6323,-6.6323,-6.6193,-6.5983,-6.5724,-6.4688,-6.3959,-6.38,-6.2392,0.0,0.0,0.0,0.0,0.0,0.0,0.0,0.0,0.0,0.0,0.0,0.0,0.0,0.0,0.0,0.0,0.0,0.0,0.0,0.0,0.0,0.0,0.0,0.0,0.0,0.0,0.0,0.0,0.0,0.0,0.0,0.0,0.0,0.0,0.0,0.0,0.0,0.0,0.0,0.0,0.0,0.0,0.0,0.0,0.0,0.0,0.0,0.0,0.0,0.0,0.0,0.0,0.0,0.0,0.0,0.0,0.0,0.0,0.0,0.0,-7.0015,0.0,0.0,0.0,0.0,0.0,0.0,0.0,0.0,0.0,0.0,0.0,0.0,0.0,0.0,0.0,0.0,0.0,0.0,0.0,0.0,0.0,0.0,0.0,0.0,0.0,0.0,0.0,0.0,0.0,0.0,0.0,0.0,0.0,0.0,0.0,0.0,0.0,0.0,0.0,0.0,-6.5012,-6.5643,-6.5967,-6.561,-6.5287,-6.5092,-6.5092,-6.4256,-6.377,-6.3793,-6.2662,0.0,0.0,0.0,0.0,0.0,0.0,0.0,0.0,0.0,0.0,0.0,0.0,0.0,0.0,0.0,0.0,0.0,0.0,0.0,0.0,0.0,0.0,0.0,0.0,0.0,0.0,0.0,0.0,0.0,0.0,0.0,0.0,0.0,0.0,0.0,0.0,0.0,0.0,0.0,0.0,0.0,0.0,0.0,0.0,0.0,0.0,0.0,0.0,0.0,0.0,0.0,0.0,0.0,-7.0222,-7.0567,-7.0601,-7.0739,-7.1118,-7.167,-7.105,-7.105,-7.1394,-7.0187,0.0,0.0,0.0,0.0,0.0,0.0,0.0,0.0,0.0,0.0,0.0,0.0,0.0,0.0,0.0,0.0,0.0,0.0,0.0,0.0,0.0,0.0,0.0,0.0,-6.3656,-6.2887,-6.1853,0.0,0.0,0.0,0.0,0.0,0.0,0.0,0.0,0.0,0.0,0.0,-6.4883,-6.5384,-6.5513,-6.4898,-6.4347,-6.4024,-6.4024,-6.3484,-6.3226,-6.3354,-6.2775,-6.2726,0.0,0.0,0.0,0.0,0.0,0.0,0.0,0.0,0.0,0.0,0.0,0.0,0.0,0.0,0.0,0.0,0.0,0.0,0.0,0.0,0.0,0.0,0.0,0.0,0.0,0.0,0.0,0.0,0.0,0.0,0.0,0.0,-6.5738,-6.5738,0.0,0.0,0.0,0.0,0.0,0.0,0.0,0.0,0.0,0.0,0.0,0.0,0.0,-6.8986,-6.9118,-6.9773,-7.0153,-7.0256,-7.0981,-7.1325,-7.136,-7.205,-7.2471,-7.2533,-7.2471,0.0,-7.1463,-7.1291,0.0,0.0,0.0,0.0,0.0,0.0,0.0,0.0,0.0,0.0,0.0,0.0,0.0,0.0,0.0,0.0,0.0,0.0,0.0,0.0,0.0,0.0,-6.5626,-6.5626,-6.5103,-6.4714,0.0,-6.23,-6.0319,-6.1932,-6.2161,0.0,0.0,0.0,0.0,0.0,0.0,0.0,-6.4153,-6.425,-6.425,-6.4153,-6.4056,-6.4024,-6.4024,-6.3484,-6.3228,-6.3195,-6.2814,-6.2601,-6.2736,-6.2699,0.0,0.0,0.0,0.0,0.0,0.0,0.0,0.0,0.0,0.0,0.0,0.0,0.0,0.0,0.0,0.0,0.0,0.0,0.0,0.0,0.0,0.0,0.0,0.0,0.0,0.0,0.0,0.0,0.0,-6.7601,-6.729,-6.7778,-6.8083,-6.8152,0.0,0.0,0.0,0.0,0.0,0.0,0.0,0.0,0.0,-6.8773,-6.9497,-6.9911,-6.9911,-7.0636,-7.1015,-7.1015,-7.1774,-7.2153,-7.2188,-7.2533,-7.2713,-7.2713,-7.2713,-7.2464,-7.2119,-7.167,-7.1118,-7.0498,0.0,0.0,0.0,0.0,-6.9911,-7.0015,-7.0739,-7.1208,-7.153,-7.1816,0.0,0.0,0.0,0.0,0.0,0.0,0.0,0.0,0.0,0.0,-6.7587,-6.6972,-6.6308,-6.5808,-6.57,-6.4044,-6.2955,0.0,-6.4289,-6.4122,-6.4496,0.0,0.0,0.0,0.0,-6.5643,-6.5254,-6.5546,-6.5643,-6.5222,-6.5189,-6.5189,-6.5189,-6.4706,-6.4232,-6.3952,-6.3806,-6.3795,-6.3879,-6.3549,-6.3441,0.0,0.0,0.0,0.0,0.0,0.0,0.0,0.0,0.0,0.0,0.0,0.0,0.0,0.0,0.0,0.0,0.0,0.0,0.0,0.0,0.0,0.0,0.0,0.0,0.0,0.0,0.0,0.0,-6.9187,-6.8911,-6.9497,-6.9739,-6.9773,0.0,0.0,0.0,0.0,0.0,0.0,-7.0193,-7.0498,-7.0429,-6.9877,-7.0394,-7.067,-7.067,-7.1429,-7.1705,-7.1498,-7.2291,-7.2567,-7.2395,-7.2644,-7.2713,-7.2713,-7.2713,-7.2713,-7.2636,-7.205,-7.167,-7.1429,-7.0877,-7.0567,-7.0394,-7.0601,-7.067,-7.0808,-7.1739,-7.2337,-7.2829,-7.3463,-7.3988,-7.4275,-7.423,0.0,0.0,0.0,0.0,-7.2052,-7.1617,-7.0285,-6.8761,-6.7657,-6.6726,-6.6045,-6.5969,-6.5509,-6.5481,0.0,-6.6044,-6.5603,-6.5578,0.0,0.0,0.0,0.0,-6.6711,-6.6161,-6.6582,-6.6711,-6.6161,-6.6096,-6.6096,-6.6096,-6.5705,-6.5258,-6.4723,-6.4925,-6.5089,-6.5132,-6.4768,-6.4775,-6.5134,0.0,0.0,0.0,0.0,0.0,0.0,0.0,0.0,0.0,0.0,0.0,0.0,0.0,0.0,0.0,0.0,0.0,0.0,0.0,0.0,0.0,0.0,0.0,0.0,0.0,0.0,0.0,0.0,0.0,-7.0325,-7.0946,0.0,0.0,0.0,0.0,-7.1498,-7.2119,-7.254,-7.254,-7.1843,-7.1429,-7.1394,-7.1429,-7.1429,-7.1429,-7.2222,-7.2257,-7.1498,-7.2291,-7.2291,-7.1567,-7.2326,-7.2713,-7.2713,-7.2713,-7.2713,-7.2713,-7.2678,-7.2188,-7.1498,-7.1463,-7.1015,-7.0463,-7.1187,-7.1429,-7.1636,-7.3153,-7.3705,-7.38,-7.4375,-7.4909,-7.5254,-7.5024,-7.4932,0.0,0.0,-7.2879,-7.2509,-7.1032,-6.9658,-6.8319,-6.7224,-6.5898,-6.5273,-6.6321,-6.6533,-6.6659,0.0,-6.678,-6.6502,-6.6969,0.0,-6.6873,-6.6161,-6.6129,-6.6161,-6.6096,-6.6129,-6.6161,-6.6096,-6.6096,-6.6096,-6.6096,-6.6047,-6.5852,-6.5276,-6.5898,-6.6087,-6.5669,-6.6293,-6.6392,-6.5842,-6.5165,0.0,0.0,0.0,0.0,0.0,0.0,0.0,0.0,0.0,0.0,0.0,0.0,0.0,0.0,0.0,0.0,0.0,0.0,0.0,0.0,0.0,0.0,0.0,0.0,0.0,0.0,0.0,0.0,-7.1953,-7.2084,0.0,-7.2567,-7.2678,-7.2946,-7.3671,-7.3498,-7.3395,-7.3395,-7.3602,-7.3464,-7.2981,-7.2981,-7.2981,-7.2981,-7.2774,-7.2575,-7.2257,-7.2575,-7.2575,-7.2257,-7.2575,-7.2713,-7.2713,-7.2713,-7.2713,-7.2713,-7.2713,-7.2498,-7.2257,-7.2257,-7.2084,-7.1877,-7.2153,-7.2257,-7.2395,-7.3429,-7.4119,-7.4662,-7.5716,-7.6074,-7.6085,-7.5993,-7.5946,-7.5854,-7.5364,-7.5079,-7.4724,-7.3724,-7.3061,-7.2333,-7.0768,-6.9737,-6.9021,-6.8632,-6.8157,-6.7834,-6.7899,-6.8143,-6.8032,-6.7327,-6.7942,-6.8136,-6.6971,-6.7165,-6.7456,-6.7456,-6.7456,-6.7456,-6.7456,-6.7456,-6.7456,-6.7456,-6.7157,-6.6855,-6.6652,-6.6982,-6.7124,-6.695,-6.7202,-6.7057,-6.6399,-6.5747,-6.4684,0.0,0.0,0.0,0.0,0.0,0.0,0.0,0.0,0.0,0.0,0.0,0.0,0.0,0.0,0.0,0.0,0.0,0.0,0.0,0.0,0.0,0.0,0.0,0.0,0.0,0.0,-7.3222,-7.2782,-7.2713,-7.292,-7.336,-7.3429,-7.3843,-7.48,-7.4947,-7.4947,-7.4947,-7.5188,-7.5085,-7.4602,-7.4326,-7.4188,-7.4188,-7.3671,-7.3326,-7.3092,-7.3092,-7.2954,-7.2713,-7.2713,-7.2713,-7.2713,-7.2713,-7.2713,-7.2713,-7.2713,-7.2713,-7.2713,-7.2713,-7.2713,-7.2713,-7.2713,-7.2843,-7.323,-7.4223,-7.5085,-7.5834,-7.6665,-7.6828,-7.6725,-7.6633,-7.6599,-7.6587,-7.6541,-7.6356,-7.6033,-7.5161,-7.4728,-7.4236,-7.261,-7.1782,-7.1054,-7.0141,-6.9402,-6.8845,-6.86,-6.8758,-6.8622,-6.7683,-6.8298,-6.859,-6.7683,-6.791,-6.8201,-6.8201,-6.8201,-6.8201,-6.8201,-6.8201,-6.8201,-6.8201,-6.7848,-6.7644,-6.7644,-6.8008,-6.8076,-6.7864,-6.7926,-6.7548,-6.673,-6.6043,-6.5031,-6.372,0.0,0.0,0.0,0.0,0.0,0.0,0.0,0.0,0.0,0.0,0.0,0.0,0.0,0.0,0.0,0.0,0.0,0.0,0.0,0.0,0.0,0.0,0.0,-7.3912,-7.3153,-7.2747,-7.2713,-7.2713,-7.2747,-7.274,-7.4085,-7.4903,-7.4972,-7.6351,-7.7223,-7.7223,-7.6533,-7.6154,-7.6154,-7.5352,-7.4938,-7.4938,-7.4903,-7.4568,-7.3809,-7.3809,-7.3429,-7.2782,-7.2705,-7.2747,-7.2747,-7.2705,-7.2713,-7.2713,-7.2713,-7.2713,-7.2713,-7.2713,-7.2713,-7.2713,-7.2713,-7.3153,-7.405,-7.5568,-7.6602,-7.7223,-7.7223,-7.7223,-7.7178,-7.6918,-7.6793,-7.6782,-7.6587,-7.6495,-7.6275,-7.5142,-7.4411,-7.3599,-7.2446,-7.1652,-7.1079,-7.0825,-7.0174,-6.9615,-6.94,-6.8765,-6.8251,-6.8201,-6.8201,-6.8201,-6.8201,-6.8201,0.0,-6.8201,-6.8201,-6.8201,-6.8201,-6.8201,-6.8201,-6.8201,-6.8201,-6.8201,-6.8201,-6.8849,-6.8982,-6.8412,-6.852,-6.8012,-6.6753,-6.6066,-6.5647,-6.5511,0.0,0.0,0.0,0.0,0.0,0.0,0.0,0.0,0.0,0.0,0.0,0.0,0.0,0.0,0.0,0.0,0.0,0.0,0.0,0.0,0.0,0.0,-7.5326,-7.3981,-7.3602,-7.3291,-7.2782,-7.2713,-7.3119,-7.4188,-7.4671,-7.5361,-7.6455,-7.6982,-7.7223,-7.7223,-7.7016,-7.6913,-7.6913,-7.6189,-7.5775,-7.5775,-7.5179,-7.48,-7.4602,-7.4602,-7.4499,-7.4292,-7.374,-7.3498,-7.3464,-7.2912,-7.2713,-7.2713,-7.2713,-7.2713,-7.2713,-7.2713,-7.2713,-7.2713,-7.2713,-7.3498,-7.474,-7.5775,-7.6602,-7.7223,-7.7223,-7.7223,-7.7178,-7.7099,-7.7054,-7.7088,-7.7043,-7.6873,-7.6645,-7.6346,-7.6083,-7.5764,-7.4907,-7.424,-7.3538,-7.2382,-7.158,-7.0867,-7.025,-6.9508,-6.8814,-6.8301,-6.8201,-6.8201,-6.8201,-6.8201,0.0,-6.8201,-6.8201,-6.8201,-6.8201,-6.8201,-6.8201,-6.8201,-6.8201,-6.8201,-6.8201,-6.8395,-6.8442,-6.824,-6.828,-6.7971,-6.7207,-6.6091,-6.5544,0.0,0.0,0.0,0.0,0.0,0.0,0.0,0.0,0.0,0.0,0.0,0.0,0.0,0.0,0.0,0.0,0.0,0.0,0.0,0.0,0.0,0.0,-7.6602,-7.5809,-7.4878,-7.4188,-7.3498,-7.2816,-7.2713,-7.3015,-7.3912,-7.4533,-7.5292,-7.6144,-7.6799,-7.7223,-7.7223,-7.7223,-7.7223,-7.7223,-7.6809,-7.6568,-7.6568,-7.6075,-7.5696,-7.5386,-7.5386,-7.5214,-7.4869,-7.4119,-7.3774,-7.374,-7.3023,-7.2713,-7.2713,-7.2713,-7.2713,0.0,0.0,0.0,0.0,0.0,-7.4395,-7.5489,-7.6292,-7.6844,-7.7223,-7.7223,-7.7223,-7.7223,-7.7223,-7.7223,-7.7223,-7.7223,-7.6847,-7.6585,-7.6895,-7.6482,-7.5966,-7.5863,-7.5367,-7.4575,-7.3391,-7.257,-7.1762,-7.0733,-6.9841,0.0,-6.8351,-6.8201,-6.8201,-6.8201,-6.8201,-6.8201,-6.8201,-6.8201,-6.8201,-6.8201,-6.8201,-6.8201,-6.8201,-6.8201,0.0,0.0,0.0,-6.8101,-6.7848,-6.7608,0.0,0.0,0.0,-6.6135,-6.6595,0.0,0.0,0.0,-6.4564,-6.4235,0.0,0.0,0.0,0.0,0.0,0.0,0.0,0.0,0.0,0.0,0.0,0.0,0.0,0.0,0.0,0.0,-7.6671,-7.6223,-7.612,-7.4912,-7.374,-7.2954,-7.292,-7.2946,-7.2946,-7.4223,-7.5041,-7.5145,-7.642,-7.7223,-7.7223,0.0,0.0,0.0,0.0,-7.7223,-7.7223,-7.7223,-7.6878,-7.6223,-7.6223,-7.5878,-7.511,-7.4292,-7.3912,-7.3878,-7.305,-7.2713,-7.2713,-7.2713,-7.2713,-7.2713,-7.2713,-7.2782,-7.2981,-7.4395,-7.5386,-7.6223,-7.6947,0.0,0.0,-7.7223,-7.7223,-7.7223,-7.7223,-7.7223,-7.7223,-7.7223,-7.674,-7.6361,-7.6947,-7.6041,-7.5145,-7.574,-7.5326,-7.4602,-7.3843,-7.3161,-7.2303,-7.0995,-7.0076,-6.9364,-6.8716,-6.8401,-6.8201,-6.8201,-6.8201,-6.8201,-6.8201,-6.8301,-6.8351,-6.8351,0.0,0.0,-6.8351,-6.8351,-6.8301,-6.8201,-6.8201,-6.8,-6.7491,-6.6914,-6.685,-6.7491,-6.6882,-6.7135,-6.8201,-6.8201,-6.7845,-6.7165,-6.4953,-6.4215,0.0,0.0,0.0,0.0,0.0,0.0,0.0,0.0,0.0,0.0,0.0,0.0,0.0,0.0,0.0,-7.7178,-7.7085,-7.6809,-7.6189,-7.5844,-7.5154,-7.374,-7.4119,-7.4499,-7.4464,-7.5326,-7.612,-7.674,-7.7051,-7.7223,-7.7223,-7.7223,-7.7223,-7.7223,-7.7223,-7.7223,-7.7223,-7.7223,-7.7154,-7.7016,0.0,0.0,-7.674,-7.5326,-7.4705,-7.4636,-7.3257,-7.2713,-7.2713,-7.2713,-7.2713,-7.2713,-7.2713,-7.305,-7.3671,-7.4602,-7.5386,-7.6223,-7.6947,-7.7223,-7.7223,-7.7223,-7.7223,-7.7223,-7.7223,-7.7223,0.0,-7.7223,-7.712,-7.6913,-7.643,-7.612,-7.5602,-7.4499,-7.4119,-7.3809,-7.305,-7.2793,-7.2631,-7.2331,-7.1654,-7.112,-7.0985,-6.9412,-6.8201,-6.8201,-6.8201,-6.8201,-6.8201,-6.8716,-6.9107,-6.9107,-6.9651,-6.9794,-6.9123,-6.9107,-6.8863,-6.8251,-6.8201,-6.8151,-6.805,-6.7921,-6.7921,-6.805,-6.7921,-6.7971,-6.8201,-6.8201,-6.7845,-6.7165,-6.6708,-6.6222,0.0,0.0,0.0,0.0,0.0,0.0,0.0,0.0,0.0,0.0,0.0,-7.6356,0.0,0.0,-7.7054,-7.7178,-7.7223,-7.7085,-7.6706,-7.6671,-7.6085,-7.4533,-7.4705,-7.4869,-7.4912,-7.5637,-7.6258,-7.6637,-7.7016,-7.7223,-7.7223,-7.7223,-7.7223,-7.7223,-7.7223,-7.7223,-7.7223,-7.7223,-7.7223,-7.7223,-7.7223,-7.7016,-7.6637,-7.542,-7.4705,-7.4292,-7.3153,-7.2713,-7.2713,-7.2713,-7.2713,-7.2747,-7.3127,-7.3705,-7.4395,-7.4731,-7.5627,-7.6706,-7.7085,-7.7223,-7.7223,-7.7223,-7.7223,-7.7223,-7.7223,-7.7223,-7.7223,-7.7223,-7.6903,-7.6568,-7.6223,-7.5533,-7.474,-7.3981,-7.3498,-7.3161,-7.2782,-7.2713,-7.2586,-7.221,-7.1864,-7.1512,-7.112,-7.011,-6.9349,-6.9349,-6.9349,-6.9204,-6.8814,-6.9412,-6.9746,-6.9316,-7.0029,-7.0343,-6.9935,-6.9508,-6.9123,-6.8765,-6.8369,-6.8201,-6.8201,-6.8201,-6.8201,-6.8201,-6.8201,-6.8201,-6.8201,-6.8201,-6.7683,-6.6647,-6.6647,-6.6258,0.0,0.0,0.0,0.0,0.0,0.0,0.0,0.0,-7.6028,-7.5805,-7.6088,-7.6449,-7.6541,-7.6862,-7.7133,-7.7178,-7.7223,-7.7223,-7.7223,-7.7223,-7.673,-7.5489,-7.5317,-7.5283,-7.5145,-7.5878,-7.6326,-7.6326,-7.6878,-7.7223,-7.7223,-7.7223,-7.7223,-7.7223,-7.7223,-7.7223,-7.7223,-7.7223,-7.7223,-7.7223,-7.7223,-7.6913,-7.6292,-7.5317,-7.4602,-7.3947,-7.305,-7.2713,-7.2713,-7.2713,-7.2774,-7.2989,-7.3395,-7.4119,-7.4903,-7.5076,-7.5903,-7.7016,-7.7016,-7.6913,-7.6765,-7.6947,-7.7016,-7.7016,-7.7189,-7.7223,-7.7223,-7.7223,-7.6671,-7.6085,-7.5913,-7.4843,-7.374,-7.3602,-7.3119,-7.2713,-7.2713,-7.2713,-7.2544,-7.1907,-7.182,-7.1644,-7.103,-7.094,-7.0849,-7.0528,-7.0528,-7.0296,-6.9604,-7.0216,-7.0482,-6.9794,-7.0448,-7.0894,-7.0712,-6.9982,-6.9508,-6.9508,-6.901,-6.8617,-6.8617,-6.8617,-6.8567,-6.8451,-6.8419,-6.8351,-6.8201,-6.8201,-6.7553,-6.6323,-6.6323,-6.5772,-7.2429,-7.3499,-7.439,-7.4518,-7.5549,-7.6449,0.0,0.0,-7.6075,-7.6075,-7.6122,-7.6262,-7.6691,-7.6793,-7.6918,-7.7178,-7.7223,-7.7223,-7.7223,-7.7223,-7.7154,-7.6937,-7.6937,-7.6706,-7.6051,-7.6671,-7.7085,-7.7085,-7.7154,-7.7223,-7.7223,-7.7223,-7.7223,-7.7223,-7.7223,-7.7223,-7.7223,-7.7223,-7.7223,-7.7223,-7.7223,-7.7189,-7.7051,-7.5558,-7.4834,-7.4697,-7.3291,-7.2713,-7.2713,-7.2713,-7.3127,-7.3602,-7.3058,-7.3671,-7.4972,-7.5706,-7.6085,-7.6223,-7.6223,-7.5775,-7.5248,-7.6016,-7.6223,-7.6361,-7.7016,-7.7223,-7.7223,-7.7223,-7.6671,-7.5947,-7.5223,-7.4395,-7.3602,-7.2989,-7.2782,-7.2713,-7.2713,-7.2713,-7.2671,-7.2586,-7.2586,-7.2544,-7.2501,-7.2424,-7.2038,-7.0712,-7.0528,-7.0482,-7.0389,-7.103,-7.1467,-7.1344,-7.1994,-7.2167,-7.1556,-7.0803,-7.0389,-7.0389,-7.0296,-7.0216,-7.0216,-7.0216,-6.9888,-6.9171,-6.9171,-6.8863,-6.8201,-6.8201,-6.7813,-6.7068,-6.7068,-6.5999,-7.2981,-7.4033,0.0,0.0,-7.6207,-7.6862,-7.6553,-7.6507,-7.6461,-7.6356,-7.6449,-7.6599,-7.6748,-7.6918,-7.7054,0.0,-7.7223,-7.7223,-7.7223,-7.7223,-7.7223,-7.7223,-7.7223,-7.7085,-7.6775,-7.7051,-7.7223,-7.7223,-7.7223,-7.7223,-7.7223,-7.7223,-7.7223,-7.7223,-7.7223,-7.7223,-7.7223,-7.7223,-7.7223,-7.7223,-7.7223,-7.7016,-7.6533,-7.5386,-7.4464,-7.3602,-7.2946,-7.2713,-7.2713,-7.2713,-7.2885,-7.3196,-7.3552,-7.4086,-7.4633,-7.4723,-7.5326,-7.612,-7.612,-7.6189,-7.6282,-7.6637,-7.6775,-7.6809,-7.712,-7.7223,-7.7223,-7.7223,-7.6671,-7.5913,-7.5119,-7.4361,-7.3602,-7.2885,-7.2713,-7.2713,-7.2713,-7.2713,-7.2713,-7.2713,-7.2713,-7.2713,-7.2713,-7.2713,-7.2501,-7.1907,-7.1742,-7.161,-7.1165,-7.1776,-7.221,-7.221,-7.2501,-7.2586,-7.2288,-7.1522,-7.112,-7.112,-7.0757,-7.0528,-7.0528,-7.0528,-7.0123,-6.9316,-6.9316,-6.8961,-6.8201,-6.8201,-6.7845,-6.7197,-6.7197,-6.6485,-7.3782,0.0,0.0,-7.5982,-7.6582,-7.7054,-7.6839,-7.6782,-7.6691,-7.6599,-7.6691,-7.6862,-7.7193,-7.7398,-7.7534,-7.7534,-7.7534,-7.7465,-7.7213,-7.7223,-7.7223,-7.7223,-7.7223,-7.7223,-7.7223,-7.7223,-7.7223,-7.7223,-7.7223,-7.7223,-7.7223,-7.7223,-7.7223,-7.7223,-7.7223,-7.7223,-7.7223,-7.7223,-7.7223,-7.7223,-7.7223,-7.6947,-7.6395,-7.5352,-7.4223,-7.2981,-7.2816,-7.2713,-7.2713,-7.2713,-7.2809,-7.3058,-7.3663,-7.4254,-7.4684,-7.4175,-7.4809,-7.5984,-7.6226,-7.6503,-7.6814,-7.7021,-7.7091,-7.7091,-7.6913,-7.7051,-7.7189,-7.6937,-7.6533,-7.5913,-7.5076,-7.4361,-7.3602,-7.2885,-7.2713,-7.2713,-7.2713,-7.2713,-7.2713,-7.2713,-7.2713,-7.2713,-7.2713,-7.2713,-7.2713,-7.2713,-7.2713,-7.2501,-7.1951,-7.2373,-7.2713,-7.2713,-7.2713,-7.2713,-7.2713,-7.221,-7.1907,-7.1907,-7.1389,-7.112,-7.112,-7.112,-7.0757,-6.9935,-6.9935,-6.9556,-6.8814,-6.8617,-6.8257,-6.7802,-6.7555,-6.7197,0.0,0.0,-7.6085,-7.612,-7.6458,-7.6793,-7.6793,-7.6645,-7.6587,-7.6748,-7.6793,-7.7125,-7.8178,-7.8361,-7.8361,-7.8361,-7.8361,-7.8085,-7.7327,-7.7223,-7.7223,-7.7223,-7.7223,-7.7223,0.0,-7.7223,-7.7223,-7.7223,-7.7223,-7.7223,-7.7223,-7.7223,-7.7223,-7.7223,-7.7223,-7.7223,-7.7223,-7.7223,-7.7223,-7.7223,-7.7223,-7.7223,-7.7154,-7.5558,-7.4499,-7.3705,-7.2981,-7.2713,-7.2713,-7.2713,-7.3084,-7.3671,-7.3023,-7.3898,-7.5457,-7.4726,-7.497,-7.5728,-7.6536,-7.6292,-7.5805,-7.6571,-7.6814,-7.6729,-7.6286,-7.6637,-7.7085,-7.6361,-7.612,-7.5913,-7.5076,-7.4361,-7.3602,-7.2885,-7.2713,-7.2713,-7.2713,-7.2713,-7.2713,-7.2713,-7.2713,-7.2713,-7.2713,-7.2713,-7.2713,-7.2713,-7.2713,-7.2671,-7.2671,-7.2671,-7.2713,-7.2713,-7.2713,-7.2713,-7.2713,-7.2671,-7.2671,-7.2671,-7.2628,-7.2628,-7.2628,-7.2628,-7.2288,-7.1556,-7.1556,-7.1165,-7.0436,-6.9651,-6.9268,-6.9187,-6.8485,-6.8169,0.0,0.0,-7.5533,-7.6568,-7.6927,-7.7054,-7.7054,-7.7456,-7.7789,-7.7846,-7.8225,-7.8718,-7.904,-7.9155,-7.9155,-7.9155,-7.9155,-7.8879,-7.812,-7.8017,-7.781,-7.7292,-7.7223,0.0,0.0,0.0,0.0,-7.7223,-7.7223,-7.7223,-7.7223,-7.7223,-7.7223,-7.7223,-7.7223,-7.7223,-7.7223,-7.7223,-7.7223,-7.7223,-7.7223,-7.6947,-7.643,-7.5352,-7.4499,-7.374,-7.3023,-7.2713,-7.2713,-7.3005,-7.3102,-7.3211,-7.4286,-7.4913,-7.5393,-7.6484,-7.7062,-7.7228,-7.7186,-7.7383,-7.7587,-7.7527,-7.7725,-7.7894,-7.7459,-7.7155,-7.6912,-7.6634,-7.5621,-7.4499,-7.4223,-7.3602,-7.2981,-7.2782,-7.2713,-7.2713,-7.2713,-7.2713,-7.2713,-7.2713,-7.2713,-7.2713,-7.2713,-7.2713,-7.2713,-7.2713,-7.2713,-7.2713,-7.2713,-7.2713,-7.2713,-7.2713,-7.2713,-7.2713,-7.2713,-7.2713,-7.2713,-7.2713,-7.2713,-7.2713,-7.2713,-7.2713,-7.2373,-7.16,-7.16,-7.121,-7.0528,-7.025,-7.0076,-7.0076,-6.9268,-6.8961,0.0,-7.719,-7.6996,-7.782,-7.8051,-7.8051,-7.8051,-7.843,-7.881,-7.881,-7.9189,-7.9603,-7.9844,-7.9913,-7.9913,-7.9913,-7.9913,-7.9569,-7.8534,-7.8396,-7.812,-7.7327,-7.7223,-7.7223,0.0,0.0,0.0,-7.7223,-7.7223,-7.7223,-7.7223,-7.7223,-7.7223,-7.7223,-7.7223,-7.7223,-7.7223,-7.7223,-7.7223,-7.7223,-7.7223,-7.6982,-7.6499,-7.5662,-7.4912,-7.4154,-7.3395,-7.2954,-7.2747,-7.3241,-7.3428,-7.349,-7.5083,-7.586,-7.6327,-7.7629,-7.8394,-7.8682,-7.8211,-7.8365,-7.8782,-7.8455,-7.8574,-7.8635,-7.7615,-7.7174,-7.6852,-7.6126,-7.5211,-7.4333,-7.3886,-7.3557,-7.3233,-7.2991,-7.2922,-7.2922,-7.2922,-7.2797,-7.2782,-7.3015,-7.3127,-7.3153,-7.3429,-7.3498,-7.3506,-7.3718,-7.3591,-7.3291,-7.2782,-7.2713,-7.2713,-7.2713,-7.2713,-7.2713,-7.2713,-7.2713,-7.2713,-7.2713,-7.2713,-7.2713,-7.2713,-7.2713,-7.2501,-7.1994,-7.1994,-7.1776,-7.13,-7.103,-7.0894,-7.0849,-6.9794,-6.9316,-7.9033,-7.9573,-8.0076,-7.9683,-7.9546,-7.9546,-7.9546,-7.9534,-7.9569,-7.9569,-7.9638,-7.9913,0.0,0.0,-8.0741,-8.0741,-8.0707,-8.0155,-7.8672,-7.8465,-7.8154,0.0,0.0,0.0,0.0,0.0,0.0,-7.7223,0.0,-7.7223,-7.7223,-7.7223,-7.7223,-7.7223,-7.7223,-7.7223,-7.7223,-7.7223,-7.7223,-7.7223,-7.7223,-7.7223,-7.7144,-7.6464,-7.5706,-7.4903,-7.4188,-7.3429,-7.2885,-7.3652,-7.4183,-7.4663,-7.5436,-7.6708,-7.8102,-7.8177,-7.8911,-7.9822,-7.9356,-7.9236,-7.9236,-7.9196,-7.9236,-7.8872,-7.6946,-7.6859,-7.6982,-7.5066,-7.497,-7.5269,-7.4083,-7.4086,-7.4204,-7.3543,-7.3369,-7.3369,-7.3438,-7.3109,-7.3058,-7.3748,-7.3886,-7.4128,-7.4852,-7.4956,-7.5085,-7.5554,-7.5214,-7.4395,-7.2981,-7.2809,-7.2809,-7.2809,-7.2809,-7.2809,-7.2809,-7.2809,-7.2809,-7.2809,-7.2809,-7.2809,-7.2809,-7.2809,-7.2809,-7.2809,-7.2809,-7.2809,-7.2809,-7.2131,-7.1746,-7.1746,-7.0223,-6.9511,-7.9145,-7.9501,-8.0018,-8.0448,-8.0279,-8.0011,-8.0011,-8.019,-8.0327,-8.0327,-8.1259,-8.2086,0.0,0.0,0.0,-8.2328,-8.1845,0.0,-7.9431,-7.9224,0.0,-7.7396,0.0,-7.7223,-7.7223,-7.7223,0.0,0.0,-7.7223,-7.7223,-7.7223,-7.7223,-7.7223,-7.7223,-7.7223,-7.7223,-7.7223,-7.7223,-7.7223,-7.7223,-7.7223,-7.7223,-7.7144,-7.6464,-7.6016,-7.5775,-7.4981,-7.4533,-7.4404,-7.522,-7.5491,-7.5513,-7.7227,-7.8004,-7.8213,-7.9092,-7.9643,-7.9861,-7.9783,-7.9743,-7.9669,-7.9316,-7.9471,-7.9558,-7.8695,-7.7762,-7.6949,-7.6407,-7.5319,-7.4267,-7.3937,-7.3942,-7.4127,-7.4552,-7.4622,-7.4798,-7.5434,-7.5171,-7.4906,-7.508,-7.5115,-7.5311,-7.5853,-7.5971,-7.5888,-7.5638,-7.5512,-7.5161,-7.4438,-7.4361,-7.4361,-7.4361,-7.4361,-7.4361,-7.4361,-7.4361,-7.4361,-7.4361,-7.4361,-7.4361,-7.4361,-7.4361,-7.4361,-7.4361,-7.4361,-7.4361,-7.4361,-7.4153,-7.4066,-7.4022,-7.3062,-7.265,-8.0065,-8.0659,-8.1183,-8.1742,-8.1734,-8.1513,-8.1513,-8.1746,-8.1932,-8.1932,-8.2712,0.0,0.0,0.0,0.0,0.0,0.0,0.0,-7.9741,-7.95,-7.8948,0.0,-7.7223,0.0,-7.7223,-7.7223,-7.7223,0.0,-7.7223,-7.7223,-7.7223,-7.7223,-7.7223,-7.7223,-7.7223,-7.7223,-7.7223,-7.7223,-7.7223,-7.7223,-7.7223,-7.7223,-7.7223,-7.6775,-7.6602,-7.6568,0.0,-7.5517,-7.5777,-7.6252,-7.6543,-7.6859,-7.8319,-7.8914,-7.8946,-7.9643,-7.9899,-7.9899,-7.9899,-7.9899,-7.9861,-7.959,-7.9704,-7.9718,-7.8772,-7.7841,-7.6985,-7.6157,-7.5077,-7.4245,-7.4401,-7.455,-7.4882,-7.5693,-7.5869,-7.6014,-7.6473,-7.6216,-7.6034,-7.6307,-7.6657,-7.7068,-7.7485,-7.7275,-7.6985,-7.6943,-7.6563,-7.6219,-7.5947,-7.5317,-7.4903,-7.4903,-7.4903,-7.4903,-7.4903,-7.4903,-7.4903,-7.4903,-7.4903,-7.4903,-7.4903,-7.4903,-7.4903,-7.4903,-7.4903,-7.4903,-7.4903,-7.4903,-7.4903,-7.4869,-7.4172,-7.3822,-8.1206,-8.2111,-8.2913,-8.3261,-8.3341,-8.3297,-8.3297,-8.3431,-8.3589,-8.3659,0.0,0.0,-8.4253,0.0,-8.3052,-8.3052,0.0,-8.1293,-7.9879,-7.9569,-7.8982,-7.7534,-7.7292,-7.7223,-7.7223,-7.7223,-7.7223,-7.7223,-7.7223,-7.7223,-7.7223,-7.7223,-7.7223,-7.7223,-7.7223,-7.7223,-7.7223,-7.7223,-7.7223,-7.7223,-7.7223,-7.7223,-7.7223,-7.7327,-7.7327,-7.7189,-7.6681,-7.6634,-7.6919,-7.7047,-7.7556,-7.8315,-7.9028,-7.955,-7.9899,-7.9899,-7.9899,-7.9899,-7.9899,-7.9899,-7.9899,-7.9899,-7.9828,-7.9471,-7.8079,-7.7508,-7.7005,-7.5314,-7.4846,-7.4912,-7.52,-7.5603,-7.6122,-7.6976,-7.7153,-7.7189,-7.7295,-7.7015,-7.687,-7.7539,-7.8165,-7.8823,-7.9196,-7.8664,-7.8279,-7.8532,-7.7937,-7.7411,-7.7313,-7.6051,-7.5179,-7.5179,-7.5179,-7.5179,-7.5179,-7.5179,-7.5179,-7.5179,-7.5179,-7.5179,-7.5179,-7.5179,-7.5179,-7.5179,-7.5179,-7.5179,-7.5179,-7.5179,-7.5179,-7.5179,-7.4569,-7.4264,-8.1045,-8.2206,-8.3453,-8.419,-8.4074,-8.3776,-8.3776,-8.3499,0.0,0.0,0.0,-8.4782,-8.5442,-8.462,0.0,-8.3811,0.0,0.0,0.0,0.0,-7.9189,0.0,0.0,0.0,0.0,0.0,0.0,0.0,0.0,-7.7223,-7.7223,-7.7223,-7.7223,-7.7223,-7.7223,-7.7223,-7.7223,-7.7223,-7.7223,-7.7223,-7.7223,-7.7223,-7.7258,-7.7913,-7.7844,-7.7258,-7.8108,0.0,-7.7762,-7.8488,-7.8862,-7.9059,-7.9594,-7.9822,-7.9899,-7.9899,-7.9899,-7.9899,-7.9899,-7.9899,-7.9899,-7.9899,-7.9435,-7.8864,-7.8579,-7.758,-7.6545,-7.6185,-7.6077,-7.6112,-7.6144,-7.668,-7.7359,-7.8217,-7.8396,-7.8574,-7.9212,-7.9005,-7.8761,-7.8867,-7.9009,-7.9236,-7.9704,-7.9665,-7.9347,-7.8699,-7.8747,-7.8581,-7.785,-7.7204,-7.6765,-7.6765,-7.6765,-7.6765,-7.6765,-7.6765,-7.6765,-7.6765,-7.6765,-7.6765,-7.6765,-7.6765,-7.6765,-7.6765,-7.6765,-7.6765,-7.6765,-7.6765,-7.6765,-7.6799,-7.6675,-7.663,-8.2101,-8.2906,-8.3736,-8.4396,-8.4445,-8.4242,-8.4242,0.0,0.0,0.0,0.0,-8.5729,-8.5876,0.0,0.0,0.0,0.0,0.0,0.0,0.0,0.0,0.0,0.0,0.0,0.0,0.0,0.0,0.0,0.0,-7.7223,-7.7223,-7.7223,-7.7223,-7.7223,-7.7223,-7.7313,-7.7579,-7.7544,-7.7544,-7.7579,-7.796,-7.8133,-7.8212,-7.8549,-7.8856,-7.9086,-7.8885,-7.8924,-7.9178,-7.921,-7.9316,-7.959,-7.9822,-7.9899,-7.9899,-7.9899,-7.9899,-7.9899,-7.9899,-7.9899,-7.9899,-7.9899,-7.9364,-7.8615,-7.8186,-7.7544,-7.6902,-7.6509,-7.6688,-7.708,-7.7473,-7.7865,-7.8329,-7.9114,-7.9328,-7.9435,-7.9828,-7.9743,-7.955,-7.955,-7.955,-7.9629,-7.9861,-7.9704,-7.9391,-7.8987,-7.887,-7.8741,-7.8322,-7.785,-7.7544,-7.7544,-7.7544,-7.749,-7.7223,-7.7223,-7.7223,-7.7223,-7.7223,-7.7223,-7.7223,-7.7223,-7.7223,-7.7223,-7.7223,-7.7223,-7.7223,-7.7223,-7.7223,-7.7223,-7.7223,-7.7223,-8.3298,-8.377,-8.4097,-8.4599,-8.4692,-8.4687,-8.4906,-8.4931,0.0,0.0,-8.5976,-8.6368,-8.6032,0.0,0.0,0.0,0.0,0.0,0.0,0.0,0.0,0.0,0.0,0.0,0.0,0.0,0.0,0.0,0.0,0.0,-7.7223,-7.7223,-7.7223,-7.7223,-7.7313,-7.7535,-7.7893,-7.798,-7.8127,-7.831,-7.8859,-7.9287,-7.9461,-7.9461,-7.9845,-8.0583,-7.9473,-7.9399,-8.0081,-7.96,-7.955,-7.9899,-7.9899,-7.9899,-7.9899,-7.9899,-7.9899,-7.9899,-7.9899,-7.9899,-7.9899,-7.9899,-7.9257,-7.8365,-7.7901,-7.7544,-7.7187,-7.6759,-7.7187,-7.7901,-7.8543,-7.8829,-7.9114,-7.9757,-7.9899,-7.9899,-7.9899,-7.9899,-7.9899,-7.9899,-7.9899,-7.9899,-7.9899,-7.959,-7.9316,-7.9236,-7.9028,-7.8823,-7.8741,-7.849,-7.8237,-7.8066,-7.785,-7.7588,-7.7223,-7.7223,-7.7223,-7.7223,-7.7223,-7.7223,-7.7223,-7.7223,-7.7223,-7.7223,-7.7223,-7.7223,-7.7223,-7.7223,-7.7223,-7.7223,-7.7223,-7.7223,-8.3861,-8.4317,-8.4937,-8.5084,-8.502,-8.5038,-8.5831,0.0,0.0,0.0,-8.6466,-8.6223,-8.6179,-8.5752,-8.5017,0.0,0.0,0.0,0.0,0.0,0.0,0.0,0.0,0.0,0.0,0.0,0.0,0.0,0.0,0.0,-7.7223,-7.7223,-7.7223,-7.7223,-7.7588,-7.785,-7.7893,-7.8322,-7.8883,-7.9515,-7.9585,-8.0006,-8.0708,-8.0743,-8.04,-7.981,-8.0082,-7.9863,0.0,-7.9665,-7.9861,-7.9899,-7.9899,-7.9899,-7.9899,-7.9899,-7.9899,-7.9899,-7.9899,-7.9899,-7.9899,-7.9899,-7.8864,-7.7723,-7.8365,-7.7615,-7.6616,-7.7223,-7.7972,-7.8579,-7.865,-7.9221,-7.9828,-7.9899,-7.9899,-7.9899,-7.9899,-7.9899,-7.9899,-7.9899,-7.9899,-7.9899,-7.9899,-7.9861,-7.9669,-7.9276,-7.9511,-7.9665,-7.9196,-7.9471,-7.9427,-7.8616,-7.7763,-7.7268,-7.7223,-7.7223,-7.7223,-7.7223,-7.7223,-7.7223,-7.7223,-7.7223,-7.7223,-7.7223,-7.7223,-7.7223,-7.7223,-7.7223,-7.7223,-7.7223,-7.7223,-7.7223,-8.5503,-8.5605,-8.5881,-8.5808,-8.5703,-8.5813,-8.6541,0.0,0.0,-8.6109,-8.6125,-8.5877,-8.5541,-8.5711,-8.5604,0.0,0.0,0.0,0.0,0.0,0.0,0.0,0.0,0.0,0.0,0.0,0.0,0.0,0.0,0.0,-7.7623,-7.7588,-7.7588,-7.7588,-7.8066,-7.8448,-7.8664,-7.9364,-7.9834,-8.0152,-8.107,-8.1705,-8.2023,-8.1987,-8.169,-8.1201,-8.0937,-8.0376,0.0,-7.9822,-7.9899,-7.9899,-7.9899,-7.9899,-7.9899,-7.9899,-7.9899,-7.9899,-7.9899,-7.9899,-7.9971,-8.047,-7.9543,-7.8258,-7.8579,-7.8258,-7.783,-7.8115,-7.8793,-7.9435,-7.9435,-7.965,-7.9899,-7.9899,-7.9899,-7.9899,-7.9899,-7.9899,-7.9899,-7.9899,-7.9899,-7.9899,-7.9899,-7.9899,-7.9822,-7.9629,-7.9783,-7.9822,-7.9629,-7.955,-7.9271,-7.8657,-7.8279,-7.7807,-7.7268,-7.7223,-7.7223,-7.7223,-7.7223,-7.7223,-7.7223,-7.7223,-7.7223,-7.7223,-7.7223,-7.7223,-7.7223,-7.7223,-7.7223,-7.7223,-7.7223,-7.7223,-8.69,-8.6782,-8.6877,-8.674,-8.6459,-8.6441,0.0,0.0,-8.5859,-8.6073,-8.5966,-8.5633,-8.5011,-8.5528,-8.5777,0.0,0.0,0.0,0.0,0.0,0.0,0.0,0.0,0.0,0.0,0.0,0.0,0.0,0.0,0.0,-7.8066,-7.8237,-7.8237,-7.8109,-7.8532,-7.9052,-7.955,-8.0238,-8.0851,-8.1312,-8.2413,-8.3051,-8.33,-8.2803,-8.2435,-8.2148,-8.1184,-8.0435,0.0,-7.9899,-7.9899,-7.9899,-7.9899,-7.9899,-7.9899,-7.9899,-7.9899,-7.9899,-7.9899,-8.0078,-8.0363,-8.0934,-8.0328,-7.94,-7.94,-7.9079,-7.8722,-7.8972,-7.9471,-7.9899,-7.9899,-7.9899,-7.9899,-7.9899,-7.9899,-7.9899,-7.9899,-8.0113,-8.0256,-8.0256,-8.0435,-8.0577,-8.0577,-8.0577,-8.0649,-8.0899,-8.072,-8.0684,-8.0899,-8.0448,-7.9944,-7.9528,-7.9486,-7.8854,-7.7347,-7.7223,-7.7223,-7.7223,-7.7223,-7.7223,-7.7223,-7.7223,-7.7223,-7.7223,-7.7223,-7.7223,-7.7223,-7.7223,-7.7223,-7.7223,-7.7223,-7.7223,-8.7776,-8.7748,-8.7861,-8.7861,-8.7119,-8.6784,0.0,0.0,-8.6002,-8.6751,-8.6323,-8.5573,-8.4753,-8.5288,-8.5371,-8.4131,0.0,0.0,0.0,0.0,0.0,0.0,0.0,0.0,0.0,0.0,0.0,0.0,0.0,0.0,-7.8574,-7.8952,-7.8993,-7.8574,-7.8993,-7.9585,-8.0399,-8.0879,-8.1862,-8.3361,-8.3397,-8.3825,-8.4538,-8.2933,-8.2219,-8.2112,0.0,-7.9935,0.0,-7.9899,-7.9899,-7.9899,-7.9899,-7.9899,-7.9899,-7.9899,-7.9899,-7.9899,-7.9899,-8.0435,-8.1077,-8.1113,-8.1077,-8.1077,-8.1077,-7.9935,-7.8864,-7.965,-7.9899,-7.9899,-7.9899,-7.9899,-7.9899,-7.9899,-7.9899,-7.9899,-7.9899,-8.0542,-8.1077,-8.1077,-8.1684,-8.2183,-8.2183,-8.2183,-8.2433,-8.3218,-8.2683,-8.2469,-8.3254,-8.2647,-8.2023,-8.1609,-8.1568,-8.0352,-7.7416,-7.7223,-7.7223,-7.7223,-7.7223,-7.7223,-7.7223,-7.7223,-7.7223,-7.7223,-7.7223,-7.7223,-7.7223,-7.7223,-7.7223,-7.7223,-7.7223,-7.7223,-8.8668,-8.8551,-8.8708,-8.9269,-8.8753,-8.847,-8.982,0.0,-8.6853,-8.69,-8.5894,-8.4895,-8.4646,-8.5252,-8.5496,-8.451,0.0,0.0,0.0,0.0,0.0,0.0,0.0,0.0,0.0,0.0,0.0,0.0,0.0,0.0,-7.8993,-7.9115,-7.9155,-7.8993,-8.0004,-8.063,-8.0879,-8.2072,-8.2897,-8.3397,-8.3967,-8.4075,-8.3753,-8.3254,-8.2433,0.0,0.0,-8.0399,-7.9899,-7.9899,-7.9899,-7.9899,-7.9899,-7.9899,-7.9899,-7.9899,-7.9899,-7.9971,-8.0542,-8.0542,-8.047,-8.1505,-8.1148,-8.047,-8.1541,-8.0756,-7.9578,-7.9828,-7.9899,-7.9899,-7.9899,-8.0328,-8.072,-8.072,-8.1113,-8.147,-8.147,-8.1684,-8.1862,-8.1862,-8.2469,-8.3004,-8.3004,-8.3468,-8.3753,-8.3432,-8.3182,-8.2897,-8.2611,-8.2362,-8.2058,-8.165,-8.1568,-8.1063,-7.9845,-7.9723,-7.9723,-7.9723,-7.9415,-7.9237,-7.9237,-7.8957,-7.8775,-7.8775,-7.8775,-7.8775,-7.8775,-7.8292,-7.7741,-7.7223,-7.7223,-7.7223,0.0,-8.927,-8.9536,-9.0282,-8.9936,0.0,0.0,0.0,-8.7151,-8.6579,-8.5502,-8.461,-8.461,-8.5002,-8.5181,-8.4681,0.0,0.0,0.0,0.0,0.0,0.0,0.0,0.0,0.0,0.0,0.0,0.0,0.0,0.0,-7.9471,-7.9755,-7.9897,-7.9897,-8.0709,-8.1362,-8.1969,-8.2897,-8.3397,-8.3397,-8.3896,-8.3718,-8.2933,-8.2647,-8.2005,0.0,-8.0791,-8.0363,0.0,-7.9899,-7.9899,-7.9899,-7.9899,-7.9899,-7.9864,-7.9578,-7.965,-7.9935,-8.0113,-8.0256,-8.0577,-8.1791,-8.1755,-8.1327,-8.2005,-8.1327,-8.0292,-8.0006,-8.0113,-8.0363,-8.0363,-8.0934,-8.1577,-8.1898,-8.2326,-8.2754,-8.304,-8.3325,-8.3575,-8.3575,-8.3967,-8.4289,-8.4289,-8.4467,-8.4538,-8.4324,-8.4039,-8.3789,-8.3575,-8.3289,-8.2989,-8.2744,-8.2702,-8.262,-8.2326,-8.1422,-8.0934,-8.0934,-8.0631,-8.0465,-8.0465,-8.0011,-7.974,-7.974,-7.9592,-7.95,-7.95,-7.9051,-7.8568,-7.8085,-7.781,-7.781,0.0,0.0,0.0,0.0,0.0,0.0,0.0,0.0,0.0,-8.5972,-8.5181,-8.461,-8.461,-8.461,-8.461,-8.461,0.0,0.0,0.0,0.0,0.0,0.0,0.0,0.0,0.0,0.0,0.0,0.0,0.0,0.0,-8.001,-8.0684,-8.1148,-8.1255,-8.1255,-8.1933,-8.3361,-8.3397,-8.3397,-8.3397,-8.3325,-8.2897,-8.2112,-8.1398,-8.1077,0.0,-8.0221,-7.9899,-7.9899,-7.9899,-7.9899,-7.9899,-7.9899,-7.9864,-7.9721,-7.8972,-7.915,-7.9721,-7.9007,-7.9757,-8.1113,-8.1826,-8.2576,-8.3075,-8.2362,-8.1684,-8.1041,-8.0363,-8.0649,-8.1184,-8.1255,-8.1791,-8.2576,-8.3289,-8.3575,-8.386,-8.461,-8.5359,-8.5859,-8.5823,-8.5823,-8.5859,-8.5823,-8.5216,-8.5002,-8.5716,-8.5181,-8.4931,-8.5645,-8.5074,-8.461,-8.461,-8.461,-8.461,-8.461,-8.2475,-8.1161,-8.1161,-8.1118,-8.1118,-8.1118,-8.064,-8.0374,-8.0374,-7.9913,-7.9707,-7.9741,-7.9707,-7.9672,-7.9672,-7.8982,-7.8982,0.0,0.0,0.0,0.0,0.0,0.0,0.0,0.0,0.0,0.0,0.0,0.0,0.0,0.0,0.0,0.0,0.0,0.0,0.0,0.0,0.0,0.0,0.0,0.0,0.0,0.0,0.0,0.0,0.0,-8.0725,-8.0831,-8.1006,-8.1648,-8.2826,-8.2861,-8.3004,-8.3397,-8.3397,-8.3397,-8.3397,-8.279,-8.2076,-8.1362,-8.1184,-8.0756,-8.0185,-7.9971,-7.9899,-7.9899,-7.9899,-7.9899,-7.9899,-7.9899,-7.9507,-7.8936,-7.8757,-7.8793,-7.9043,-7.9471,-7.9864,-8.0221,-8.0399,-8.097,-8.1612,-8.1398,-8.1612,-8.204,-8.2469,-8.2255,-8.2076,-8.2683,-8.3432,-8.4075,-8.4289,-8.5216,-8.6144,-8.6323,-8.6501,-8.6465,-8.5894,-8.6251,-8.6465,-8.5894,-8.6109,-8.6216,-8.5859,-8.5645,-8.5359,-8.4931,-8.4717,-8.461,-8.461,-8.461,-8.461,-8.461,-8.4047,-8.3751,-8.3751,-8.338,-8.321,-8.321,-8.2381,-8.1931,-8.1931,-8.1493,-8.1535,-8.2121,-8.1535,-8.1259,-8.1259,-8.1086,-8.0776,0.0,0.0,0.0,0.0,0.0,0.0,0.0,0.0,0.0,0.0,0.0,0.0,0.0,0.0,0.0,0.0,0.0,0.0,0.0,0.0,0.0,0.0,0.0,0.0,0.0,0.0,0.0,0.0,0.0,-8.149,-8.1116,-8.1755,-8.254,-8.3361,-8.3753,-8.3753,-8.3397,-8.3397,-8.304,-8.2326,-8.1898,-8.1291,-8.0542,-8.0542,-8.0328,-7.9899,-7.9899,-7.9899,-7.9899,-7.9899,-7.9899,-7.9864,-7.9507,-7.9079,-7.865,-7.8294,-7.8365,-7.8757,-7.9186,-8.0042,-8.1006,-8.1398,-8.204,-8.279,-8.3147,-8.3539,-8.3789,-8.3468,-8.3611,-8.3967,-8.4396,-8.5074,-8.5752,-8.6109,-8.6858,-8.7536,-8.7929,-8.8,-8.7786,-8.7001,-8.6894,-8.668,-8.593,-8.5823,-8.5716,-8.5324,-8.5252,-8.5109,-8.4681,-8.461,-8.461,-8.461,-8.461,-8.461,-8.461,-8.461,-8.461,-8.461,-8.4326,-8.42,-8.42,-8.3877,-8.3651,-8.3578,-8.3097,-8.3018,-8.3397,-8.3018,-8.2811,-8.2811,-8.2466,-8.2259,0.0,0.0,0.0,0.0,0.0,0.0,0.0,0.0,0.0,0.0,0.0,0.0,0.0,0.0,0.0,0.0,0.0,0.0,0.0,0.0,0.0,0.0,0.0,0.0,0.0,0.0,0.0,0.0,0.0,-8.236,-8.1513,-8.2683,-8.3432,-8.3575,-8.4146,-8.4039,-8.3218,-8.3218,-8.2504,-8.1113,-8.097,-8.0577,-7.9899,-7.9899,-7.9899,-7.9899,0.0,0.0,-7.9899,-7.9899,-7.9899,-7.9828,-7.9007,-7.8686,-7.8615,-7.7937,-7.8186,-7.89,-7.915,-8.0542,-8.2326,-8.3004,-8.3753,-8.4574,-8.5359,-8.5787,-8.5716,-8.4467,-8.5002,-8.6002,-8.6109,-8.6608,-8.7251,-8.7929,-8.8178,-8.8464,-8.9178,-8.932,-8.907,-8.825,-8.7536,-8.6822,-8.5966,-8.5252,-8.4753,-8.4646,-8.461,-8.461,-8.461,-8.461,-8.461,-8.461,-8.461,-8.461,-8.461,-8.461,-8.4646,-8.4788,-8.4788,-8.4818,-8.4842,-8.5024,-8.5118,-8.4971,-8.4343,-8.4121,-8.4363,-8.4259,-8.4259,-8.4363,-8.3707,-8.3707,-9.1875,-9.2746,-9.3239,0.0,0.0,0.0,0.0,0.0,0.0,0.0,0.0,0.0,0.0,0.0,0.0,0.0,0.0,0.0,0.0,0.0,0.0,0.0,0.0,0.0,0.0,0.0,0.0,0.0,0.0,-8.2795,-8.3049,-8.3254,-8.3718,-8.4396,-8.386,-8.3182,-8.2397,-8.2397,-8.1933,-8.1077,-8.0399,-8.0042,-7.9899,-7.9899,-7.9899,-7.9899,0.0,-7.9899,-7.9899,-7.9899,-7.9899,-7.9828,-7.9007,-7.8686,-7.8686,-7.8543,-7.9007,-7.9899,-8.122,-8.1898,-8.2219,-8.2326,-8.2933,-8.3718,-8.4538,-8.5716,-8.6822,-8.7251,-8.7072,-8.6894,-8.7572,-8.7821,-8.7929,-8.8071,-8.8607,-8.9178,-8.9285,-8.932,-8.907,-8.825,-8.8,-8.7465,-8.6037,-8.5716,-8.5395,-8.4717,-8.461,-8.461,-8.461,-8.461,-8.461,-8.461,-8.461,-8.461,-8.461,-8.461,-8.4895,-8.5573,-8.5609,-8.5727,-8.5946,-8.5604,-8.5564,-8.5724,-8.4571,-8.4639,-8.5949,-8.5328,-8.5328,-8.5949,-8.5846,-8.5501,-9.2064,-9.2595,-9.2595,-9.1401,0.0,-9.0647,0.0,0.0,0.0,0.0,0.0,0.0,0.0,0.0,0.0,0.0,0.0,0.0,0.0,0.0,0.0,0.0,0.0,0.0,0.0,0.0,0.0,0.0,0.0,0.0,-8.2763,-8.3575,-8.4217,-8.461,-8.3825,-8.3004,-8.2219,-8.1791,-8.122,-8.047,-8.0078,-7.9899,-7.9899,-7.9899,-7.9899,-7.9899,0.0,-7.9899,-7.9899,-7.9899,-7.9899,-7.9864,-7.9507,-7.9079,-7.8722,-7.9186,-7.9864,-8.0756,-8.229,-8.2861,-8.3004,-8.386,-8.4396,-8.4931,-8.6144,-8.7001,-8.7714,-8.8535,-8.85,-8.8285,-8.8642,-8.8749,-8.8749,-8.8749,-8.9035,-8.932,-8.932,-8.932,-8.907,-8.825,-8.8107,-8.7607,-8.6073,-8.5787,-8.5538,-8.4717,-8.461,-8.461,-8.461,-8.461,-8.461,-8.461,-8.5002,-8.5252,-8.5252,-8.5609,-8.5823,-8.5787,-8.618,-8.6666,-8.72,-8.6754,-8.6748,-8.7292,-8.6475,-8.6399,-8.7095,-8.6747,-8.6747,-8.7095,-8.6838,-8.6567,-9.2178,-9.2443,-9.2203,0.0,0.0,-9.0512,-8.8794,0.0,0.0,0.0,0.0,0.0,0.0,0.0,0.0,0.0,0.0,0.0,0.0,0.0,0.0,0.0,0.0,0.0,0.0,0.0,0.0,0.0,0.0,0.0,-8.2794,-8.3932,-8.4538,-8.4324,-8.3539,-8.2718,-8.1933,-8.1184,-8.0506,-7.9899,-7.9899,-7.9899,-7.9899,-7.9899,-7.9899,-7.9899,-7.9899,-7.9899,-7.9899,-7.9899,-8.0006,-8.0185,-7.9971,-7.9757,-7.9614,-8.0435,-8.122,-8.2076,-8.3254,-8.3789,-8.4146,-8.5395,-8.6037,-8.6573,-8.7714,-8.8214,-8.85,-8.9142,-8.932,-8.932,-8.932,-8.932,-8.932,-8.932,-8.932,-8.932,-8.932,-8.932,-8.9142,-8.85,-8.8392,-8.7964,-8.6573,-8.6323,-8.6002,-8.5038,-8.5038,-8.5074,-8.4895,-8.4895,-8.4967,-8.5145,-8.5538,-8.5859,-8.6037,-8.6751,-8.6929,-8.6358,-8.6858,-8.7536,-8.8357,-8.7914,-8.794,-8.8506,-8.8005,-8.7808,-8.7808,-8.7808,-8.7761,-8.762,-8.7275,-8.702,-9.2481,-9.2898,-9.296,-9.0661,-9.0604,0.0,-8.8032,-8.7284,0.0,0.0,0.0,0.0,0.0,0.0,0.0,0.0,0.0,0.0,0.0,0.0,0.0,0.0,0.0,0.0,0.0,0.0,0.0,0.0,0.0,0.0,-8.4437,-8.4538,-8.4253,-8.3504,-8.2718,-8.1933,-8.1184,-8.0399,-7.9971,-7.9899,-7.9899,-7.9899,-7.9899,-7.9899,-7.9899,-7.9899,-7.9899,-7.9899,-7.9899,-7.9899,-8.0328,-8.0934,-8.0185,-8.0756,-8.204,-8.2861,-8.3646,-8.436,-8.4503,-8.5002,-8.5645,-8.5752,-8.6751,-8.7964,-8.8071,-8.8607,-8.9249,-8.9285,-8.932,-8.932,-8.932,-8.932,-8.932,-8.932,-8.932,-8.932,-8.932,-8.932,-8.9285,-8.9249,-8.9213,-8.8963,-8.8071,-8.7929,-8.7429,-8.593,-8.6287,-8.6501,-8.5787,-8.5716,-8.5966,-8.668,-8.618,-8.6073,-8.6751,-8.7536,-8.7964,-8.7929,-8.7964,-8.8357,-8.9178,-8.8695,-8.8471,-8.8506,-8.8005,-8.7808,-8.7808,-8.7808,-8.7573,-8.7165,-8.7117,-8.6838,-9.2367,-9.2051,-9.139,-8.9779,-8.9706,0.0,0.0,0.0,0.0,0.0,0.0,0.0,0.0,0.0,0.0,0.0,0.0,0.0,0.0,0.0,0.0,0.0,0.0,0.0,0.0,0.0,0.0,0.0,0.0,0.0,-8.3865,-8.4324,-8.4253,-8.3432,-8.2611,-8.1862,-8.1113,-8.0292,-7.9899,-7.9899,-7.9899,-7.9899,-7.9899,-7.9899,-7.9899,-7.9899,-7.9899,-7.9899,-7.9935,-8.0435,-8.0827,-8.1113,-8.1255,-8.1684,-8.229,-8.3075,-8.3575,-8.4003,-8.5002,-8.5538,-8.5966,-8.6929,-8.7607,-8.8178,-8.8678,-8.907,-8.932,-8.932,-8.932,-8.932,-8.932,-8.932,-8.932,-8.932,-8.932,-8.932,-8.932,-8.932,-8.932,-8.932,-8.932,-8.9035,-8.825,-8.8107,-8.7714,-8.6644,-8.6715,-8.6787,-8.6537,-8.6465,-8.6608,-8.6858,-8.7108,-8.7536,-8.8321,-8.8678,-8.8856,-8.8856,-8.8856,-8.8999,-8.932,-8.911,-8.9023,-8.9023,-8.8846,-8.8757,-8.8757,-8.8757,-8.8452,-8.7947,-8.7667,-8.7275,-9.2039,-9.152,-9.0835,0.0,0.0,0.0,0.0,0.0,0.0,0.0,0.0,0.0,0.0,0.0,0.0,0.0,0.0,0.0,0.0,0.0,0.0,0.0,0.0,0.0,0.0,0.0,0.0,0.0,0.0,0.0,-8.383,-8.4075,-8.386,-8.304,-8.2255,-8.1505,-8.072,-8.0185,-7.9899,-7.9899,-7.9899,-7.9899,-7.9899,-7.9899,-7.9899,-7.9899,-7.9899,-8.0042,-8.0328,-8.0863,-8.122,-8.1541,-8.2576,-8.279,-8.2683,-8.3468,-8.3789,-8.3967,-8.5324,-8.5966,-8.6358,-8.7679,-8.825,-8.8571,-8.9142,-8.932,-8.932,-8.932,-8.932,-8.932,-8.932,-8.932,-8.932,-8.932,-8.932,-8.932,-8.932,-8.932,-8.932,-8.932,-8.932,-8.9142,-8.8571,-8.8464,-8.8214,-8.7393,-8.75,-8.7679,-8.7679,-8.7679,-8.7679,-8.7679,-8.8143,-8.8714,-8.9249,-8.932,-8.932,-8.932,-8.932,-8.932,-8.932,-8.932,-8.932,-8.932,-8.932,-8.932,-8.932,-8.932,-8.8934,-8.828,-8.7959,-8.7478,-9.1427,-9.1482,0.0,0.0,0.0,0.0,0.0,0.0,0.0,0.0,0.0,0.0,0.0,0.0,0.0,0.0,0.0,0.0,0.0,0.0,0.0,0.0,0.0,0.0,0.0,0.0,0.0,0.0,-8.4434,-8.461,-8.461,-8.3825,-8.3004,-8.2219,-8.147,-8.072,-7.9935,-7.9899,-7.9899,-7.9899,-7.9899,-7.9899,-7.9899,-7.9899,-7.9899,-7.9899,-7.9935,-8.0363,-8.1113,-8.1113,-8.1541,-8.2362,-8.3967,-8.411,-8.3504,-8.4289,-8.461,-8.4753,-8.5538,-8.6287,-8.7036,-8.7857,-8.8642,-8.932,-8.932,-8.932,-8.932,-8.932,-8.932,-8.932,-8.932,-8.932,-8.932,-8.932,-8.932,-8.932,-8.932,-8.932,-8.932,-8.932,-8.932,-8.932,-8.932,-8.932,-8.907,-8.825,-8.8821,-8.932,-8.932,-8.932,-8.932,-8.932,-8.932,-8.932,-8.932,-8.932,-8.932,-8.932,-8.932,-8.932,-8.932,-8.932,-8.932,-8.932,-8.932,-8.932,-8.932,-8.932,-8.8801,-8.7808,-8.7808,-8.7288,-9.1206,0.0,0.0,0.0,0.0,0.0,0.0,0.0,0.0,0.0,0.0,0.0,0.0,0.0,0.0,0.0,0.0,0.0,0.0,0.0,0.0,0.0,0.0,0.0,0.0,0.0,0.0,-8.5095,-8.4796,-8.436,-8.3789,-8.3504,-8.279,-8.147,-8.122,-8.072,-7.9935,-7.9899,-7.9899,-7.9899,-7.9899,-7.9899,-7.9899,-7.9899,-7.9899,-7.9935,-8.0506,-8.0863,-8.1148,-8.1648,-8.2005,-8.229,-8.3361,-8.3611,-8.3504,-8.4289,-8.4967,-8.5538,-8.6323,-8.7072,-8.7857,-8.8678,-8.9106,-8.932,-8.932,-8.932,-8.932,-8.932,-8.932,-8.932,-8.932,-8.932,-8.932,-8.932,-8.932,-8.932,-8.932,-8.9749,-9.0141,-9.0141,-9.0569,-9.0926,-9.0926,-9.0926,-9.0855,-9.0605,-9.0783,-9.0926,-9.0926,-9.0926,-9.0926,-9.0926,-9.0926,-9.0926,-9.0926,-9.0926,-9.0926,-9.0926,-9.0427,-8.9891,-8.932,-8.932,-8.932,-8.932,-8.932,-8.932,-8.932,-8.8899,-8.8406,-8.7808,-8.7431,-8.6936,-9.0453,0.0,0.0,0.0,0.0,0.0,0.0,0.0,0.0,0.0,0.0,0.0,0.0,0.0,0.0,0.0,0.0,0.0,0.0,0.0,0.0,0.0,0.0,0.0,0.0,0.0,-8.5139,-8.5139,-8.4814,-8.4253,-8.3432,-8.3075,-8.2362,-8.1148,-8.0791,-8.0399,-7.9899,-7.9899,-7.9899,-7.9899,-7.9899,-7.9899,-7.9899,-7.9899,-8.0078,-8.0435,-8.1541,-8.1826,-8.1612,-8.2362,-8.2504,-8.229,-8.3075,-8.3397,-8.3539,-8.4646,-8.5395,-8.5966,-8.7001,-8.7679,-8.8214,-8.9035,-8.932,-8.932,-8.932,-8.932,-8.932,-8.932,-8.932,-8.932,-8.932,-8.932,-8.932,-8.932,-8.957,-8.9784,-8.9784,-9.0391,-9.0926,-9.0926,-9.1319,-9.1604,-9.1604,-9.1604,-9.1604,-9.1604,-9.189,-9.2068,-9.2068,-9.2068,-9.2068,-9.2068,-9.1783,-9.1604,-9.1604,-9.1604,-9.1604,-9.1604,-9.1176,-9.0605,-8.982,-8.9499,-8.932,-8.932,-8.932,-8.932,-8.932,-8.8978,-8.8497,-8.7808,-8.7478,-8.6985,0.0,0.0,0.0,0.0,0.0,0.0,0.0,0.0,0.0,0.0,0.0,0.0,0.0,0.0,0.0,0.0,0.0,0.0,0.0,0.0,0.0,0.0,0.0,0.0,0.0,0.0,-8.4651,-8.461,-8.4538,-8.4146,-8.3325,-8.254,-8.1755,-8.1006,-8.0292,-7.9899,-7.9899,-7.9899,-7.9899,-7.9899,-7.9899,-7.9935,-8.0006,-8.0006,-8.047,-8.1398,-8.279,-8.2968,-8.2362,-8.3004,-8.2897,-8.2362,-8.304,-8.3432,-8.3789,-8.5252,-8.5894,-8.6216,-8.7607,-8.8143,-8.8321,-8.907,-8.932,-8.932,-8.932,-8.932,-8.932,-8.932,-8.932,-8.932,-8.932,-8.9356,-8.9427,-8.9427,-8.9963,-9.0534,-9.0605,-9.1176,-9.1711,-9.1711,-9.1783,-9.1818,-9.1818,-9.1818,-9.1818,-9.1818,-9.2425,-9.2889,-9.2889,-9.2889,-9.2889,-9.2889,-9.2246,-9.1818,-9.1818,-9.1818,-9.1818,-9.1818,-9.1747,-9.1426,-9.0748,-8.9891,-8.9392,-8.932,-8.932,-8.932,-8.932,-8.9277,-8.8757,-8.7866,-8.7854,-8.7288,0.0,0.0,0.0,0.0,0.0,0.0,0.0,0.0,0.0,0.0,0.0,0.0,0.0,0.0,0.0,0.0,0.0,0.0,0.0,0.0,0.0,0.0,0.0,0.0,0.0,0.0,-8.5139,-8.4651,-8.4003,-8.3289,-8.2504,-8.1755,-8.097,-8.0185,-8.0006,-7.9899,-7.9899,-7.9899,-7.9899,-7.9899,-7.9899,-8.0221,-8.0827,-8.0827,-8.1612,-8.2897,-8.3254,-8.3289,-8.3111,-8.2647,-8.2718,-8.3075,-8.2647,-8.3611,-8.5324,-8.568,-8.6573,-8.7643,-8.7964,-8.85,-8.907,-8.9249,-8.932,-8.932,-8.932,-8.932,-8.932,-8.932,-8.932,-8.932,-8.932,-8.9784,-9.0248,-9.0248,-9.0391,-9.0676,-9.1247,-9.1997,-9.2532,-9.2532,-9.3032,-9.346,-9.346,-9.346,-9.346,-9.346,-9.3603,-9.371,-9.371,-9.371,-9.371,-9.371,-9.3567,-9.346,-9.346,-9.346,-9.346,-9.346,-9.2889,-9.2461,-9.2318,-9.0997,-8.9963,-8.932,-8.932,-8.932,-8.932,-8.8854,-8.8551,-8.8325,-8.7959,-8.7478,0.0,0.0,0.0,0.0,0.0,0.0,0.0,0.0,0.0,0.0,0.0,0.0,0.0,0.0,0.0,0.0,0.0,0.0,0.0,0.0,0.0,0.0,0.0,0.0,0.0,0.0,-8.51,-8.4738,-8.3942,-8.304,-8.2255,-8.1505,-8.072,-7.9935,-7.9899,-7.9899,-7.9899,-7.9899,-7.9899,-7.9899,-8.0292,-8.1077,-8.2183,-8.2183,-8.2647,-8.3397,-8.3789,-8.3753,-8.3361,-8.2933,-8.3004,-8.3397,-8.3361,-8.436,-8.5894,-8.6608,-8.7393,-8.8143,-8.8535,-8.8963,-8.932,-8.932,-8.932,-8.932,-8.932,-8.932,-8.932,-8.932,-8.932,-8.9392,-8.9784,-9.0212,-9.0676,-9.1426,-9.1604,-9.1711,-9.2104,-9.2817,-9.3353,-9.3353,-9.371,-9.3995,-9.3995,-9.3995,-9.3995,-9.3995,-9.3995,-9.3995,-9.3995,-9.3995,-9.3995,-9.3995,-9.3995,-9.3995,-9.3995,-9.3995,-9.3995,-9.3995,-9.3603,-9.3174,-9.2817,-9.2032,-9.1069,-8.9891,-8.9891,-8.9677,-8.932,-8.9023,-8.8766,-8.8506,-8.8234,-8.7761,0.0,0.0,0.0,0.0,0.0,0.0,0.0,0.0,0.0,0.0,0.0,0.0,0.0,0.0,0.0,0.0,0.0,0.0,0.0,0.0,0.0,0.0,0.0,0.0,0.0,0.0,-8.4828,-8.4685,-8.3768,-8.2861,-8.204,-8.1291,-8.0577,-7.9935,-7.9899,-7.9899,-7.9899,-7.9899,-7.9971,-8.0113,-8.1041,-8.2148,-8.3397,-8.3539,-8.3611,-8.3646,-8.4324,-8.4217,-8.3575,-8.3432,-8.3539,-8.386,-8.4396,-8.5252,-8.6358,-8.7607,-8.8178,-8.8392,-8.907,-8.932,-8.932,-8.932,-8.932,-8.9356,-8.9499,-8.9427,-8.9356,-8.9499,-8.9534,-8.9677,-9.0319,-9.0712,-9.1212,-9.2496,-9.2889,-9.2996,-9.2996,-9.3531,-9.3995,-9.3995,-9.3995,-9.3995,-9.3995,-9.3995,-9.3995,-9.3995,-9.3995,-9.3995,-9.3995,-9.3995,-9.3995,-9.3995,-9.3995,-9.3995,-9.3995,-9.3995,-9.3995,-9.3995,-9.3995,-9.3674,-9.3032,-9.2996,-9.2318,-9.0926,-9.0748,-9.0319,-8.9534,-8.9534,-8.9209,-8.8632,-8.8551,-8.804,0.0,0.0,0.0,0.0,0.0,0.0,0.0,0.0,0.0,0.0,0.0,0.0,0.0,0.0,0.0,0.0,0.0,0.0,0.0,0.0,0.0,0.0,0.0,0.0,0.0,0.0,-8.4613,-8.3896,-8.291,-8.204,-8.1291,-8.0506,-8.0006,-7.9899,-7.9899,-7.9899,-7.9899,-7.9899,-8.0256,-8.097,-8.2397,-8.3182,-8.3397,-8.411,-8.4431,-8.4467,-8.4574,-8.4538,-8.4396,-8.3682,-8.4217,-8.5431,-8.4824,-8.593,-8.7821,-8.8,-8.8535,-8.9178,-8.9285,-8.932,-8.932,-8.932,-8.932,-8.9427,-9.0141,-8.9856,-8.9463,-9.0141,-9.0355,-9.0355,-9.0462,-9.1497,-9.2532,-9.2746,-9.3317,-9.3817,-9.3817,-9.3888,-9.3995,-9.3995,-9.3995,-9.3995,-9.3995,-9.3995,-9.3995,-9.3995,-9.3995,-9.3995,-9.3995,-9.3995,-9.3995,-9.3995,-9.3995,-9.3995,-9.3995,-9.3995,-9.3995,-9.3995,-9.3995,-9.3924,-9.3817,-9.3817,-9.3388,-9.2496,-9.1818,-9.1105,-9.0355,-9.0355,-8.9919,-8.9154,-8.8721,-8.8189,0.0,0.0,0.0,0.0,0.0,0.0,0.0,0.0,0.0,0.0,0.0,0.0,0.0,0.0,0.0,0.0,0.0,0.0,0.0,0.0,0.0,0.0,0.0,0.0,0.0,0.0,0.0,-8.3947,-8.2489,-8.1434,-8.1113,-8.0328,-7.9899,-7.9899,-7.9899,-7.9899,-7.9899,-8.0363,-8.1184,-8.2397,-8.3075,-8.3646,-8.4075,-8.4431,-8.461,-8.461,-8.461,-8.461,-8.4574,-8.4217,-8.4753,-8.5823,-8.5859,-8.6787,-8.8143,-8.8607,-8.8999,-8.932,-8.932,-8.932,-8.9392,-8.9856,-8.9963,-9.0141,-9.089,-9.089,-9.0676,-9.1033,-9.114,-9.1212,-9.1675,-9.2282,-9.2889,-9.3353,-9.371,-9.3995,-9.3995,-9.3995,-9.3995,-9.3995,-9.3995,-9.3995,-9.3995,-9.3995,-9.3995,-9.3995,-9.3995,-9.3995,-9.3995,-9.3995,-9.3995,-9.3995,-9.3995,-9.3995,-9.3995,-9.3995,-9.3995,-9.3995,-9.3995,-9.3995,-9.3995,-9.3995,-9.3817,-9.346,-9.2675,-9.1675,-9.0498,-9.0498,-9.0105,-8.9277,-8.8766,-8.8234,0.0,0.0,0.0,0.0,0.0,0.0,0.0,0.0,0.0,0.0,0.0,0.0,0.0,0.0,0.0,0.0,0.0,0.0,0.0,0.0,0.0,0.0,0.0,0.0,0.0,0.0,0.0,0.0,-8.1991,-8.1006,-8.0827,-8.0221,-7.9899,-7.9899,-7.9899,-8.0006,-8.0221,-8.1184,-8.2255,-8.3397,-8.3611,-8.4003,-8.461,-8.461,-8.461,-8.461,-8.461,-8.461,-8.4646,-8.4824,-8.5359,-8.6144,-8.6929,-8.7714,-8.8464,-8.9106,-8.932,-8.932,-8.932,-8.9463,-8.9713,-9.0319,-9.0641,-9.0926,-9.1675,-9.1783,-9.164,-9.1854,-9.189,-9.2032,-9.2639,-9.2924,-9.3246,-9.3852,-9.3995,-9.3995,-9.3995,-9.3995,-9.3995,-9.3995,-9.3995,-9.3995,-9.3995,-9.3995,-9.3995,-9.3995,-9.3995,-9.3995,-9.3995,-9.3995,-9.3995,-9.3995,-9.3995,-9.3995,-9.3995,-9.3995,-9.3995,-9.3995,-9.3995,-9.3995,-9.3995,-9.3995,-9.3995,-9.3995,-9.3388,-9.2425,-9.1069,-9.089,-9.0267,-8.9351,-8.8658,-8.8051,0.0,0.0,0.0,0.0,0.0,0.0,0.0,0.0,0.0,0.0,0.0,0.0,0.0,0.0,0.0,0.0,0.0,0.0,0.0,0.0,0.0,0.0,0.0,0.0,0.0,0.0,0.0,0.0,-8.1347,-8.0756,-8.0006,-7.9935,-7.9899,-7.9899,-7.9899,-8.0292,-8.1041,-8.2504,-8.3325,-8.3397,-8.4182,-8.4574,-8.461,-8.461,-8.461,-8.461,-8.461,-8.461,-8.4681,-8.5431,-8.618,-8.6929,-8.7714,-8.8535,-8.9249,-8.9285,-8.932,-8.932,-8.932,-8.982,-9.0462,-9.0498,-9.0962,-9.1711,-9.2496,-9.2211,-9.1783,-9.2532,-9.2746,-9.2746,-9.2782,-9.3353,-9.3924,-9.3959,-9.3995,-9.3995,-9.3995,-9.3995,-9.3995,-9.3995,-9.3995,-9.3995,-9.3995,-9.3995,-9.3995,-9.3995,-9.3995,-9.3995,-9.3995,-9.3995,-9.3995,-9.3995,-9.3995,-9.3995,-9.3995,-9.3995,-9.3995,-9.3995,-9.3995,-9.3995,-9.3995,-9.3995,-9.3995,-9.3995,-9.3924,-9.3495,-9.2675,-9.1925,-9.0918,-8.9649,-8.8403,-8.7573,0.0,0.0,0.0,0.0,0.0,0.0,0.0,0.0,0.0,0.0,0.0,0.0,0.0,0.0,0.0,0.0,0.0,0.0,0.0,0.0,0.0,0.0,0.0,0.0,0.0,0.0,0.0,0.0,0.0,-8.0221,-7.9935,-7.9899,-7.9899,-7.9899,-8.0399,-8.1291,-8.254,-8.3111,-8.3646,-8.4182,-8.4467,-8.461,-8.461,-8.461,-8.461,-8.4646,-8.5145,-8.5359,-8.5395,-8.568,-8.6537,-8.7679,-8.7964,-8.8607,-8.932,-8.932,-8.932,-8.932,-8.932,-8.9856,-9.0569,-9.1069,-9.1747,-9.2532,-9.3317,-9.3353,-9.3174,-9.346,-9.3567,-9.3567,-9.3567,-9.3781,-9.3995,-9.3995,-9.4388,-9.4637,-9.4102,-9.3995,-9.3995,-9.3995,-9.3995,-9.3995,-9.3995,-9.3995,-9.3995,-9.3995,-9.3995,-9.3995,-9.3995,-9.3995,-9.3995,-9.3995,-9.3995,-9.3995,-9.3995,-9.3995,-9.3995,-9.3995,-9.3995,-9.3995,-9.3995,-9.3995,-9.3995,-9.3995,-9.3995,-9.3603,-9.2782,-9.2496,-9.1452,-8.9675,-8.8931,-8.8063,0.0,0.0,0.0,0.0,0.0,0.0,0.0,0.0,0.0,0.0,0.0,0.0,0.0,0.0,0.0,0.0,0.0,0.0,0.0,0.0,0.0,0.0,0.0,0.0,0.0,0.0,0.0,0.0,0.0,0.0,-7.9899,-7.9899,-8.0042,-8.0292,-8.1327,-8.2362,-8.3397,-8.3646,-8.4075,-8.461,-8.461,-8.461,-8.461,-8.461,-8.4753,-8.5038,-8.5573,-8.5787,-8.5823,-8.6358,-8.7179,-8.8107,-8.8392,-8.8821,-8.932,-8.932,-8.932,-8.9356,-8.9606,-9.0212,-9.0997,-9.1747,-9.2532,-9.3281,-9.3817,-9.3995,-9.3995,-9.3995,-9.3995,-9.3995,-9.3995,-9.4173,-9.4316,-9.4031,-9.4602,-9.4994,-9.4173,-9.4209,-9.4316,-9.4031,-9.3995,-9.3995,-9.3995,-9.3995,-9.3995,-9.3995,-9.3995,-9.3995,-9.3995,-9.3995,-9.3995,-9.3995,-9.3995,-9.3995,-9.3995,-9.3995,-9.3995,-9.3995,-9.3995,-9.3995,-9.3995,-9.3995,-9.3995,-9.3995,-9.3995,-9.371,-9.3174,-9.2789,-9.157,-8.9834,-8.9072,-8.8055,0.0,0.0,0.0,0.0,0.0,0.0,0.0,0.0,0.0,0.0,0.0,0.0,0.0,0.0,0.0,0.0,0.0,0.0,0.0,0.0,0.0,0.0,0.0,0.0,0.0,0.0,0.0,0.0,-8.013,-7.9899,-7.9899,-7.9935,-8.0328,-8.1148,-8.2611,-8.3397,-8.3432,-8.4217,-8.461,-8.461,-8.461,-8.461,-8.461,-8.4646,-8.5074,-8.5787,-8.5859,-8.5859,-8.5966,-8.7465,-8.8107,-8.8214,-8.8999,-8.932,-8.932,-8.932,-8.932,-8.9463,-9.0248,-9.0997,-9.1783,-9.2532,-9.3317,-9.3995,-9.3995,-9.3995,-9.3995,-9.3995,-9.3995,-9.3995,-9.3995,-9.4637,-9.503,-9.4209,-9.4637,-9.4994,-9.4173,-9.4637,-9.4959,-9.4138,-9.3995,-9.3995,-9.3995,-9.3995,-9.3995,-9.3995,-9.3995,-9.3995,-9.3995,-9.3995,-9.3995,-9.3995,-9.3995,-9.3995,-9.3995,-9.3995,-9.3995,-9.3995,-9.3995,-9.3995,-9.3995,-9.3995,-9.3995,-9.3995,-9.3995,-9.3995,-9.3995,-9.267,-9.1387,-9.0055,-8.8788,-8.7483,-8.9349,0.0,0.0,0.0,0.0,0.0,0.0,0.0,0.0,0.0,0.0,0.0,0.0,0.0,0.0,0.0,0.0,0.0,0.0,0.0,0.0,0.0,0.0,0.0,0.0,0.0,0.0,0.0,-8.0054,-7.9899,-7.9899,-8.047,-8.1362,-8.2718,-8.3182,-8.3682,-8.4253,-8.4503,-8.461,-8.461,-8.461,-8.461,-8.4646,-8.5216,-8.5573,-8.5859,-8.6965,-8.7465,-8.75,-8.7893,-8.8428,-8.8999,-8.9213,-8.932,-8.932,-8.932,-8.9677,-9.0212,-9.0427,-9.1354,-9.2496,-9.271,-9.3317,-9.3995,-9.3995,-9.3995,-9.3995,-9.3995,-9.3995,-9.4102,-9.4709,-9.5422,-9.5815,-9.5066,-9.5458,-9.5637,-9.4281,-9.4637,-9.4959,-9.4138,-9.3995,-9.3995,-9.3995,-9.3995,-9.3995,-9.3995,-9.3995,-9.3995,-9.3995,-9.3995,-9.3995,-9.3995,-9.3995,-9.3995,-9.3995,-9.3995,-9.3995,-9.3995,-9.3995,-9.3995,-9.3995,-9.3995,-9.3995,-9.3995,-9.3995,-9.3995,-9.3995,-9.3238,-9.1917,-9.0055,-8.784,-8.6651,0.0,0.0,0.0,0.0,0.0,0.0,-8.4354,-8.4421,-8.4175,0.0,0.0,0.0,0.0,0.0,0.0,0.0,0.0,0.0,0.0,0.0,0.0,0.0,0.0,0.0,0.0,-8.1914,-8.0861,-8.0243,-8.0015,-8.0042,-8.0399,-8.147,-8.2469,-8.3361,-8.3718,-8.4146,-8.461,-8.461,-8.461,-8.461,-8.461,-8.4788,-8.5145,-8.5573,-8.6144,-8.6822,-8.7714,-8.8285,-8.8607,-8.8607,-8.8892,-8.932,-8.932,-8.932,-8.9356,-8.9677,-9.0105,-9.0605,-9.1247,-9.2032,-9.2853,-9.3174,-9.3603,-9.3995,-9.3995,-9.3995,-9.3995,-9.3995,-9.4209,-9.4673,-9.5458,-9.6243,-9.66,-9.5851,-9.5993,-9.5958,-9.4744,-9.4602,-9.4566,-9.4066,-9.3995,-9.3995,-9.3995,-9.3995,-9.3995,-9.3995,-9.3995,-9.3995,-9.3995,-9.3995,-9.3995,-9.3995,-9.3995,-9.3995,-9.3995,-9.3995,-9.3995,-9.3995,-9.3995,-9.3995,-9.3995,-9.3995,-9.3995,-9.3995,-9.3995,-9.3776,-9.3357,-9.3024,-9.1683,-8.9458,-8.7631,-8.6605,0.0,0.0,0.0,0.0,0.0,0.0,-8.3815,-8.4195,-8.4296,-8.2938,0.0,0.0,0.0,0.0,0.0,0.0,0.0,0.0,0.0,0.0,0.0,0.0,0.0,0.0,-8.3185,-8.1439,-8.0312,-8.0312,-8.023,-8.0506,-8.1291,-8.2647,-8.3432,-8.3539,-8.4217,-8.461,-8.461,-8.461,-8.461,-8.461,-8.4717,-8.5109,-8.5823,-8.5966,-8.6787,-8.8107,-8.8178,-8.8642,-8.932,-8.932,-8.932,-8.932,-8.932,-8.9356,-8.9534,-9.0248,-9.0605,-9.0962,-9.2318,-9.2853,-9.3032,-9.3745,-9.3995,-9.3995,-9.3995,-9.4031,-9.4138,-9.4209,-9.4816,-9.5601,-9.6279,-9.7028,-9.7421,-9.6636,-9.6386,-9.61,-9.5351,-9.4566,-9.3995,-9.3995,-9.3995,-9.3995,-9.3995,-9.3995,-9.3995,-9.3995,-9.3995,-9.3995,-9.3995,-9.3995,-9.3995,-9.3995,-9.3995,-9.3995,-9.3995,-9.3995,-9.3995,-9.3995,-9.3995,-9.3995,-9.3995,-9.3995,-9.3995,-9.3995,-9.3914,-9.3404,-9.2407,-9.2337,-9.1022,-8.857,-8.7777,-8.7018,0.0,0.0,0.0,0.0,0.0,0.0,-8.6519,-8.6571,-8.6153,0.0,0.0,0.0,0.0,0.0,0.0,0.0,0.0,0.0,0.0,0.0,0.0,0.0,0.0,0.0,-8.3032,-8.1866,-8.1097,-8.0941,-8.1473,-8.2112,-8.2897,-8.3218,-8.3682,-8.436,-8.4538,-8.461,-8.461,-8.461,-8.461,-8.461,-8.5252,-8.5645,-8.5823,-8.7072,-8.7821,-8.8143,-8.8785,-8.9178,-8.932,-8.932,-8.932,-8.932,-8.932,-8.9713,-9.0284,-9.0462,-9.1283,-9.2389,-9.2675,-9.321,-9.3781,-9.3924,-9.3995,-9.3995,-9.3995,-9.4459,-9.5101,-9.5672,-9.6422,-9.7064,-9.7242,-9.7849,-9.8242,-9.7457,-9.6778,-9.61,-9.5351,-9.4566,-9.3995,-9.3995,-9.3995,-9.3995,-9.3995,-9.3995,-9.3995,-9.3995,-9.3995,-9.3995,-9.3995,-9.3995,-9.3995,-9.3995,-9.3995,-9.3995,-9.3995,-9.3995,-9.3995,-9.3995,-9.3995,-9.3995,-9.3995,-9.3995,-9.3995,-9.3995,-9.3591,-9.3072,-9.2407,-9.181,-9.0498,-8.857,-8.7777,-8.7018,0.0,0.0,0.0,-8.7267,0.0,0.0,0.0,-8.718,-8.7341,0.0,0.0,0.0,0.0,0.0,0.0,0.0,0.0,0.0,0.0,0.0,0.0,0.0,0.0,0.0,-8.3376,-8.2389,-8.1766,-8.1648,-8.2362,-8.2968,-8.3361,-8.3789,-8.4182,-8.461,-8.461,-8.461,-8.461,-8.461,-8.4824,-8.5216,-8.5609,-8.6216,-8.6965,-8.775,-8.8321,-8.8714,-8.9142,-8.932,-8.932,-8.932,-8.932,-8.932,-8.932,-8.9784,-9.0534,-9.0926,-9.1783,-9.2853,-9.3246,-9.3638,-9.3995,-9.3995,-9.3995,-9.4066,-9.4459,-9.5137,-9.5922,-9.6671,-9.7207,-9.7599,-9.7992,-9.8384,-9.8491,-9.7671,-9.6886,-9.61,-9.5351,-9.4566,-9.3995,-9.3995,-9.3995,-9.3995,-9.3995,-9.3995,-9.3995,-9.3995,-9.3995,-9.3995,-9.3995,-9.3995,-9.3995,-9.3995,-9.3995,-9.3995,-9.3995,-9.3995,-9.3995,-9.3995,-9.3995,-9.3995,-9.3995,-9.3995,-9.3995,-9.3995,-9.3451,-9.2928,-9.2407,-9.139,-9.011,-8.8605,-8.8191,-8.7398,0.0,0.0,0.0,0.0,0.0,-8.7778,0.0,0.0,0.0,0.0,0.0,0.0,0.0,0.0,0.0,0.0,0.0,0.0,0.0,0.0,0.0,0.0,0.0,0.0,-8.3832,-8.2986,-8.2433,-8.2433,-8.3182,-8.3611,-8.3611,-8.4253,-8.461,-8.461,-8.461,-8.461,-8.461,-8.4753,-8.5181,-8.5787,-8.6109,-8.6894,-8.8107,-8.825,-8.8678,-8.932,-8.932,-8.932,-8.932,-8.932,-8.9392,-8.9534,-8.9534,-9.0034,-9.0819,-9.1568,-9.2354,-9.3103,-9.3745,-9.3995,-9.3995,-9.3995,-9.4066,-9.4388,-9.5351,-9.6065,-9.6707,-9.7492,-9.7742,-9.7849,-9.8313,-9.8456,-9.8242,-9.7457,-9.6671,-9.5922,-9.5351,-9.4566,-9.3995,-9.3995,-9.3995,-9.3995,-9.3995,-9.3995,-9.3995,-9.3995,-9.3995,-9.3995,-9.3995,-9.3995,-9.3995,-9.3995,-9.3995,-9.3995,-9.3995,-9.3995,-9.3995,-9.3995,-9.3995,-9.3995,-9.3995,-9.3995,-9.3995,-9.3995,-9.3357,-9.2797,-9.2407,-9.1027,-8.9757,-8.8605,-8.8433,-8.7639,0.0,0.0,0.0,0.0,-8.8535,0.0,0.0,0.0,-8.8152,-8.808,0.0,0.0,0.0,0.0,0.0,0.0,0.0,0.0,0.0,0.0,0.0,0.0,0.0,0.0,0.0,-8.3566,-8.3254,-8.3254,-8.4003,-8.4467,-8.4467,-8.4574,-8.461,-8.461,-8.461,-8.461,-8.461,-8.5324,-8.5716,-8.5823,-8.7179,-8.7929,-8.8107,-8.8856,-8.9213,-8.932,-8.932,-8.932,-8.932,-8.932,-8.9749,-9.0355,-9.0355,-9.0819,-9.1568,-9.2354,-9.3174,-9.3852,-9.3959,-9.3995,-9.3995,-9.3995,-9.4459,-9.5351,-9.6814,-9.7278,-9.7528,-9.8313,-9.8527,-9.842,-9.7778,-9.7635,-9.7421,-9.6636,-9.5886,-9.5315,-9.5208,-9.4566,-9.3995,-9.3995,-9.3995,-9.3995,-9.3995,-9.3995,-9.3995,-9.3995,-9.3995,-9.3995,-9.3995,-9.3995,-9.3995,-9.3995,-9.3995,-9.3995,-9.3995,-9.3995,-9.3995,-9.3995,-9.3995,-9.3995,-9.3995,-9.3995,-9.3995,-9.3995,-9.2989,-9.2456,-9.2407,-9.0673,-8.9381,-8.857,-8.7881,-8.7087,0.0,0.0,0.0,0.0,0.0,0.0,-8.9964,0.0,-9.0111,0.0,0.0,0.0,0.0,0.0,0.0,0.0,0.0,0.0,0.0,0.0,0.0,0.0,0.0,0.0,0.0,0.0,0.0,0.0,-8.4431,-8.461,-8.461,-8.461,-8.461,-8.461,-8.461,-8.4824,-8.5288,-8.5645,-8.6251,-8.7143,-8.7786,-8.8321,-8.8821,-8.9178,-8.932,-8.932,-8.932,-8.932,-8.9356,-8.982,-9.0212,-9.0534,-9.0962,-9.1604,-9.2354,-9.2675,-9.3281,-9.3995,-9.3995,-9.3995,-9.4066,-9.453,-9.553,-9.6671,-9.7278,-9.7813,-9.8242,-9.8598,-9.8349,-9.792,-9.7599,-9.7135,-9.66,-9.5851,-9.5422,-9.5066,-9.4602,-9.4209,-9.3995,-9.3995,-9.3995,-9.3995,-9.3995,-9.3995,-9.3995,-9.3995,-9.3995,-9.3995,-9.3995,-9.3995,-9.3995,-9.3995,-9.3995,-9.3995,-9.3995,-9.3995,-9.3995,-9.3995,-9.3995,-9.3995,-9.3995,-9.3995,-9.3995,-9.3995,-9.3262,-9.27,-9.2407,-9.0473,-8.9188,-8.857,-8.7777,-8.7018,-9.0114,0.0,0.0,0.0,0.0,0.0,0.0,0.0,0.0,0.0,0.0,0.0,0.0,0.0,0.0,0.0,0.0,0.0,0.0,0.0,0.0,0.0,0.0,0.0,0.0,0.0,0.0,-8.4728,-8.4865,-8.4824,-8.461,-8.4824,-8.4824,-8.461,-8.4824,-8.5216,-8.5787,-8.6216,-8.7001,-8.8107,-8.8321,-8.8749,-8.932,-8.932,-8.932,-8.932,-8.932,-8.932,-8.9356,-8.9927,-9.0319,-9.0569,-9.1319,-9.2104,-9.2782,-9.2782,-9.3281,-9.4031,-9.4245,-9.4459,-9.4744,-9.5565,-9.66,-9.7528,-9.7742,-9.8063,-9.842,-9.8634,-9.7956,-9.7171,-9.7171,-9.66,-9.5815,-9.5066,-9.4887,-9.4709,-9.4102,-9.3995,-9.3995,-9.3995,-9.3995,-9.3995,-9.3995,-9.3995,-9.3995,-9.3995,-9.3995,-9.3995,-9.3995,-9.3995,-9.3995,-9.3995,-9.3995,-9.3995,-9.3995,-9.3995,-9.3995,-9.3995,-9.3995,-9.3995,-9.3995,-9.3995,-9.3995,-9.3995,-9.3357,-9.2726,-9.2091,-9.0155,-8.8874,-8.826,-8.7467,-8.6811,0.0,0.0,0.0,-9.1439,0.0,0.0,0.0,0.0,-9.0621,0.0,0.0,0.0,0.0,0.0,0.0,0.0,0.0,0.0,0.0,0.0,0.0,0.0,0.0,0.0,0.0,0.0,-8.5759,-8.4971,-8.5447,-8.5431,-8.4646,-8.5359,-8.5395,-8.4646,-8.5359,-8.5787,-8.5787,-8.7286,-8.8036,-8.8107,-8.8892,-8.9285,-8.932,-8.932,-8.932,-8.932,-8.932,-8.932,-8.932,-8.9356,-8.982,-9.0569,-9.1319,-9.2104,-9.2782,-9.2782,-9.3281,-9.4102,-9.4887,-9.5637,-9.635,-9.7171,-9.7457,-9.7635,-9.842,-9.8135,-9.7706,-9.8456,-9.7564,-9.635,-9.635,-9.5815,-9.503,-9.4209,-9.4031,-9.4031,-9.3995,-9.3995,-9.3995,-9.3995,-9.3995,-9.3995,-9.3995,-9.3995,-9.3995,-9.3995,-9.3995,-9.3995,-9.3995,-9.3995,-9.3995,-9.3995,-9.3995,-9.3995,-9.3995,-9.3995,-9.3995,-9.3995,-9.3995,-9.3995,-9.3995,-9.3995,-9.3995,-9.3995,-9.2941,-9.2056,-9.1319,-8.9511,-8.8191,-8.7432,-8.6674,-8.6329,0.0,0.0,-9.214,-9.2833,0.0,0.0,0.0,0.0,0.0,0.0,0.0,0.0,0.0,0.0,0.0,0.0,0.0,0.0,0.0,0.0,0.0,0.0,0.0,0.0,0.0,0.0,0.0,-8.5626,-8.5686,-8.568,-8.5431,-8.5145,-8.5145,-8.5395,-8.5645,-8.6287,-8.7322,-8.7821,-8.8357,-8.8892,-8.9178,-8.932,-8.932,-8.932,-8.932,-8.932,-8.932,-8.932,-8.9356,-8.9891,-9.0534,-9.1247,-9.1497,-9.2425,-9.3567,-9.3567,-9.4102,-9.4887,-9.5672,-9.61,-9.6457,-9.7242,-9.7492,-9.7528,-9.7813,-9.7706,-9.7457,-9.7171,-9.6386,-9.5565,-9.5565,-9.4994,-9.4316,-9.4031,-9.3995,-9.3995,-9.3995,-9.3995,-9.3995,-9.3995,-9.3995,-9.3995,-9.3995,-9.3995,-9.3995,-9.3995,-9.3995,-9.3995,-9.3995,-9.3995,-9.3995,-9.3995,-9.3995,-9.3995,-9.3995,-9.3995,-9.3995,-9.3995,-9.3995,-9.3995,-9.3995,-9.3995,-9.3995,-9.3995,-9.331,-9.2396,-9.1284,-8.9861,-8.8512,-8.7398,-8.6639,-8.6294,-9.1924,-9.2424,0.0,-9.3605,-9.3747,0.0,-9.255,0.0,0.0,0.0,0.0,0.0,0.0,0.0,0.0,0.0,0.0,0.0,0.0,0.0,0.0,0.0,0.0,0.0,0.0,0.0,-8.7903,-8.6448,-8.6257,-8.618,0.0,-8.5716,-8.568,-8.618,-8.6465,-8.7108,-8.8071,-8.8392,-8.8785,-8.932,-8.932,-8.932,-8.932,-8.932,-8.932,-8.932,-8.932,-8.932,-8.9392,-9.0177,-9.0783,-9.1283,-9.1818,-9.2817,-9.3995,-9.3995,-9.4851,-9.61,-9.6564,-9.6921,-9.7207,-9.7421,-9.7492,-9.7457,-9.7171,-9.6886,-9.6636,-9.6386,-9.5565,-9.4851,-9.5137,-9.4602,-9.3995,-9.3995,-9.3995,-9.3995,-9.3995,-9.3995,-9.3995,-9.3995,-9.3995,-9.3995,-9.3995,-9.3995,-9.3995,-9.3995,-9.3995,-9.3995,-9.3995,-9.3995,-9.3995,-9.3995,-9.3995,-9.3995,-9.3995,-9.3995,-9.3995,-9.3995,-9.3995,-9.3995,-9.3995,-9.3995,-9.371,-9.3139,-9.2743,-9.1727,-9.0055,-8.9164,-8.8131,-8.7018,-8.6536,-8.6294]},{"header":{"parameterUnit":"m.s-1","parameterCategory":1,"la1":30.6,"la2":29.2853,"lo1":-89.7004,"lo2":-87.6739,"dx":0.0162,"dy":0.0183,"nx":112,"ny":82,"refTime":"2023-01-24T06:00:00:Z","depth":0,"parameterNumber":3,"parameterNumberName":"V-component_of_WINDS"},"data":[0.0,0.0,0.0,0.0,0.0,0.0,0.0,0.0,0.0,0.0,0.0,0.0,0.0,0.0,0.0,0.0,0.0,0.0,0.0,0.0,0.0,0.0,0.0,0.0,0.0,0.0,0.0,0.0,0.0,0.0,0.0,0.0,0.0,0.0,0.0,0.0,0.0,0.0,0.0,0.0,0.0,0.0,0.0,0.0,0.0,0.0,0.0,0.0,0.0,0.0,0.0,0.0,0.0,0.0,0.0,0.0,0.0,0.0,0.0,0.0,0.0,0.0,0.0,0.0,0.0,0.0,0.0,0.0,0.0,0.0,0.0,0.0,0.0,0.0,0.0,0.0,0.0,0.0,0.0,0.0,0.0,0.0,0.0,0.0,0.0,0.0,0.0,0.0,0.0,0.0,5.036,5.1895,5.2995,5.3592,5.3592,5.3592,5.2859,5.115,0.0,0.0,0.0,0.0,0.0,0.0,0.0,0.0,0.0,0.0,0.0,0.0,0.0,0.0,0.0,0.0,0.0,0.0,0.0,0.0,0.0,0.0,0.0,0.0,0.0,0.0,0.0,0.0,0.0,0.0,0.0,0.0,0.0,0.0,0.0,0.0,0.0,0.0,0.0,0.0,0.0,0.0,0.0,0.0,0.0,0.0,0.0,0.0,0.0,0.0,0.0,0.0,0.0,0.0,0.0,0.0,0.0,0.0,0.0,0.0,0.0,0.0,0.0,0.0,0.0,0.0,0.0,0.0,0.0,0.0,0.0,0.0,0.0,0.0,0.0,0.0,0.0,0.0,0.0,0.0,0.0,0.0,0.0,0.0,0.0,0.0,0.0,0.0,0.0,0.0,0.0,0.0,0.0,0.0,0.0,0.0,0.0,0.0,0.0,0.0,0.0,0.0,0.0,0.0,5.1111,5.3097,5.3483,5.3592,5.3592,5.3592,5.3049,5.1774,0.0,0.0,0.0,0.0,0.0,0.0,0.0,0.0,0.0,0.0,0.0,0.0,0.0,0.0,0.0,0.0,0.0,0.0,0.0,0.0,0.0,0.0,0.0,0.0,0.0,0.0,0.0,0.0,0.0,0.0,0.0,0.0,0.0,0.0,0.0,0.0,0.0,0.0,0.0,0.0,0.0,0.0,0.0,0.0,0.0,0.0,0.0,0.0,0.0,0.0,0.0,0.0,0.0,0.0,0.0,0.0,0.0,0.0,0.0,0.0,0.0,0.0,0.0,0.0,0.0,0.0,0.0,0.0,0.0,0.0,0.0,0.0,0.0,0.0,0.0,0.0,0.0,0.0,0.0,0.0,0.0,0.0,0.0,0.0,0.0,0.0,0.0,0.0,0.0,0.0,0.0,0.0,0.0,0.0,0.0,0.0,0.0,0.0,0.0,0.0,0.0,0.0,0.0,4.9196,5.1081,5.3551,5.3355,5.3105,5.3288,5.3349,5.2923,5.1851,5.1557,0.0,0.0,0.0,0.0,0.0,0.0,0.0,0.0,0.0,0.0,0.0,0.0,0.0,0.0,0.0,0.0,0.0,0.0,0.0,0.0,0.0,0.0,0.0,0.0,0.0,0.0,0.0,0.0,0.0,0.0,0.0,0.0,0.0,0.0,0.0,0.0,0.0,0.0,0.0,0.0,0.0,0.0,0.0,0.0,0.0,0.0,0.0,0.0,0.0,0.0,0.0,0.0,0.0,0.0,0.0,0.0,0.0,0.0,0.0,0.0,0.0,0.0,0.0,0.0,0.0,0.0,0.0,0.0,0.0,0.0,0.0,0.0,0.0,0.0,0.0,0.0,0.0,0.0,0.0,0.0,0.0,0.0,0.0,0.0,0.0,0.0,0.0,0.0,0.0,0.0,0.0,0.0,0.0,0.0,0.0,0.0,0.0,0.0,0.0,0.0,0.0,0.0,4.9812,5.0383,5.2618,5.2411,5.2253,5.2588,5.2922,5.2742,5.1851,5.1769,0.0,0.0,0.0,0.0,0.0,0.0,0.0,0.0,0.0,0.0,0.0,0.0,0.0,0.0,0.0,0.0,0.0,0.0,0.0,0.0,0.0,0.0,0.0,0.0,0.0,0.0,0.0,0.0,0.0,0.0,0.0,0.0,0.0,0.0,0.0,0.0,0.0,0.0,0.0,0.0,0.0,0.0,0.0,0.0,0.0,0.0,0.0,0.0,0.0,0.0,0.0,0.0,0.0,0.0,0.0,0.0,0.0,0.0,0.0,0.0,0.0,0.0,0.0,0.0,0.0,0.0,0.0,0.0,0.0,0.0,0.0,0.0,0.0,0.0,0.0,0.0,0.0,0.0,0.0,0.0,0.0,0.0,0.0,0.0,0.0,0.0,0.0,0.0,0.0,0.0,0.0,0.0,0.0,0.0,0.0,0.0,0.0,0.0,0.0,0.0,0.0,0.0,4.8109,4.8876,4.9389,5.0178,5.0764,5.1116,5.2315,5.2742,5.1851,5.1769,0.0,0.0,0.0,0.0,0.0,0.0,0.0,0.0,0.0,0.0,0.0,0.0,0.0,0.0,0.0,0.0,0.0,0.0,0.0,0.0,0.0,0.0,0.0,0.0,0.0,0.0,0.0,0.0,0.0,0.0,0.0,0.0,0.0,0.0,0.0,0.0,0.0,0.0,0.0,0.0,0.0,0.0,0.0,0.0,0.0,0.0,0.0,0.0,0.0,0.0,0.0,0.0,0.0,0.0,0.0,0.0,0.0,0.0,0.0,0.0,0.0,0.0,0.0,0.0,0.0,0.0,0.0,0.0,0.0,0.0,0.0,0.0,0.0,0.0,0.0,0.0,0.0,0.0,0.0,0.0,0.0,0.0,0.0,0.0,0.0,0.0,0.0,0.0,0.0,0.0,0.0,0.0,0.0,0.0,0.0,0.0,0.0,0.0,0.0,0.0,0.0,0.0,4.6637,4.7258,0.0,4.8878,4.9078,5.0295,5.1016,5.1505,5.147,0.0,0.0,0.0,0.0,0.0,0.0,0.0,0.0,0.0,0.0,0.0,0.0,0.0,0.0,0.0,0.0,0.0,0.0,0.0,0.0,0.0,0.0,0.0,0.0,0.0,0.0,0.0,0.0,0.0,0.0,0.0,0.0,0.0,0.0,0.0,0.0,0.0,0.0,0.0,0.0,0.0,0.0,0.0,0.0,0.0,0.0,0.0,0.0,0.0,0.0,0.0,0.0,0.0,0.0,0.0,0.0,0.0,0.0,0.0,0.0,0.0,0.0,0.0,0.0,0.0,0.0,0.0,0.0,0.0,0.0,0.0,0.0,0.0,0.0,0.0,0.0,0.0,0.0,0.0,0.0,0.0,0.0,0.0,0.0,0.0,0.0,0.0,0.0,0.0,0.0,0.0,0.0,0.0,0.0,0.0,0.0,0.0,0.0,0.0,0.0,0.0,0.0,4.5598,4.5528,4.6056,0.0,4.7551,4.7743,4.9156,4.987,5.0229,5.0225,0.0,0.0,0.0,0.0,0.0,0.0,0.0,0.0,0.0,0.0,0.0,0.0,0.0,0.0,0.0,0.0,0.0,0.0,0.0,0.0,0.0,0.0,0.0,0.0,0.0,0.0,0.0,0.0,0.0,0.0,0.0,0.0,0.0,0.0,0.0,0.0,0.0,0.0,0.0,0.0,0.0,0.0,0.0,0.0,0.0,0.0,0.0,0.0,0.0,0.0,0.0,0.0,0.0,0.0,0.0,0.0,0.0,0.0,0.0,0.0,0.0,0.0,0.0,0.0,0.0,0.0,0.0,0.0,0.0,0.0,0.0,0.0,0.0,0.0,0.0,0.0,0.0,0.0,0.0,0.0,0.0,0.0,0.0,0.0,0.0,0.0,0.0,0.0,0.0,0.0,0.0,0.0,0.0,0.0,0.0,0.0,0.0,0.0,0.0,0.0,0.0,0.0,4.3933,4.4713,4.5325,4.5325,4.6119,4.6889,4.7543,4.8865,4.9162,0.0,0.0,0.0,0.0,0.0,0.0,0.0,0.0,0.0,0.0,0.0,0.0,0.0,0.0,0.0,0.0,0.0,0.0,0.0,0.0,0.0,0.0,0.0,0.0,0.0,0.0,0.0,0.0,0.0,0.0,0.0,0.0,0.0,0.0,0.0,0.0,0.0,0.0,0.0,0.0,0.0,0.0,0.0,0.0,0.0,0.0,0.0,0.0,0.0,0.0,0.0,0.0,0.0,0.0,0.0,0.0,0.0,0.0,0.0,0.0,0.0,0.0,0.0,0.0,0.0,0.0,0.0,0.0,0.0,0.0,0.0,0.0,0.0,0.0,0.0,0.0,0.0,0.0,0.0,0.0,0.0,0.0,0.0,0.0,0.0,0.0,0.0,0.0,0.0,0.0,0.0,0.0,0.0,0.0,0.0,0.0,0.0,0.0,0.0,0.0,0.0,0.0,0.0,4.4386,4.4932,4.5325,4.5325,4.5229,4.5688,4.6866,4.723,4.7743,4.8461,0.0,0.0,0.0,0.0,0.0,0.0,0.0,0.0,0.0,0.0,0.0,0.0,0.0,0.0,0.0,0.0,0.0,0.0,0.0,0.0,0.0,0.0,0.0,0.0,0.0,0.0,0.0,0.0,0.0,0.0,0.0,0.0,0.0,0.0,0.0,0.0,0.0,0.0,0.0,0.0,0.0,0.0,0.0,0.0,0.0,0.0,0.0,0.0,0.0,0.0,0.0,0.0,0.0,0.0,0.0,0.0,0.0,0.0,0.0,0.0,0.0,0.0,0.0,0.0,0.0,0.0,0.0,0.0,0.0,0.0,0.0,0.0,0.0,0.0,0.0,0.0,0.0,0.0,0.0,0.0,0.0,0.0,0.0,0.0,0.0,0.0,0.0,0.0,0.0,0.0,0.0,0.0,0.0,0.0,0.0,0.0,0.0,0.0,0.0,0.0,0.0,0.0,4.4582,4.5019,4.5325,4.5325,4.4888,4.4997,4.5909,4.6219,4.6627,4.7425,0.0,0.0,0.0,0.0,0.0,0.0,0.0,0.0,0.0,0.0,0.0,0.0,0.0,0.0,0.0,0.0,0.0,0.0,0.0,0.0,0.0,0.0,0.0,0.0,0.0,0.0,0.0,0.0,0.0,0.0,0.0,0.0,0.0,0.0,0.0,0.0,0.0,0.0,0.0,0.0,0.0,0.0,0.0,0.0,0.0,0.0,0.0,0.0,0.0,0.0,0.0,0.0,0.0,0.0,0.0,0.0,0.0,0.0,0.0,0.0,0.0,0.0,0.0,0.0,0.0,0.0,0.0,0.0,0.0,0.0,0.0,0.0,0.0,0.0,0.0,0.0,0.0,0.0,0.0,0.0,0.0,0.0,0.0,0.0,0.0,0.0,0.0,0.0,0.0,0.0,0.0,0.0,0.0,0.0,0.0,0.0,0.0,0.0,0.0,0.0,0.0,0.0,4.4517,4.4954,4.526,4.526,4.4845,4.4695,4.4939,4.5549,4.5737,4.5415,0.0,0.0,0.0,0.0,0.0,0.0,0.0,0.0,0.0,0.0,0.0,0.0,0.0,0.0,0.0,0.0,0.0,0.0,0.0,0.0,0.0,0.0,0.0,0.0,0.0,0.0,0.0,0.0,0.0,0.0,0.0,0.0,0.0,0.0,0.0,0.0,0.0,0.0,0.0,0.0,0.0,0.0,0.0,0.0,0.0,0.0,0.0,0.0,0.0,0.0,0.0,0.0,0.0,0.0,0.0,0.0,0.0,0.0,0.0,0.0,3.6934,0.0,0.0,0.0,0.0,0.0,0.0,0.0,0.0,0.0,0.0,0.0,0.0,0.0,0.0,0.0,0.0,0.0,0.0,0.0,0.0,0.0,0.0,0.0,0.0,0.0,0.0,0.0,0.0,0.0,0.0,0.0,0.0,0.0,0.0,0.0,0.0,0.0,0.0,0.0,0.0,0.0,4.4086,4.4451,4.4735,4.4735,4.4648,4.4611,4.4645,4.498,4.5202,4.5089,4.5643,0.0,0.0,0.0,0.0,0.0,0.0,0.0,0.0,0.0,0.0,0.0,0.0,0.0,0.0,0.0,0.0,0.0,0.0,0.0,0.0,0.0,0.0,0.0,0.0,0.0,0.0,0.0,0.0,0.0,0.0,0.0,0.0,0.0,0.0,0.0,0.0,0.0,0.0,0.0,0.0,0.0,0.0,0.0,0.0,0.0,0.0,0.0,0.0,0.0,0.0,0.0,0.0,0.0,0.0,0.0,0.0,0.0,0.0,0.0,0.0,3.7228,0.0,0.0,0.0,0.0,0.0,0.0,0.0,0.0,0.0,0.0,0.0,0.0,0.0,0.0,0.0,0.0,0.0,0.0,0.0,0.0,0.0,0.0,0.0,0.0,0.0,0.0,0.0,0.0,0.0,0.0,0.0,0.0,0.0,0.0,0.0,0.0,0.0,0.0,0.0,0.0,4.3954,4.4277,4.4495,4.4255,4.4036,4.3905,4.3905,4.4369,4.486,4.5503,4.5736,0.0,0.0,0.0,0.0,0.0,0.0,0.0,0.0,0.0,0.0,0.0,0.0,0.0,0.0,0.0,0.0,0.0,0.0,0.0,0.0,0.0,0.0,0.0,0.0,0.0,0.0,0.0,0.0,0.0,0.0,0.0,0.0,0.0,0.0,0.0,0.0,0.0,0.0,0.0,0.0,0.0,0.0,0.0,0.0,0.0,0.0,0.0,0.0,0.0,0.0,0.0,0.0,0.0,3.7338,3.7521,3.7539,3.7613,3.7814,3.8108,3.7778,3.7778,3.7961,3.7319,0.0,0.0,0.0,0.0,0.0,0.0,0.0,0.0,0.0,0.0,0.0,0.0,0.0,0.0,0.0,0.0,0.0,0.0,0.0,0.0,0.0,0.0,0.0,0.0,4.9734,4.9133,4.8108,0.0,0.0,0.0,0.0,0.0,0.0,0.0,0.0,0.0,0.0,0.0,4.3867,4.4102,4.4189,4.3774,4.3403,4.3184,4.3184,4.3836,4.4684,4.5714,4.5714,4.6309,0.0,0.0,0.0,0.0,0.0,0.0,0.0,0.0,0.0,0.0,0.0,0.0,0.0,0.0,0.0,0.0,0.0,0.0,0.0,0.0,0.0,0.0,0.0,0.0,0.0,0.0,0.0,0.0,0.0,0.0,0.0,0.0,3.4954,3.4954,0.0,0.0,0.0,0.0,0.0,0.0,0.0,0.0,0.0,0.0,0.0,0.0,0.0,3.6584,3.6751,3.7099,3.7301,3.7356,3.7741,3.7924,3.7943,3.831,3.8432,3.8566,3.8432,0.0,3.7998,3.7906,0.0,0.0,0.0,0.0,0.0,0.0,0.0,0.0,0.0,0.0,0.0,0.0,0.0,0.0,0.0,0.0,0.0,0.0,0.0,0.0,0.0,0.0,5.1273,5.1273,5.0864,5.022,0.0,4.7913,4.6389,4.5411,4.5163,0.0,0.0,0.0,0.0,0.0,0.0,0.0,4.3272,4.3337,4.3337,4.3272,4.3206,4.3184,4.3184,4.3836,4.4273,4.4456,4.6057,4.7066,4.7275,4.8547,0.0,0.0,0.0,0.0,0.0,0.0,0.0,0.0,0.0,0.0,0.0,0.0,0.0,0.0,0.0,0.0,0.0,0.0,0.0,0.0,0.0,0.0,0.0,0.0,0.0,0.0,0.0,0.0,0.0,3.5944,3.5779,3.5943,3.6201,3.6237,0.0,0.0,0.0,0.0,0.0,0.0,0.0,0.0,0.0,3.6567,3.6952,3.7173,3.7173,3.7558,3.7759,3.7759,3.8163,3.8365,3.8383,3.8566,3.856,3.856,3.856,3.853,3.8346,3.8108,3.7814,3.7484,0.0,0.0,0.0,0.0,3.7173,3.7228,3.7613,3.8062,3.8535,3.8993,0.0,0.0,0.0,0.0,0.0,0.0,0.0,0.0,0.0,0.0,4.8992,4.9896,4.974,4.9365,4.9509,4.859,4.744,0.0,4.5751,4.5107,4.3811,0.0,0.0,0.0,0.0,4.4277,4.4014,4.4211,4.4277,4.3993,4.3971,4.3971,4.3971,4.4679,4.529,4.5617,4.7214,4.8401,4.9127,4.9427,4.9565,0.0,0.0,0.0,0.0,0.0,0.0,0.0,0.0,0.0,0.0,0.0,0.0,0.0,0.0,0.0,0.0,0.0,0.0,0.0,0.0,0.0,0.0,0.0,0.0,0.0,0.0,0.0,0.0,3.6787,3.6641,3.6952,3.7081,3.7099,0.0,0.0,0.0,0.0,0.0,0.0,3.7224,3.7484,3.7448,3.7154,3.7429,3.7576,3.7576,3.7979,3.8126,3.8016,3.8438,3.8585,3.8493,3.8524,3.856,3.856,3.856,3.856,3.8621,3.831,3.8108,3.7979,3.7686,3.7521,3.7429,3.7539,3.7576,3.7649,3.8144,3.8767,3.9337,3.9887,4.0801,4.1809,4.189,0.0,0.0,0.0,0.0,4.5242,4.6287,4.6963,4.7812,4.9494,4.9375,4.8982,4.915,4.8918,4.8233,0.0,4.6244,4.5511,4.4442,0.0,0.0,0.0,0.0,4.4997,4.4626,4.491,4.4997,4.4626,4.4582,4.4582,4.4582,4.5158,4.58,4.6487,4.7605,4.8826,5.0317,5.0149,5.0268,5.0888,0.0,0.0,0.0,0.0,0.0,0.0,0.0,0.0,0.0,0.0,0.0,0.0,0.0,0.0,0.0,0.0,0.0,0.0,0.0,0.0,0.0,0.0,0.0,0.0,0.0,0.0,0.0,0.0,0.0,3.7393,3.7723,0.0,0.0,0.0,0.0,3.8016,3.8346,3.8469,3.8469,3.8199,3.7979,3.7961,3.7979,3.7979,3.7979,3.8401,3.842,3.8016,3.8438,3.8438,3.8053,3.8456,3.856,3.856,3.856,3.856,3.856,3.8542,3.8383,3.8016,3.7998,3.7759,3.7466,3.7851,3.7979,3.8089,3.8896,3.919,3.9344,4.0173,4.099,4.1821,4.2231,4.2394,0.0,0.0,4.554,4.6416,5.0084,5.0262,4.9979,5.1699,5.1369,5.0199,4.874,4.845,4.8209,0.0,4.676,4.6134,4.5384,0.0,4.5107,4.4626,4.4604,4.4626,4.4582,4.4604,4.4626,4.4582,4.4582,4.4582,4.4582,4.4655,4.4942,4.5707,4.6249,4.7467,4.9485,4.9955,5.06,5.1441,5.0912,0.0,0.0,0.0,0.0,0.0,0.0,0.0,0.0,0.0,0.0,0.0,0.0,0.0,0.0,0.0,0.0,0.0,0.0,0.0,0.0,0.0,0.0,0.0,0.0,0.0,0.0,0.0,0.0,3.8158,3.8328,0.0,3.8585,3.8542,3.8786,3.9171,3.908,3.9025,3.9025,3.9135,3.9061,3.8805,3.8805,3.8805,3.8805,3.8695,3.8487,3.842,3.8487,3.8487,3.842,3.8487,3.856,3.856,3.856,3.856,3.856,3.856,3.8548,3.842,3.842,3.8328,3.8218,3.8365,3.842,3.8493,3.9043,3.941,3.9803,4.0897,4.1628,4.2175,4.234,4.2423,4.2589,4.3293,4.3785,4.4236,4.5289,4.5322,4.5308,4.673,4.6377,4.5901,4.662,4.6624,4.6404,4.6448,4.6506,4.6321,4.5412,4.5828,4.5959,4.5172,4.5303,4.55,4.55,4.55,4.55,4.55,4.55,4.55,4.55,4.594,4.6379,4.667,4.7558,4.8433,4.9202,4.9388,4.9847,5.072,5.0222,4.9746,0.0,0.0,0.0,0.0,0.0,0.0,0.0,0.0,0.0,0.0,0.0,0.0,0.0,0.0,0.0,0.0,0.0,0.0,0.0,0.0,0.0,0.0,0.0,0.0,0.0,0.0,3.8933,3.8597,3.856,3.867,3.9006,3.9043,3.9263,3.9877,3.985,3.985,3.985,3.9978,3.9923,3.9667,3.952,3.9447,3.9447,3.9171,3.8988,3.8762,3.8762,3.8688,3.856,3.856,3.856,3.856,3.856,3.856,3.856,3.856,3.856,3.856,3.856,3.856,3.856,3.856,3.8731,3.8835,3.9465,3.9923,4.0428,4.1194,4.1714,4.1984,4.2151,4.2132,4.2235,4.2318,4.2652,4.2908,4.3176,4.3144,4.3293,4.4714,4.442,4.4184,4.5116,4.5394,4.546,4.5405,4.5943,4.6286,4.5653,4.6068,4.6264,4.5653,4.5806,4.6002,4.6002,4.6002,4.6002,4.6002,4.6002,4.6002,4.6002,4.6522,4.6817,4.6817,4.773,4.8446,4.8743,4.9125,4.9642,5.0284,4.9767,4.9227,4.8564,0.0,0.0,0.0,0.0,0.0,0.0,0.0,0.0,0.0,0.0,0.0,0.0,0.0,0.0,0.0,0.0,0.0,0.0,0.0,0.0,0.0,0.0,0.0,3.93,3.8896,3.8579,3.856,3.856,3.8579,3.8676,3.9392,3.9932,3.9968,4.0704,4.106,4.106,4.0694,4.0492,4.0492,4.0171,3.995,3.995,3.9932,3.9648,3.9245,3.9245,3.9043,3.8597,3.8658,3.8579,3.8579,3.8658,3.856,3.856,3.856,3.856,3.856,3.856,3.856,3.856,3.856,3.8896,3.9373,4.018,4.073,4.106,4.106,4.106,4.1145,4.1546,4.1695,4.1798,4.2235,4.2402,4.2716,4.4373,4.438,4.4442,4.6153,4.6088,4.5391,4.4256,4.4921,4.5425,4.4319,4.5084,4.5928,4.6002,4.6002,4.6002,4.6002,4.6002,0.0,4.6002,4.6002,4.6002,4.6002,4.6002,4.6002,4.6002,4.6002,4.6002,4.6002,4.6439,4.7078,4.7902,4.9101,4.9869,5.0188,4.9672,4.8798,4.7597,0.0,0.0,0.0,0.0,0.0,0.0,0.0,0.0,0.0,0.0,0.0,0.0,0.0,0.0,0.0,0.0,0.0,0.0,0.0,0.0,0.0,0.0,4.0052,3.9336,3.9135,3.897,3.8597,3.856,3.8878,3.9447,3.9703,4.007,4.0759,4.0932,4.106,4.106,4.095,4.0895,4.0895,4.051,4.029,4.029,4.0079,3.9877,3.9667,3.9667,3.9612,3.9502,3.9208,3.908,3.9061,3.8768,3.856,3.856,3.856,3.856,3.856,3.856,3.856,3.856,3.856,3.908,3.974,4.029,4.073,4.106,4.106,4.106,4.1145,4.121,4.1294,4.1313,4.1397,4.163,4.2049,4.2428,4.25,4.243,4.2596,4.211,4.1606,4.1895,4.1954,4.2162,4.2734,4.3856,4.5009,4.5853,4.6002,4.6002,4.6002,4.6002,0.0,4.6002,4.6002,4.6002,4.6002,4.6002,4.6002,4.6002,4.6002,4.6002,4.6002,4.6133,4.6274,4.6572,4.6928,4.7373,4.8049,4.8128,4.7949,0.0,0.0,0.0,0.0,0.0,0.0,0.0,0.0,0.0,0.0,0.0,0.0,0.0,0.0,0.0,0.0,0.0,0.0,0.0,0.0,0.0,0.0,4.073,4.0308,3.9813,3.9447,3.908,3.8615,3.856,3.8823,3.93,3.963,4.0033,4.0593,4.0942,4.106,4.106,4.106,4.106,4.106,4.084,4.0712,4.0712,4.0556,4.0354,4.0189,4.0189,4.0097,3.9913,3.941,3.9226,3.9208,3.8725,3.856,3.856,3.856,3.856,0.0,0.0,0.0,0.0,0.0,3.9557,4.0244,4.0565,4.0859,4.106,4.106,4.106,4.106,4.106,4.106,4.106,4.106,4.1184,4.1259,4.1425,4.1203,4.0925,4.087,4.039,3.9966,4.0264,4.0537,4.1015,4.2082,4.3324,0.0,4.5779,4.6002,4.6002,4.6002,4.6002,4.6002,4.6002,4.6002,4.6002,4.6002,4.6002,4.6002,4.6002,4.6002,0.0,0.0,0.0,4.6151,4.6522,4.6249,0.0,0.0,0.0,4.7065,4.6956,0.0,0.0,0.0,4.6373,4.6562,0.0,0.0,0.0,0.0,0.0,0.0,0.0,0.0,0.0,0.0,0.0,0.0,0.0,0.0,0.0,0.0,4.0767,4.0529,4.0473,3.9832,3.9208,3.8688,3.867,3.8786,3.8786,3.9465,4.0005,4.006,4.074,4.106,4.106,0.0,0.0,0.0,0.0,4.106,4.106,4.106,4.0877,4.0529,4.0529,4.0345,4.0042,3.9502,3.93,3.9281,3.8841,3.856,3.856,3.856,3.856,3.856,3.856,3.8597,3.8805,3.9557,4.0189,4.0529,4.0914,0.0,0.0,4.106,4.106,4.106,4.106,4.106,4.106,4.106,4.0804,4.0602,4.0914,4.0538,4.006,4.0272,4.0052,3.9667,3.9263,4.0034,4.1012,4.1715,4.2943,4.4084,4.5159,4.5704,4.6002,4.6002,4.6002,4.6002,4.6002,4.5853,4.5779,4.5779,0.0,0.0,4.5779,4.5779,4.5853,4.6002,4.6002,4.6299,4.7038,4.6636,4.6592,4.7038,4.6614,4.6249,4.6002,4.6002,4.5762,4.5303,4.5692,4.6122,0.0,0.0,0.0,0.0,0.0,0.0,0.0,0.0,0.0,0.0,0.0,0.0,0.0,0.0,0.0,4.1145,4.0987,4.084,4.051,4.0327,3.996,3.9208,3.941,3.9612,3.9593,4.0052,4.0473,4.0804,4.0969,4.106,4.106,4.106,4.106,4.106,4.106,4.106,4.106,4.106,4.1024,4.095,0.0,0.0,4.0804,4.0052,3.9722,3.9685,3.8951,3.856,3.856,3.856,3.856,3.856,3.856,3.8841,3.9171,3.9667,4.0189,4.0529,4.0914,4.106,4.106,4.106,4.106,4.106,4.106,4.106,0.0,4.106,4.1005,4.0895,4.0639,4.0473,4.0198,3.9612,3.941,3.9245,3.8841,3.8909,3.9128,3.9272,4.0334,4.1268,4.1501,4.4008,4.6002,4.6002,4.6002,4.6002,4.6002,4.5159,4.4558,4.4558,4.3629,4.34,4.4461,4.4558,4.4934,4.5928,4.6002,4.6077,4.6225,4.6137,4.6137,4.6225,4.6137,4.6063,4.6002,4.6002,4.5762,4.5303,4.542,4.5301,0.0,0.0,0.0,0.0,0.0,0.0,0.0,0.0,0.0,0.0,0.0,4.2652,0.0,0.0,4.1294,4.1145,4.106,4.0987,4.0785,4.0767,4.0455,3.963,3.9722,3.9913,3.9832,4.0217,4.0547,4.0749,4.095,4.106,4.106,4.106,4.106,4.106,4.106,4.106,4.106,4.106,4.106,4.106,4.106,4.095,4.0749,4.0207,3.9722,3.9502,3.8896,3.856,3.856,3.856,3.856,3.8579,3.878,3.919,3.9557,3.984,4.0318,4.0785,4.0987,4.106,4.106,4.106,4.106,4.106,4.106,4.106,4.106,4.106,4.0998,4.0712,4.0529,4.0162,3.974,3.9336,3.908,3.8798,3.8597,3.856,3.8798,3.9411,4.004,4.0666,4.1268,4.2963,4.418,4.418,4.418,4.4407,4.5009,4.4008,4.3477,4.4159,4.3019,4.258,4.3172,4.3856,4.4461,4.5084,4.5683,4.6002,4.6002,4.6002,4.6002,4.6002,4.6002,4.6002,4.6002,4.6002,4.5653,4.4954,4.4954,4.4692,0.0,0.0,0.0,0.0,0.0,0.0,0.0,0.0,4.3234,4.3546,4.3048,4.2485,4.2318,4.1733,4.1229,4.1145,4.106,4.106,4.106,4.106,4.0906,4.0244,4.0152,4.0134,4.006,4.0345,4.0584,4.0584,4.0877,4.106,4.106,4.106,4.106,4.106,4.106,4.106,4.106,4.106,4.106,4.106,4.106,4.0895,4.0565,4.0152,3.9667,3.9318,3.8841,3.856,3.856,3.856,3.8695,3.8707,3.9025,3.941,3.9932,4.0024,4.0465,4.095,4.095,4.0895,4.0924,4.0914,4.095,4.095,4.1042,4.106,4.106,4.106,4.0767,4.0455,4.0363,3.9795,3.9208,3.9135,3.8878,3.856,3.856,3.856,3.8877,3.9962,4.0118,4.0431,4.1424,4.1578,4.1733,4.2273,4.2273,4.2657,4.3705,4.2713,4.235,4.34,4.233,4.1656,4.1965,4.3096,4.3856,4.3856,4.4708,4.5309,4.5309,4.5309,4.5384,4.563,4.5608,4.5779,4.6002,4.6002,4.5565,4.4735,4.4735,4.4364,3.8511,3.9493,4.0391,4.0565,4.1448,4.2485,0.0,0.0,4.3151,4.3151,4.3068,4.2818,4.1965,4.1695,4.1546,4.1145,4.106,4.106,4.106,4.106,4.1024,4.1016,4.1016,4.0785,4.0437,4.0767,4.0987,4.0987,4.1024,4.106,4.106,4.106,4.106,4.106,4.106,4.106,4.106,4.106,4.106,4.106,4.106,4.1042,4.0969,4.0281,3.9895,3.9821,3.897,3.856,3.856,3.856,3.878,3.9135,3.8743,3.9171,3.9968,4.0253,4.0455,4.0529,4.0529,4.029,4.0115,4.0418,4.0529,4.0602,4.095,4.106,4.106,4.106,4.0767,4.0382,3.9997,3.9557,3.9135,3.8707,3.8597,3.856,3.856,3.856,3.864,3.8798,3.8798,3.8877,3.8956,3.9017,3.9726,4.1965,4.2273,4.235,4.2503,4.1424,4.0744,4.088,3.9805,3.949,4.0588,4.181,4.2503,4.2503,4.2657,4.2713,4.2713,4.2713,4.3248,4.4386,4.4386,4.4934,4.6002,4.6002,4.574,4.5238,4.5238,4.4517,3.8805,3.9571,0.0,0.0,4.1055,4.1733,4.2216,4.2299,4.2383,4.2652,4.2485,4.2132,4.1779,4.1546,4.1294,0.0,4.106,4.106,4.106,4.106,4.106,4.106,4.106,4.0987,4.0822,4.0969,4.106,4.106,4.106,4.106,4.106,4.106,4.106,4.106,4.106,4.106,4.106,4.106,4.106,4.106,4.106,4.095,4.0694,4.0189,3.9593,3.9135,3.8786,3.856,3.856,3.856,3.8652,3.8817,3.8391,3.8464,3.8852,3.9522,4.0052,4.0473,4.0473,4.051,4.0667,4.0749,4.0822,4.084,4.1005,4.106,4.106,4.106,4.0767,4.0363,3.9942,3.9538,3.9135,3.8652,3.856,3.856,3.856,3.856,3.856,3.856,3.856,3.856,3.856,3.856,3.8956,3.9962,4.0178,4.0412,4.1191,4.0197,3.9411,3.9411,3.8956,3.8798,3.9351,4.0568,4.1268,4.1268,4.1888,4.2273,4.2273,4.2273,4.2866,4.4159,4.4159,4.4784,4.6002,4.6002,4.5762,4.5325,4.5325,4.4845,3.9128,0.0,0.0,4.04,4.0934,4.1294,4.1612,4.1798,4.1965,4.2132,4.1965,4.1733,4.1695,4.1479,4.1225,4.1225,4.1225,4.1189,4.1163,4.106,4.106,4.106,4.106,4.106,4.106,4.106,4.106,4.106,4.106,4.106,4.106,4.106,4.106,4.106,4.106,4.106,4.106,4.106,4.106,4.106,4.106,4.0914,4.062,4.0171,3.9465,3.8805,3.8615,3.856,3.856,3.856,3.8713,3.8743,3.8347,3.8141,3.8156,3.8716,3.9359,3.9977,4.0105,4.025,4.0414,4.0523,4.0559,4.0559,4.0895,4.0969,4.1042,4.1016,4.0694,4.0363,4.0024,3.9538,3.9135,3.8652,3.856,3.856,3.856,3.856,3.856,3.856,3.856,3.856,3.856,3.856,3.856,3.856,3.856,3.8956,3.9883,3.9193,3.856,3.856,3.856,3.856,3.856,3.9411,3.9962,3.9962,4.0802,4.1268,4.1268,4.1268,4.1888,4.3172,4.3172,4.378,4.5009,4.5309,4.5286,4.4983,4.5353,4.5325,0.0,0.0,4.0455,4.0473,4.1083,4.1695,4.1695,4.2049,4.2235,4.1779,4.1695,4.1658,4.1677,4.1666,4.1666,4.1666,4.1666,4.1519,4.1115,4.106,4.106,4.106,4.106,4.106,0.0,4.106,4.106,4.106,4.106,4.106,4.106,4.106,4.106,4.106,4.106,4.106,4.106,4.106,4.106,4.106,4.106,4.106,4.1024,4.0281,3.9612,3.919,3.8805,3.856,3.856,3.856,3.886,3.9171,3.8725,3.8572,3.8447,3.8075,3.8199,3.8689,3.8997,3.8873,3.8625,3.9015,3.9139,3.9306,4.0242,4.0749,4.0987,4.0602,4.0473,4.0363,4.0024,3.9538,3.9135,3.8652,3.856,3.856,3.856,3.856,3.856,3.856,3.856,3.856,3.856,3.856,3.856,3.856,3.856,3.864,3.864,3.864,3.856,3.856,3.856,3.856,3.856,3.864,3.864,3.864,3.8719,3.8719,3.8719,3.8719,3.9351,4.0588,4.0588,4.1191,4.2427,4.3629,4.4235,4.4289,4.5437,4.598,0.0,0.0,4.0162,4.0712,4.1118,4.1294,4.1294,4.1619,4.1907,4.1719,4.1922,4.2076,4.2137,4.2087,4.2087,4.2087,4.2087,4.1941,4.1537,4.1482,4.1372,4.1097,4.106,0.0,0.0,0.0,0.0,4.106,4.106,4.106,4.106,4.106,4.106,4.106,4.106,4.106,4.106,4.106,4.106,4.106,4.106,4.0914,4.0639,4.0171,3.9612,3.9208,3.8725,3.856,3.856,3.8004,3.8156,3.862,3.7038,3.674,3.718,3.6994,3.6963,3.725,3.7959,3.8266,3.8472,3.9289,3.907,3.8731,3.968,3.9844,3.9719,3.9575,3.9576,3.9612,3.9465,3.9135,3.8805,3.8597,3.856,3.856,3.856,3.856,3.856,3.856,3.856,3.856,3.856,3.856,3.856,3.856,3.856,3.856,3.856,3.856,3.856,3.856,3.856,3.856,3.856,3.856,3.856,3.856,3.856,3.856,3.856,3.856,3.9193,4.0509,4.0509,4.1113,4.2273,4.2734,4.2943,4.2943,4.4235,4.4784,0.0,3.9862,4.0403,4.1269,4.15,4.15,4.15,4.1702,4.1904,4.1904,4.2106,4.2326,4.2454,4.2491,4.2491,4.2491,4.2491,4.2307,4.1757,4.1684,4.1537,4.1115,4.106,4.106,0.0,0.0,0.0,4.106,4.106,4.106,4.106,4.106,4.106,4.106,4.106,4.106,4.106,4.106,4.106,4.106,4.106,4.0932,4.0675,4.0336,3.9832,3.9428,3.9025,3.8688,3.8579,3.8228,3.8122,3.8257,3.6925,3.6489,3.6508,3.6406,3.6244,3.6273,3.7095,3.7588,3.7894,3.8477,3.8323,3.7929,3.8592,3.8688,3.8632,3.8683,3.884,3.9005,3.9183,3.8803,3.8326,3.8199,3.8163,3.8163,3.8163,3.8402,3.8597,3.8823,3.878,3.8896,3.9043,3.908,3.8981,3.858,3.8821,3.897,3.8597,3.856,3.856,3.856,3.856,3.856,3.856,3.856,3.856,3.856,3.856,3.856,3.856,3.856,3.8956,3.9805,3.9805,4.0197,4.0958,4.1424,4.1656,4.1733,4.34,4.4159,3.9512,4.0435,4.0911,4.1923,4.2184,4.2184,4.2184,4.2289,4.2307,4.2307,4.2344,4.2491,0.0,0.0,4.2931,4.2931,4.2913,4.2619,4.1831,4.1721,4.1555,0.0,0.0,0.0,0.0,0.0,0.0,4.106,0.0,4.106,4.106,4.106,4.106,4.106,4.106,4.106,4.106,4.106,4.106,4.106,4.106,4.106,4.1126,4.0657,4.0253,3.9932,3.9447,3.9043,3.8652,3.8956,3.8617,3.794,3.823,3.7516,3.6316,3.6247,3.5962,3.5748,3.6584,3.6843,3.6843,3.6929,3.6843,3.6883,3.7114,3.7383,3.7755,3.7836,3.8199,3.8558,3.8977,3.8464,3.7809,3.7472,3.7383,3.7383,3.7419,3.8058,3.8743,3.9109,3.9183,3.9311,3.9695,3.975,3.9504,3.8601,3.9258,3.9557,3.8805,3.8713,3.8713,3.8713,3.8713,3.8713,3.8713,3.8713,3.8713,3.8713,3.8713,3.8713,3.8713,3.8713,3.8713,3.8713,3.8713,3.8713,3.8713,3.988,4.0489,4.0489,4.2927,4.4071,3.7222,3.8561,3.946,4.0,4.0684,4.1209,4.1209,4.1967,4.2711,4.2711,4.3206,4.3646,0.0,0.0,0.0,4.3774,4.3518,0.0,4.2234,4.2124,0.0,4.1152,0.0,4.106,4.106,4.106,0.0,0.0,4.106,4.106,4.106,4.106,4.106,4.106,4.106,4.106,4.106,4.106,4.106,4.106,4.106,4.106,4.1126,4.0657,4.0418,4.029,3.9868,3.963,3.9457,3.8223,3.7947,3.8165,3.6526,3.6064,3.6264,3.594,3.5668,3.5661,3.5835,3.5922,3.5993,3.667,3.6427,3.6047,3.6801,3.6675,3.6292,3.6342,3.6532,3.6725,3.6864,3.6765,3.6656,3.6765,3.68,3.6886,3.7098,3.7889,3.8579,3.8669,3.8687,3.8476,3.7922,3.7774,3.794,3.8436,3.8683,3.9022,3.9475,3.9538,3.9538,3.9538,3.9538,3.9538,3.9538,3.9538,3.9538,3.9538,3.9538,3.9538,3.9538,3.9538,3.9538,3.9538,3.9538,3.9538,3.9538,3.9844,4.0005,4.0086,4.1653,4.2368,3.6911,3.8041,3.894,3.9758,4.0307,4.0752,4.0752,4.1764,4.2765,4.2765,4.3632,0.0,0.0,0.0,0.0,0.0,0.0,0.0,4.2399,4.2271,4.1977,0.0,4.106,0.0,4.106,4.106,4.106,0.0,4.106,4.106,4.106,4.106,4.106,4.106,4.106,4.106,4.106,4.106,4.106,4.106,4.106,4.106,4.106,4.0822,4.073,4.0712,0.0,3.9942,3.9447,3.8434,3.7851,3.7383,3.6313,3.5859,3.5978,3.5668,3.5573,3.5573,3.5573,3.5573,3.5661,3.6166,3.6009,3.5597,3.5795,3.5577,3.5287,3.5311,3.5408,3.5612,3.6187,3.6059,3.5817,3.6205,3.6289,3.6257,3.6476,3.7276,3.7909,3.8149,3.8324,3.811,3.7166,3.769,3.8279,3.8362,3.9116,3.9783,4.0382,4.0152,3.9932,3.9932,3.9932,3.9932,3.9932,3.9932,3.9932,3.9932,3.9932,3.9932,3.9932,3.9932,3.9932,3.9932,3.9932,3.9932,3.9932,3.9932,3.9932,3.9913,4.1114,4.166,3.7329,3.8071,3.8663,3.9937,4.0311,4.0402,4.0402,4.137,4.2362,4.2397,0.0,0.0,4.4563,0.0,4.416,4.416,0.0,4.3224,4.2472,4.2307,4.1996,4.1225,4.1097,4.106,4.106,4.106,4.106,4.106,4.106,4.106,4.106,4.106,4.106,4.106,4.106,4.106,4.106,4.106,4.106,4.106,4.106,4.106,4.106,4.1115,4.1115,4.1042,4.0665,4.0,3.9192,3.894,3.7827,3.6415,3.6642,3.6253,3.5573,3.5573,3.5573,3.5573,3.5573,3.5573,3.5573,3.5573,3.5542,3.5383,3.4763,3.4509,3.4486,3.4621,3.4703,3.4932,3.5969,3.5758,3.5294,3.5588,3.567,3.5687,3.5736,3.6426,3.7181,3.7505,3.7913,3.7808,3.6929,3.8049,3.8922,3.8409,3.9604,4.062,4.0892,4.0437,4.0079,4.0079,4.0079,4.0079,4.0079,4.0079,4.0079,4.0079,4.0079,4.0079,4.0079,4.0079,4.0079,4.0079,4.0079,4.0079,4.0079,4.0079,4.0079,4.0079,4.1122,4.159,3.5978,3.6923,3.7483,3.8035,3.8759,3.9399,3.9399,4.0163,0.0,0.0,0.0,4.3549,4.3888,4.4285,0.0,4.4563,0.0,0.0,0.0,0.0,4.2106,0.0,0.0,0.0,0.0,0.0,0.0,0.0,0.0,4.106,4.106,4.106,4.106,4.106,4.106,4.106,4.106,4.106,4.106,4.106,4.106,4.106,4.1079,4.1427,4.139,4.1079,4.0552,0.0,3.9515,3.7964,3.7089,3.6761,3.6063,3.5748,3.5573,3.5573,3.5573,3.5573,3.5573,3.5573,3.5573,3.5573,3.5367,3.5113,3.4986,3.4541,3.408,3.4119,3.417,3.4186,3.44,3.4542,3.4746,3.5029,3.5109,3.5189,3.5579,3.6318,3.6936,3.6986,3.7052,3.6843,3.6009,3.6096,3.6789,3.8066,3.7877,3.822,3.9774,4.0511,4.0924,4.0924,4.0924,4.0924,4.0924,4.0924,4.0924,4.0924,4.0924,4.0924,4.0924,4.0924,4.0924,4.0924,4.0924,4.0924,4.0924,4.0924,4.0924,4.0942,4.1091,4.1175,3.4112,3.5619,3.6845,3.7575,3.804,3.8391,3.8391,0.0,0.0,0.0,0.0,4.2977,4.3638,0.0,0.0,0.0,0.0,0.0,0.0,0.0,0.0,0.0,0.0,0.0,0.0,0.0,0.0,0.0,0.0,4.106,4.106,4.106,4.106,4.106,4.106,4.0892,4.0385,4.0367,4.0367,4.0385,4.0583,4.0673,4.0606,4.089,4.0722,4.0188,3.9546,3.9028,3.8511,3.7358,3.667,3.6166,3.5748,3.5573,3.5573,3.5573,3.5573,3.5573,3.5573,3.5573,3.5573,3.5573,3.5335,3.5002,3.4811,3.4525,3.4239,3.4064,3.4144,3.4318,3.4493,3.4668,3.4874,3.5224,3.5319,3.5367,3.5542,3.5922,3.6253,3.6253,3.6253,3.608,3.5661,3.6009,3.66,3.7464,3.7619,3.798,3.8837,3.9774,4.0367,4.0367,4.0367,4.0554,4.106,4.106,4.106,4.106,4.106,4.106,4.106,4.106,4.106,4.106,4.106,4.106,4.106,4.106,4.106,4.106,4.106,4.106,3.2393,3.4164,3.5914,3.7115,3.7486,3.7594,3.7581,3.8482,0.0,0.0,4.0778,4.2125,4.2894,0.0,0.0,0.0,0.0,0.0,0.0,0.0,0.0,0.0,0.0,0.0,0.0,0.0,0.0,0.0,0.0,0.0,4.106,4.106,4.106,4.106,4.0892,4.0469,3.9689,3.9519,3.9486,3.9471,3.9856,3.9964,4.0052,4.0052,3.9809,3.9194,3.844,3.7871,3.7342,3.6801,3.6253,3.5573,3.5573,3.5573,3.5573,3.5573,3.5573,3.5573,3.5573,3.5573,3.5573,3.5573,3.5287,3.489,3.4684,3.4525,3.4366,3.4175,3.4366,3.4684,3.497,3.5097,3.5224,3.551,3.5573,3.5573,3.5573,3.5573,3.5573,3.5573,3.5573,3.5573,3.5573,3.6166,3.667,3.6843,3.7378,3.7808,3.798,3.8494,3.9007,3.9348,3.9774,4.0282,4.106,4.106,4.106,4.106,4.106,4.106,4.106,4.106,4.106,4.106,4.106,4.106,4.106,4.106,4.106,4.106,4.106,4.106,3.1354,3.2683,3.3457,3.5788,3.6637,3.7086,3.732,0.0,0.0,0.0,3.9633,4.0436,4.053,4.1247,4.2041,0.0,0.0,0.0,0.0,0.0,0.0,0.0,0.0,0.0,0.0,0.0,0.0,0.0,0.0,0.0,4.106,4.106,4.106,4.106,4.0282,3.9774,3.9689,3.8837,3.858,3.8889,3.8924,3.913,3.9473,3.949,3.9214,3.8818,3.7983,3.7347,0.0,3.6096,3.5661,3.5573,3.5573,3.5573,3.5573,3.5573,3.5573,3.5573,3.5573,3.5573,3.5573,3.5573,3.5113,3.4604,3.489,3.4557,3.4112,3.4382,3.4716,3.4986,3.5017,3.5272,3.5542,3.5573,3.5573,3.5573,3.5573,3.5573,3.5573,3.5573,3.5573,3.5573,3.5573,3.5661,3.5993,3.6757,3.634,3.6096,3.6929,3.6427,3.6616,3.8237,3.9943,4.0976,4.106,4.106,4.106,4.106,4.106,4.106,4.106,4.106,4.106,4.106,4.106,4.106,4.106,4.106,4.106,4.106,4.106,4.106,2.9441,3.1369,3.2752,3.4017,3.5828,3.6868,3.5847,0.0,0.0,3.8338,3.8684,3.9137,3.9775,4.0424,4.0831,0.0,0.0,0.0,0.0,0.0,0.0,0.0,0.0,0.0,0.0,0.0,0.0,0.0,0.0,0.0,4.03,4.0282,4.0282,4.0282,3.9348,3.858,3.8049,3.7855,3.7866,3.8016,3.8451,3.8753,3.8903,3.8887,3.8419,3.7434,3.6885,3.6418,0.0,3.5748,3.5573,3.5573,3.5573,3.5573,3.5573,3.5573,3.5573,3.5573,3.5573,3.5573,3.5605,3.5828,3.5415,3.4843,3.4986,3.4843,3.4652,3.4779,3.5081,3.5367,3.5367,3.5462,3.5573,3.5573,3.5573,3.5573,3.5573,3.5573,3.5573,3.5573,3.5573,3.5573,3.5573,3.5573,3.5748,3.608,3.5835,3.5748,3.608,3.6253,3.686,3.8152,3.8922,3.9858,4.0976,4.106,4.106,4.106,4.106,4.106,4.106,4.106,4.106,4.106,4.106,4.106,4.106,4.106,4.106,4.106,4.106,4.106,2.7191,2.9564,3.1299,3.1678,3.4494,3.6692,0.0,0.0,3.8227,3.8322,3.8274,3.835,3.8966,3.9429,3.9544,0.0,0.0,0.0,0.0,0.0,0.0,0.0,0.0,0.0,0.0,0.0,0.0,0.0,0.0,0.0,3.9348,3.9007,3.9007,3.9263,3.8409,3.76,3.7095,3.7096,3.7166,3.7378,3.7884,3.8177,3.8292,3.8063,3.7459,3.6574,3.6145,3.5812,0.0,3.5573,3.5573,3.5573,3.5573,3.5573,3.5573,3.5573,3.5573,3.5573,3.5573,3.5653,3.578,3.6034,3.5764,3.5351,3.5351,3.5208,3.5049,3.516,3.5383,3.5573,3.5573,3.5573,3.5573,3.5573,3.5573,3.5573,3.5573,3.5669,3.5732,3.5732,3.5812,3.5875,3.5875,3.5875,3.5907,3.6018,3.5939,3.5923,3.6018,3.645,3.7172,3.8146,3.8233,3.8994,4.091,4.106,4.106,4.106,4.106,4.106,4.106,4.106,4.106,4.106,4.106,4.106,4.106,4.106,4.106,4.106,4.106,4.106,2.4652,2.6827,2.8548,2.8548,3.2681,3.628,0.0,0.0,3.829,3.8624,3.8433,3.81,3.7734,3.7973,3.8457,3.9008,0.0,0.0,0.0,0.0,0.0,0.0,0.0,0.0,0.0,0.0,0.0,0.0,0.0,0.0,3.8323,3.7447,3.7361,3.8323,3.7361,3.7111,3.7491,3.6539,3.6447,3.7115,3.7131,3.7321,3.7639,3.6924,3.6606,3.6559,0.0,3.5589,0.0,3.5573,3.5573,3.5573,3.5573,3.5573,3.5573,3.5573,3.5573,3.5573,3.5573,3.5812,3.6098,3.6114,3.6098,3.6098,3.6098,3.5589,3.5113,3.5462,3.5573,3.5573,3.5573,3.5573,3.5573,3.5573,3.5573,3.5573,3.5573,3.5859,3.6098,3.6098,3.6368,3.659,3.659,3.659,3.6702,3.7051,3.6813,3.6717,3.7067,3.6797,3.6949,3.7947,3.8036,3.8865,4.0947,4.106,4.106,4.106,4.106,4.106,4.106,4.106,4.106,4.106,4.106,4.106,4.106,4.106,4.106,4.106,4.106,4.106,2.4798,2.5915,2.6487,2.6655,3.056,3.4071,3.2581,0.0,3.8103,3.8577,3.8243,3.7798,3.7687,3.7957,3.8177,3.818,0.0,0.0,0.0,0.0,0.0,0.0,0.0,0.0,0.0,0.0,0.0,0.0,0.0,0.0,3.7361,3.7102,3.7016,3.7361,3.6671,3.6427,3.6539,3.6648,3.6908,3.7131,3.7385,3.7432,3.7289,3.7067,3.6702,0.0,0.0,3.5796,3.5573,3.5573,3.5573,3.5573,3.5573,3.5573,3.5573,3.5573,3.5573,3.5605,3.5859,3.5859,3.5828,3.6288,3.613,3.5828,3.6304,3.5955,3.543,3.5542,3.5573,3.5573,3.5573,3.5764,3.5939,3.5939,3.6114,3.6273,3.6273,3.6368,3.6447,3.6447,3.6717,3.6956,3.6956,3.7162,3.7289,3.7146,3.7035,3.6908,3.6781,3.667,3.6965,3.7858,3.8036,3.8557,3.9809,3.9966,3.9966,3.9966,4.0573,4.0919,4.0919,4.1541,4.1886,4.1886,4.1886,4.1886,4.1886,4.1629,4.1335,4.106,4.106,4.106,0.0,2.4967,2.5463,2.4825,2.9114,0.0,0.0,0.0,3.8007,3.8434,3.8068,3.7671,3.7671,3.7845,3.7925,3.7702,0.0,0.0,0.0,0.0,0.0,0.0,0.0,0.0,0.0,0.0,0.0,0.0,0.0,0.0,3.6427,3.6557,3.6622,3.6622,3.6251,3.6225,3.6495,3.6908,3.7131,3.7131,3.7353,3.7274,3.6924,3.6797,3.6511,0.0,3.5971,3.578,0.0,3.5573,3.5573,3.5573,3.5573,3.5573,3.5558,3.543,3.5462,3.5589,3.5669,3.5732,3.5875,3.6416,3.64,3.6209,3.6511,3.6209,3.5748,3.5621,3.5669,3.578,3.578,3.6034,3.632,3.6463,3.6654,3.6845,3.6972,3.7099,3.721,3.721,3.7385,3.7528,3.7528,3.7607,3.7639,3.7544,3.7417,3.7305,3.721,3.7083,3.7275,3.7818,3.7908,3.8088,3.8718,3.9164,3.9365,3.9365,3.9982,4.0228,4.0228,4.1209,4.1731,4.1731,4.2097,4.2271,4.2271,4.2032,4.1776,4.1519,4.1372,4.1372,0.0,0.0,0.0,0.0,0.0,0.0,0.0,0.0,0.0,3.8165,3.7925,3.7671,3.7671,3.7671,3.7671,3.7671,0.0,0.0,0.0,0.0,0.0,0.0,0.0,0.0,0.0,0.0,0.0,0.0,0.0,0.0,3.5518,3.5923,3.613,3.6177,3.6177,3.6479,3.7115,3.7131,3.7131,3.7131,3.7099,3.6908,3.6559,3.6241,3.6098,0.0,3.5716,3.5573,3.5573,3.5573,3.5573,3.5573,3.5573,3.5558,3.5494,3.516,3.524,3.5494,3.5176,3.551,3.6114,3.6431,3.6765,3.6988,3.667,3.6368,3.6082,3.578,3.5907,3.6145,3.6177,3.6416,3.6765,3.7083,3.721,3.7337,3.7671,3.8004,3.8227,3.8211,3.8211,3.8227,3.8211,3.7941,3.7845,3.8163,3.7925,3.7814,3.8131,3.7877,3.7671,3.7671,3.7671,3.7671,3.7671,3.8678,3.9256,3.9256,3.9345,3.9345,3.9345,4.0315,4.0842,4.0842,4.1822,4.2381,4.2399,4.2381,4.2362,4.2362,4.1996,4.1996,0.0,0.0,0.0,0.0,0.0,0.0,0.0,0.0,0.0,0.0,0.0,0.0,0.0,0.0,0.0,0.0,0.0,0.0,0.0,0.0,0.0,0.0,0.0,0.0,0.0,0.0,0.0,0.0,0.0,3.4162,3.5883,3.6066,3.6352,3.6876,3.6892,3.6956,3.7131,3.7131,3.7131,3.7131,3.686,3.6543,3.6225,3.6145,3.5955,3.5701,3.5605,3.5573,3.5573,3.5573,3.5573,3.5573,3.5573,3.5399,3.5145,3.5065,3.5081,3.5192,3.5383,3.5558,3.5716,3.5796,3.605,3.6336,3.6241,3.6336,3.6527,3.6717,3.6622,3.6543,3.6813,3.7146,3.7432,3.7528,3.7941,3.8354,3.8433,3.8513,3.8497,3.8243,3.8402,3.8497,3.8243,3.8338,3.8386,3.8227,3.8131,3.8004,3.7814,3.7718,3.7671,3.7671,3.7671,3.7671,3.7671,3.7971,3.8057,3.8057,3.877,3.9133,3.9133,4.085,4.1746,4.1746,4.2762,4.3353,4.3664,4.3353,4.3206,4.3206,4.3114,4.2949,0.0,0.0,0.0,0.0,0.0,0.0,0.0,0.0,0.0,0.0,0.0,0.0,0.0,0.0,0.0,0.0,0.0,0.0,0.0,0.0,0.0,0.0,0.0,0.0,0.0,0.0,0.0,0.0,0.0,3.365,3.6009,3.64,3.6749,3.7115,3.7289,3.7289,3.7131,3.7131,3.6972,3.6654,3.6463,3.6193,3.5859,3.5859,3.5764,3.5573,3.5573,3.5573,3.5573,3.5573,3.5573,3.5558,3.5399,3.5208,3.5017,3.4859,3.489,3.5065,3.5256,3.5637,3.6066,3.6241,3.6527,3.686,3.7019,3.7194,3.7305,3.7162,3.7226,3.7385,3.7575,3.7877,3.8179,3.8338,3.8672,3.8974,3.9148,3.918,3.9085,3.8735,3.8688,3.8592,3.8259,3.8211,3.8163,3.7988,3.7957,3.7893,3.7702,3.7671,3.7671,3.7671,3.7671,3.7671,3.7671,3.7671,3.7671,3.7671,3.8208,3.8483,3.8483,4.0007,4.1366,4.247,4.3488,4.4141,4.4343,4.4141,4.4031,4.4031,4.3848,4.3738,0.0,0.0,0.0,0.0,0.0,0.0,0.0,0.0,0.0,0.0,0.0,0.0,0.0,0.0,0.0,0.0,0.0,0.0,0.0,0.0,0.0,0.0,0.0,0.0,0.0,0.0,0.0,0.0,0.0,3.3067,3.6079,3.6813,3.7146,3.721,3.7464,3.7417,3.7051,3.7051,3.6733,3.6114,3.605,3.5875,3.5573,3.5573,3.5573,3.5573,0.0,0.0,3.5573,3.5573,3.5573,3.5542,3.5176,3.5033,3.5002,3.47,3.4811,3.5129,3.524,3.5859,3.6654,3.6956,3.7289,3.7655,3.8004,3.8195,3.8163,3.7607,3.7845,3.829,3.8338,3.856,3.8846,3.9148,3.926,3.9387,3.9704,3.9768,3.9657,3.9291,3.8974,3.8656,3.8274,3.7957,3.7734,3.7687,3.7671,3.7671,3.7671,3.7671,3.7671,3.7671,3.7671,3.7671,3.7671,3.7671,3.7687,3.775,3.775,3.7874,3.8107,3.9309,4.0942,4.3178,4.414,4.4728,4.4856,4.4801,4.4801,4.4856,4.4508,4.4508,2.2907,2.3124,2.3247,0.0,0.0,0.0,0.0,0.0,0.0,0.0,0.0,0.0,0.0,0.0,0.0,0.0,0.0,0.0,0.0,0.0,0.0,0.0,0.0,0.0,0.0,0.0,0.0,0.0,0.0,3.3346,3.6759,3.7067,3.7274,3.7575,3.7337,3.7035,3.6686,3.6686,3.6479,3.6098,3.5796,3.5637,3.5573,3.5573,3.5573,3.5573,0.0,3.5573,3.5573,3.5573,3.5573,3.5542,3.5176,3.5033,3.5033,3.497,3.5176,3.5573,3.6161,3.6463,3.6606,3.6654,3.6924,3.7274,3.7639,3.8163,3.8656,3.8846,3.8767,3.8688,3.8989,3.9101,3.9148,3.9212,3.945,3.9704,3.9752,3.9768,3.9657,3.9291,3.918,3.8942,3.8306,3.8163,3.802,3.7718,3.7671,3.7671,3.7671,3.7671,3.7671,3.7671,3.7671,3.7671,3.7671,3.7671,3.7798,3.81,3.8116,3.8617,3.9736,4.0831,4.208,4.3679,4.4377,4.5003,4.57,4.537,4.537,4.57,4.5645,4.5462,2.2954,2.3086,2.3409,2.4277,0.0,2.7498,0.0,0.0,0.0,0.0,0.0,0.0,0.0,0.0,0.0,0.0,0.0,0.0,0.0,0.0,0.0,0.0,0.0,0.0,0.0,0.0,0.0,0.0,0.0,0.0,3.6632,3.721,3.7496,3.7671,3.7321,3.6956,3.6606,3.6416,3.6161,3.5828,3.5653,3.5573,3.5573,3.5573,3.5573,3.5573,0.0,3.5573,3.5573,3.5573,3.5573,3.5558,3.5399,3.5208,3.5049,3.5256,3.5558,3.5955,3.6638,3.6892,3.6956,3.7337,3.7575,3.7814,3.8354,3.8735,3.9053,3.9418,3.9403,3.9307,3.9466,3.9514,3.9514,3.9514,3.9641,3.9768,3.9768,3.9768,3.9657,3.9291,3.9228,3.9005,3.8322,3.8195,3.8084,3.7718,3.7671,3.7671,3.7671,3.7671,3.7671,3.7671,3.7845,3.7957,3.7957,3.8116,3.8211,3.8195,3.837,3.8813,3.9625,4.0685,4.1609,4.2458,4.3233,4.3904,4.4258,4.4081,4.4081,4.4258,4.4845,4.4944,2.2983,2.3049,2.3524,0.0,0.0,2.7134,2.971,0.0,0.0,0.0,0.0,0.0,0.0,0.0,0.0,0.0,0.0,0.0,0.0,0.0,0.0,0.0,0.0,0.0,0.0,0.0,0.0,0.0,0.0,0.0,3.6754,3.7369,3.7639,3.7544,3.7194,3.6829,3.6479,3.6145,3.5844,3.5573,3.5573,3.5573,3.5573,3.5573,3.5573,3.5573,3.5573,3.5573,3.5573,3.5573,3.5621,3.5701,3.5605,3.551,3.5446,3.5812,3.6161,3.6543,3.7067,3.7305,3.7464,3.802,3.8306,3.8545,3.9053,3.9275,3.9403,3.9689,3.9768,3.9768,3.9768,3.9768,3.9768,3.9768,3.9768,3.9768,3.9768,3.9768,3.9689,3.9403,3.9355,3.9164,3.8545,3.8433,3.829,3.7861,3.7861,3.7877,3.7798,3.7798,3.783,3.7909,3.8084,3.8227,3.8306,3.8624,3.8703,3.8449,3.8672,3.8974,3.9339,4.0413,4.1007,4.1271,4.233,4.2827,4.2827,4.2827,4.2922,4.3209,4.399,4.4578,2.3058,2.3162,2.3717,2.5356,2.4383,0.0,2.9029,3.0267,0.0,0.0,0.0,0.0,0.0,0.0,0.0,0.0,0.0,0.0,0.0,0.0,0.0,0.0,0.0,0.0,0.0,0.0,0.0,0.0,0.0,0.0,3.7483,3.7639,3.7512,3.7178,3.6829,3.6479,3.6145,3.5796,3.5605,3.5573,3.5573,3.5573,3.5573,3.5573,3.5573,3.5573,3.5573,3.5573,3.5573,3.5573,3.5764,3.6034,3.5701,3.5955,3.6527,3.6892,3.7242,3.756,3.7623,3.7845,3.8131,3.8179,3.8624,3.9164,3.9212,3.945,3.9736,3.9752,3.9768,3.9768,3.9768,3.9768,3.9768,3.9768,3.9768,3.9768,3.9768,3.9768,3.9752,3.9736,3.972,3.9609,3.9212,3.9148,3.8926,3.8259,3.8417,3.8513,3.8195,3.8163,3.8274,3.8592,3.837,3.8322,3.8624,3.8974,3.9164,3.9148,3.9164,3.9339,3.9704,4.0772,4.1255,4.1271,4.233,4.2827,4.2827,4.2827,4.3305,4.4293,4.4388,4.4845,2.303,2.3485,2.4167,2.532,2.4562,0.0,0.0,0.0,0.0,0.0,0.0,0.0,0.0,0.0,0.0,0.0,0.0,0.0,0.0,0.0,0.0,0.0,0.0,0.0,0.0,0.0,0.0,0.0,0.0,0.0,3.723,3.7544,3.7512,3.7146,3.6781,3.6447,3.6114,3.5748,3.5573,3.5573,3.5573,3.5573,3.5573,3.5573,3.5573,3.5573,3.5573,3.5573,3.5589,3.5812,3.5987,3.6114,3.6177,3.6368,3.6638,3.6988,3.721,3.7401,3.7845,3.8084,3.8274,3.8703,3.9005,3.926,3.9482,3.9657,3.9768,3.9768,3.9768,3.9768,3.9768,3.9768,3.9768,3.9768,3.9768,3.9768,3.9768,3.9768,3.9768,3.9768,3.9768,3.9641,3.9291,3.9228,3.9053,3.8576,3.8608,3.864,3.8529,3.8497,3.856,3.8672,3.8783,3.8974,3.9323,3.9482,3.9561,3.9561,3.9561,3.9625,3.9768,4.0141,4.0336,4.0336,4.0724,4.0917,4.0917,4.0917,4.1481,4.2539,4.3114,4.399,2.3375,2.3669,2.4127,0.0,0.0,0.0,0.0,0.0,0.0,0.0,0.0,0.0,0.0,0.0,0.0,0.0,0.0,0.0,0.0,0.0,0.0,0.0,0.0,0.0,0.0,0.0,0.0,0.0,0.0,0.0,3.7214,3.7432,3.7337,3.6972,3.6622,3.6288,3.5939,3.5701,3.5573,3.5573,3.5573,3.5573,3.5573,3.5573,3.5573,3.5573,3.5573,3.5637,3.5764,3.6002,3.6161,3.6304,3.6765,3.686,3.6813,3.7162,3.7305,3.7385,3.7988,3.8274,3.8449,3.9037,3.9291,3.9434,3.9689,3.9768,3.9768,3.9768,3.9768,3.9768,3.9768,3.9768,3.9768,3.9768,3.9768,3.9768,3.9768,3.9768,3.9768,3.9768,3.9768,3.9689,3.9434,3.9387,3.9275,3.891,3.8958,3.9037,3.9037,3.9037,3.9037,3.9037,3.9244,3.9498,3.9736,3.9768,3.9768,3.9768,3.9768,3.9768,3.9768,3.9768,3.9768,3.9768,3.9768,3.9768,3.9768,3.9768,4.053,4.1753,4.2426,4.3496,2.4177,2.3659,0.0,0.0,0.0,0.0,0.0,0.0,0.0,0.0,0.0,0.0,0.0,0.0,0.0,0.0,0.0,0.0,0.0,0.0,0.0,0.0,0.0,0.0,0.0,0.0,0.0,0.0,3.6713,3.7671,3.7671,3.7321,3.6956,3.6606,3.6273,3.5939,3.5589,3.5573,3.5573,3.5573,3.5573,3.5573,3.5573,3.5573,3.5573,3.5573,3.5589,3.578,3.6114,3.6114,3.6304,3.667,3.7385,3.7448,3.7178,3.7528,3.7671,3.7734,3.8084,3.8417,3.8751,3.9117,3.9466,3.9768,3.9768,3.9768,3.9768,3.9768,3.9768,3.9768,3.9768,3.9768,3.9768,3.9768,3.9768,3.9768,3.9768,3.9768,3.9768,3.9768,3.9768,3.9768,3.9768,3.9768,3.9657,3.9291,3.9546,3.9768,3.9768,3.9768,3.9768,3.9768,3.9768,3.9768,3.9768,3.9768,3.9768,3.9768,3.9768,3.9768,3.9768,3.9768,3.9768,3.9768,3.9768,3.9768,3.9768,3.9768,4.0821,4.2827,4.2827,4.3877,2.3163,0.0,0.0,0.0,0.0,0.0,0.0,0.0,0.0,0.0,0.0,0.0,0.0,0.0,0.0,0.0,0.0,0.0,0.0,0.0,0.0,0.0,0.0,0.0,0.0,0.0,0.0,3.5356,3.6761,3.756,3.7305,3.7178,3.686,3.6273,3.6161,3.5939,3.5589,3.5573,3.5573,3.5573,3.5573,3.5573,3.5573,3.5573,3.5573,3.5589,3.5844,3.6002,3.613,3.6352,3.6511,3.6638,3.7115,3.7226,3.7178,3.7528,3.783,3.8084,3.8433,3.8767,3.9117,3.9482,3.9673,3.9768,3.9768,3.9768,3.9768,3.9768,3.9768,3.9768,3.9768,3.9768,3.9768,3.9768,3.9768,3.9768,3.9768,3.9959,4.0133,4.0133,4.0324,4.0483,4.0483,4.0483,4.0451,4.034,4.0419,4.0483,4.0483,4.0483,4.0483,4.0483,4.0483,4.0483,4.0483,4.0483,4.0483,4.0483,4.026,4.0022,3.9768,3.9768,3.9768,3.9768,3.9768,3.9768,3.9768,4.0513,4.1577,4.2827,4.3591,4.4655,2.5085,0.0,0.0,0.0,0.0,0.0,0.0,0.0,0.0,0.0,0.0,0.0,0.0,0.0,0.0,0.0,0.0,0.0,0.0,0.0,0.0,0.0,0.0,0.0,0.0,0.0,3.6359,3.6359,3.7209,3.7512,3.7146,3.6988,3.667,3.613,3.5971,3.5796,3.5573,3.5573,3.5573,3.5573,3.5573,3.5573,3.5573,3.5573,3.5653,3.5812,3.6304,3.6431,3.6336,3.667,3.6733,3.6638,3.6988,3.7131,3.7194,3.7687,3.802,3.8274,3.8735,3.9037,3.9275,3.9641,3.9768,3.9768,3.9768,3.9768,3.9768,3.9768,3.9768,3.9768,3.9768,3.9768,3.9768,3.9768,3.9879,3.9974,3.9974,4.0245,4.0483,4.0483,4.0658,4.0785,4.0785,4.0785,4.0785,4.0785,4.0912,4.0991,4.0991,4.0991,4.0991,4.0991,4.0864,4.0785,4.0785,4.0785,4.0785,4.0785,4.0594,4.034,3.999,3.9847,3.9768,3.9768,3.9768,3.9768,3.9768,4.0433,4.1384,4.2827,4.3496,4.456,0.0,0.0,0.0,0.0,0.0,0.0,0.0,0.0,0.0,0.0,0.0,0.0,0.0,0.0,0.0,0.0,0.0,0.0,0.0,0.0,0.0,0.0,0.0,0.0,0.0,0.0,3.7578,3.7671,3.7639,3.7464,3.7099,3.6749,3.64,3.6066,3.5748,3.5573,3.5573,3.5573,3.5573,3.5573,3.5573,3.5589,3.5621,3.5621,3.5828,3.6241,3.686,3.694,3.667,3.6956,3.6908,3.667,3.6972,3.7146,3.7305,3.7957,3.8243,3.8386,3.9005,3.9244,3.9323,3.9657,3.9768,3.9768,3.9768,3.9768,3.9768,3.9768,3.9768,3.9768,3.9768,3.9784,3.9816,3.9816,4.0054,4.0308,4.034,4.0594,4.0832,4.0832,4.0864,4.088,4.088,4.088,4.088,4.088,4.115,4.1357,4.1357,4.1357,4.1357,4.1357,4.1071,4.088,4.088,4.088,4.088,4.088,4.0848,4.0705,4.0403,4.0022,3.98,3.9768,3.9768,3.9768,3.9768,3.9865,4.0917,4.2618,4.2731,4.3877,0.0,0.0,0.0,0.0,0.0,0.0,0.0,0.0,0.0,0.0,0.0,0.0,0.0,0.0,0.0,0.0,0.0,0.0,0.0,0.0,0.0,0.0,0.0,0.0,0.0,0.0,3.6359,3.7578,3.7401,3.7083,3.6733,3.64,3.605,3.5701,3.5621,3.5573,3.5573,3.5573,3.5573,3.5573,3.5573,3.5716,3.5987,3.5987,3.6336,3.6908,3.7067,3.7083,3.7003,3.6797,3.6829,3.6988,3.6797,3.7226,3.7988,3.8147,3.8545,3.9021,3.9164,3.9403,3.9657,3.9736,3.9768,3.9768,3.9768,3.9768,3.9768,3.9768,3.9768,3.9768,3.9768,3.9974,4.0181,4.0181,4.0245,4.0372,4.0626,4.096,4.1198,4.1198,4.142,4.1611,4.1611,4.1611,4.1611,4.1611,4.1675,4.1722,4.1722,4.1722,4.1722,4.1722,4.1659,4.1611,4.1611,4.1611,4.1611,4.1611,4.1357,4.1166,4.1103,4.0515,4.0054,3.9768,3.9768,3.9768,3.9768,4.061,4.1175,4.1657,4.2426,4.3496,0.0,0.0,0.0,0.0,0.0,0.0,0.0,0.0,0.0,0.0,0.0,0.0,0.0,0.0,0.0,0.0,0.0,0.0,0.0,0.0,0.0,0.0,0.0,0.0,0.0,0.0,3.6452,3.7285,3.7154,3.6972,3.6622,3.6288,3.5939,3.5589,3.5573,3.5573,3.5573,3.5573,3.5573,3.5573,3.5748,3.6098,3.659,3.659,3.6797,3.7131,3.7305,3.7289,3.7115,3.6924,3.6956,3.7131,3.7115,3.756,3.8243,3.856,3.891,3.9244,3.9418,3.9609,3.9768,3.9768,3.9768,3.9768,3.9768,3.9768,3.9768,3.9768,3.9768,3.98,3.9974,4.0165,4.0372,4.0705,4.0785,4.0832,4.1007,4.1325,4.1563,4.1563,4.1722,4.1849,4.1849,4.1849,4.1849,4.1849,4.1849,4.1849,4.1849,4.1849,4.1849,4.1849,4.1849,4.1849,4.1849,4.1849,4.1849,4.1849,4.1675,4.1484,4.1325,4.0975,4.0546,4.0022,4.0022,3.9927,3.9768,4.0336,4.0804,4.1271,4.185,4.2922,0.0,0.0,0.0,0.0,0.0,0.0,0.0,0.0,0.0,0.0,0.0,0.0,0.0,0.0,0.0,0.0,0.0,0.0,0.0,0.0,0.0,0.0,0.0,0.0,0.0,0.0,3.6884,3.6822,3.6968,3.6892,3.6527,3.6193,3.5875,3.5589,3.5573,3.5573,3.5573,3.5573,3.5605,3.5669,3.6082,3.6574,3.7131,3.7194,3.7226,3.7242,3.7544,3.7496,3.721,3.7146,3.7194,3.7337,3.7575,3.7957,3.8449,3.9005,3.926,3.9355,3.9657,3.9768,3.9768,3.9768,3.9768,3.9784,3.9847,3.9816,3.9784,3.9847,3.9863,3.9927,4.0213,4.0388,4.061,4.1182,4.1357,4.1404,4.1404,4.1643,4.1849,4.1849,4.1849,4.1849,4.1849,4.1849,4.1849,4.1849,4.1849,4.1849,4.1849,4.1849,4.1849,4.1849,4.1849,4.1849,4.1849,4.1849,4.1849,4.1849,4.1849,4.1706,4.142,4.1404,4.1103,4.0483,4.0403,4.0213,3.9863,3.9863,4.0303,4.1094,4.1175,4.2347,0.0,0.0,0.0,0.0,0.0,0.0,0.0,0.0,0.0,0.0,0.0,0.0,0.0,0.0,0.0,0.0,0.0,0.0,0.0,0.0,0.0,0.0,0.0,0.0,0.0,0.0,3.6791,3.6479,3.6589,3.6527,3.6193,3.5844,3.5621,3.5573,3.5573,3.5573,3.5573,3.5573,3.5732,3.605,3.6686,3.7035,3.7131,3.7448,3.7591,3.7607,3.7655,3.7639,3.7575,3.7258,3.7496,3.8036,3.7766,3.8259,3.9101,3.918,3.9418,3.9704,3.9752,3.9768,3.9768,3.9768,3.9768,3.9816,4.0133,4.0006,3.9832,4.0133,4.0229,4.0229,4.0276,4.0737,4.1198,4.1293,4.1547,4.177,4.177,4.1802,4.1849,4.1849,4.1849,4.1849,4.1849,4.1849,4.1849,4.1849,4.1849,4.1849,4.1849,4.1849,4.1849,4.1849,4.1849,4.1849,4.1849,4.1849,4.1849,4.1849,4.1849,4.1818,4.177,4.177,4.1579,4.1182,4.088,4.0562,4.0229,4.0229,4.0152,4.0044,4.0901,4.1946,0.0,0.0,0.0,0.0,0.0,0.0,0.0,0.0,0.0,0.0,0.0,0.0,0.0,0.0,0.0,0.0,0.0,0.0,0.0,0.0,0.0,0.0,0.0,0.0,0.0,0.0,0.0,3.6067,3.6189,3.6257,3.6114,3.5764,3.5573,3.5573,3.5573,3.5573,3.5573,3.578,3.6145,3.6686,3.6988,3.7242,3.7432,3.7591,3.7671,3.7671,3.7671,3.7671,3.7655,3.7496,3.7734,3.8211,3.8227,3.864,3.9244,3.945,3.9625,3.9768,3.9768,3.9768,3.98,4.0006,4.0054,4.0133,4.0467,4.0467,4.0372,4.0531,4.0578,4.061,4.0817,4.1087,4.1357,4.1563,4.1722,4.1849,4.1849,4.1849,4.1849,4.1849,4.1849,4.1849,4.1849,4.1849,4.1849,4.1849,4.1849,4.1849,4.1849,4.1849,4.1849,4.1849,4.1849,4.1849,4.1849,4.1849,4.1849,4.1849,4.1849,4.1849,4.1849,4.1849,4.177,4.1611,4.1261,4.0817,4.0292,4.0292,4.0117,3.9865,4.0804,4.185,0.0,0.0,0.0,0.0,0.0,0.0,0.0,0.0,0.0,0.0,0.0,0.0,0.0,0.0,0.0,0.0,0.0,0.0,0.0,0.0,0.0,0.0,0.0,0.0,0.0,0.0,0.0,0.0,3.5864,3.6066,3.5987,3.5716,3.5573,3.5573,3.5573,3.5621,3.5716,3.6145,3.6622,3.7131,3.7226,3.7401,3.7671,3.7671,3.7671,3.7671,3.7671,3.7671,3.7687,3.7766,3.8004,3.8354,3.8703,3.9053,3.9387,3.9673,3.9768,3.9768,3.9768,3.9832,3.9943,4.0213,4.0356,4.0483,4.0817,4.0864,4.0801,4.0896,4.0912,4.0975,4.1246,4.1373,4.1516,4.1786,4.1849,4.1849,4.1849,4.1849,4.1849,4.1849,4.1849,4.1849,4.1849,4.1849,4.1849,4.1849,4.1849,4.1849,4.1849,4.1849,4.1849,4.1849,4.1849,4.1849,4.1849,4.1849,4.1849,4.1849,4.1849,4.1849,4.1849,4.1849,4.1849,4.1849,4.1579,4.115,4.0546,4.0467,4.0426,4.0367,4.1224,4.2234,0.0,0.0,0.0,0.0,0.0,0.0,0.0,0.0,0.0,0.0,0.0,0.0,0.0,0.0,0.0,0.0,0.0,0.0,0.0,0.0,0.0,0.0,0.0,0.0,0.0,0.0,0.0,0.0,3.5582,3.5955,3.5621,3.5589,3.5573,3.5573,3.5573,3.5748,3.6082,3.6733,3.7099,3.7131,3.748,3.7655,3.7671,3.7671,3.7671,3.7671,3.7671,3.7671,3.7702,3.8036,3.837,3.8703,3.9053,3.9418,3.9736,3.9752,3.9768,3.9768,3.9768,3.999,4.0276,4.0292,4.0499,4.0832,4.1182,4.1055,4.0864,4.1198,4.1293,4.1293,4.1309,4.1563,4.1818,4.1833,4.1849,4.1849,4.1849,4.1849,4.1849,4.1849,4.1849,4.1849,4.1849,4.1849,4.1849,4.1849,4.1849,4.1849,4.1849,4.1849,4.1849,4.1849,4.1849,4.1849,4.1849,4.1849,4.1849,4.1849,4.1849,4.1849,4.1849,4.1849,4.1849,4.1849,4.1818,4.1627,4.1261,4.0928,4.1075,4.1685,4.2403,4.3305,0.0,0.0,0.0,0.0,0.0,0.0,0.0,0.0,0.0,0.0,0.0,0.0,0.0,0.0,0.0,0.0,0.0,0.0,0.0,0.0,0.0,0.0,0.0,0.0,0.0,0.0,0.0,0.0,0.0,3.5716,3.5589,3.5573,3.5573,3.5573,3.5796,3.6193,3.6749,3.7003,3.7242,3.748,3.7607,3.7671,3.7671,3.7671,3.7671,3.7687,3.7909,3.8004,3.802,3.8147,3.8529,3.9037,3.9164,3.945,3.9768,3.9768,3.9768,3.9768,3.9768,4.0006,4.0324,4.0546,4.0848,4.1198,4.1547,4.1563,4.1484,4.1611,4.1659,4.1659,4.1659,4.1754,4.1849,4.1849,4.2024,4.2135,4.1897,4.1849,4.1849,4.1849,4.1849,4.1849,4.1849,4.1849,4.1849,4.1849,4.1849,4.1849,4.1849,4.1849,4.1849,4.1849,4.1849,4.1849,4.1849,4.1849,4.1849,4.1849,4.1849,4.1849,4.1849,4.1849,4.1849,4.1849,4.1849,4.1675,4.1309,4.1182,4.1316,4.1816,4.2657,4.3547,0.0,0.0,0.0,0.0,0.0,0.0,0.0,0.0,0.0,0.0,0.0,0.0,0.0,0.0,0.0,0.0,0.0,0.0,0.0,0.0,0.0,0.0,0.0,0.0,0.0,0.0,0.0,0.0,0.0,0.0,3.5573,3.5573,3.5637,3.5748,3.6209,3.667,3.7131,3.7242,3.7432,3.7671,3.7671,3.7671,3.7671,3.7671,3.7734,3.7861,3.81,3.8195,3.8211,3.8449,3.8815,3.9228,3.9355,3.9546,3.9768,3.9768,3.9768,3.9784,3.9895,4.0165,4.0515,4.0848,4.1198,4.1532,4.177,4.1849,4.1849,4.1849,4.1849,4.1849,4.1849,4.1929,4.1992,4.1865,4.2119,4.2294,4.1929,4.1945,4.1992,4.1865,4.1849,4.1849,4.1849,4.1849,4.1849,4.1849,4.1849,4.1849,4.1849,4.1849,4.1849,4.1849,4.1849,4.1849,4.1849,4.1849,4.1849,4.1849,4.1849,4.1849,4.1849,4.1849,4.1849,4.1849,4.1849,4.1722,4.1484,4.1677,4.2093,4.2488,4.3443,4.4263,0.0,0.0,0.0,0.0,0.0,0.0,0.0,0.0,0.0,0.0,0.0,0.0,0.0,0.0,0.0,0.0,0.0,0.0,0.0,0.0,0.0,0.0,0.0,0.0,0.0,0.0,0.0,0.0,3.505,3.5573,3.5573,3.5589,3.5764,3.613,3.6781,3.7131,3.7146,3.7496,3.7671,3.7671,3.7671,3.7671,3.7671,3.7687,3.7877,3.8195,3.8227,3.8227,3.8274,3.8942,3.9228,3.9275,3.9625,3.9768,3.9768,3.9768,3.9768,3.9832,4.0181,4.0515,4.0864,4.1198,4.1547,4.1849,4.1849,4.1849,4.1849,4.1849,4.1849,4.1849,4.1849,4.2135,4.231,4.1945,4.2135,4.2294,4.1929,4.2135,4.2278,4.1913,4.1849,4.1849,4.1849,4.1849,4.1849,4.1849,4.1849,4.1849,4.1849,4.1849,4.1849,4.1849,4.1849,4.1849,4.1849,4.1849,4.1849,4.1849,4.1849,4.1849,4.1849,4.1849,4.1849,4.1849,4.1849,4.1849,4.1849,4.2599,4.3223,4.3923,4.4632,4.5299,2.5831,0.0,0.0,0.0,0.0,0.0,0.0,0.0,0.0,0.0,0.0,0.0,0.0,0.0,0.0,0.0,0.0,0.0,0.0,0.0,0.0,0.0,0.0,0.0,0.0,0.0,0.0,0.0,3.5225,3.5573,3.5573,3.5828,3.6225,3.6829,3.7035,3.7258,3.7512,3.7623,3.7671,3.7671,3.7671,3.7671,3.7687,3.7941,3.81,3.8227,3.8719,3.8942,3.8958,3.9132,3.9371,3.9625,3.972,3.9768,3.9768,3.9768,3.9927,4.0165,4.026,4.0674,4.1182,4.1277,4.1547,4.1849,4.1849,4.1849,4.1849,4.1849,4.1849,4.1897,4.2167,4.2485,4.266,4.2326,4.2501,4.258,4.1976,4.2135,4.2278,4.1913,4.1849,4.1849,4.1849,4.1849,4.1849,4.1849,4.1849,4.1849,4.1849,4.1849,4.1849,4.1849,4.1849,4.1849,4.1849,4.1849,4.1849,4.1849,4.1849,4.1849,4.1849,4.1849,4.1849,4.1849,4.1849,4.1849,4.1849,4.286,4.3474,4.3923,4.5119,4.571,0.0,0.0,0.0,0.0,0.0,0.0,2.7205,2.8863,3.0845,0.0,0.0,0.0,0.0,0.0,0.0,0.0,0.0,0.0,0.0,0.0,0.0,0.0,0.0,0.0,0.0,3.456,3.474,3.489,3.5312,3.5637,3.5796,3.6273,3.6717,3.7115,3.7274,3.7464,3.7671,3.7671,3.7671,3.7671,3.7671,3.775,3.7909,3.81,3.8354,3.8656,3.9053,3.9307,3.945,3.945,3.9577,3.9768,3.9768,3.9768,3.9784,3.9927,4.0117,4.034,4.0626,4.0975,4.1341,4.1484,4.1675,4.1849,4.1849,4.1849,4.1849,4.1849,4.1945,4.2151,4.2501,4.285,4.3009,4.2675,4.2739,4.2723,4.2183,4.2119,4.2103,4.1881,4.1849,4.1849,4.1849,4.1849,4.1849,4.1849,4.1849,4.1849,4.1849,4.1849,4.1849,4.1849,4.1849,4.1849,4.1849,4.1849,4.1849,4.1849,4.1849,4.1849,4.1849,4.1849,4.1849,4.1849,4.1849,4.2243,4.3162,4.3873,4.4593,4.5213,4.5861,4.6048,0.0,0.0,0.0,0.0,0.0,0.0,2.9886,3.0333,3.1307,3.267,0.0,0.0,0.0,0.0,0.0,0.0,0.0,0.0,0.0,0.0,0.0,0.0,0.0,0.0,3.4456,3.4779,3.5025,3.5025,3.5406,3.5844,3.6193,3.6797,3.7146,3.7194,3.7496,3.7671,3.7671,3.7671,3.7671,3.7671,3.7718,3.7893,3.8211,3.8274,3.864,3.9228,3.926,3.9466,3.9768,3.9768,3.9768,3.9768,3.9768,3.9784,3.9863,4.0181,4.034,4.0499,4.1103,4.1341,4.142,4.1738,4.1849,4.1849,4.1849,4.1865,4.1913,4.1945,4.2215,4.2564,4.2866,4.32,4.3375,4.3025,4.2914,4.2787,4.2453,4.2103,4.1849,4.1849,4.1849,4.1849,4.1849,4.1849,4.1849,4.1849,4.1849,4.1849,4.1849,4.1849,4.1849,4.1849,4.1849,4.1849,4.1849,4.1849,4.1849,4.1849,4.1849,4.1849,4.1849,4.1849,4.1849,4.1849,4.1936,4.306,4.507,4.5036,4.5754,4.7094,4.6672,4.6269,0.0,0.0,0.0,0.0,0.0,0.0,2.6968,2.8966,3.1464,0.0,0.0,0.0,0.0,0.0,0.0,0.0,0.0,0.0,0.0,0.0,0.0,0.0,0.0,0.0,3.4925,3.5172,3.5472,3.5826,3.6168,3.6559,3.6908,3.7051,3.7258,3.756,3.7639,3.7671,3.7671,3.7671,3.7671,3.7671,3.7957,3.8131,3.8211,3.8767,3.9101,3.9244,3.953,3.9704,3.9768,3.9768,3.9768,3.9768,3.9768,3.9943,4.0197,4.0276,4.0642,4.1134,4.1261,4.15,4.1754,4.1818,4.1849,4.1849,4.1849,4.2056,4.2342,4.2596,4.293,4.3216,4.3295,4.3565,4.374,4.339,4.3089,4.2787,4.2453,4.2103,4.1849,4.1849,4.1849,4.1849,4.1849,4.1849,4.1849,4.1849,4.1849,4.1849,4.1849,4.1849,4.1849,4.1849,4.1849,4.1849,4.1849,4.1849,4.1849,4.1849,4.1849,4.1849,4.1849,4.1849,4.1849,4.1849,4.2652,4.3772,4.507,4.4779,4.5491,4.7094,4.6672,4.6269,0.0,0.0,0.0,2.8355,0.0,0.0,0.0,3.1839,3.3527,0.0,0.0,0.0,0.0,0.0,0.0,0.0,0.0,0.0,0.0,0.0,0.0,0.0,0.0,0.0,3.5713,3.593,3.6085,3.6352,3.667,3.694,3.7115,3.7305,3.748,3.7671,3.7671,3.7671,3.7671,3.7671,3.7766,3.7941,3.8116,3.8386,3.8719,3.9069,3.9323,3.9498,3.9689,3.9768,3.9768,3.9768,3.9768,3.9768,3.9768,3.9974,4.0308,4.0483,4.0864,4.1341,4.1516,4.169,4.1849,4.1849,4.1849,4.1881,4.2056,4.2358,4.2707,4.3041,4.3279,4.3454,4.3629,4.3804,4.3851,4.3486,4.3136,4.2787,4.2453,4.2103,4.1849,4.1849,4.1849,4.1849,4.1849,4.1849,4.1849,4.1849,4.1849,4.1849,4.1849,4.1849,4.1849,4.1849,4.1849,4.1849,4.1849,4.1849,4.1849,4.1849,4.1849,4.1849,4.1849,4.1849,4.1849,4.1849,4.2958,4.4076,4.507,4.5192,4.5913,4.7112,4.6892,4.647,0.0,0.0,0.0,0.0,0.0,3.3037,0.0,0.0,0.0,0.0,0.0,0.0,0.0,0.0,0.0,0.0,0.0,0.0,0.0,0.0,0.0,0.0,0.0,0.0,3.6234,3.6515,3.6702,3.6702,3.7035,3.7226,3.7226,3.7512,3.7671,3.7671,3.7671,3.7671,3.7671,3.7734,3.7925,3.8195,3.8338,3.8688,3.9228,3.9291,3.9482,3.9768,3.9768,3.9768,3.9768,3.9768,3.98,3.9863,3.9863,4.0086,4.0435,4.0769,4.1118,4.1452,4.1738,4.1849,4.1849,4.1849,4.1881,4.2024,4.2453,4.2771,4.3057,4.3406,4.3518,4.3565,4.3772,4.3835,4.374,4.339,4.3041,4.2707,4.2453,4.2103,4.1849,4.1849,4.1849,4.1849,4.1849,4.1849,4.1849,4.1849,4.1849,4.1849,4.1849,4.1849,4.1849,4.1849,4.1849,4.1849,4.1849,4.1849,4.1849,4.1849,4.1849,4.1849,4.1849,4.1849,4.1849,4.1849,4.3162,4.4262,4.507,4.6006,4.66,4.7112,4.702,4.6599,0.0,0.0,0.0,0.0,3.2115,0.0,0.0,0.0,3.5728,3.5698,0.0,0.0,0.0,0.0,0.0,0.0,0.0,0.0,0.0,0.0,0.0,0.0,0.0,0.0,0.0,3.6553,3.7067,3.7067,3.7401,3.7607,3.7607,3.7655,3.7671,3.7671,3.7671,3.7671,3.7671,3.7988,3.8163,3.8211,3.8815,3.9148,3.9228,3.9561,3.972,3.9768,3.9768,3.9768,3.9768,3.9768,3.9959,4.0229,4.0229,4.0435,4.0769,4.1118,4.1484,4.1786,4.1833,4.1849,4.1849,4.1849,4.2056,4.2453,4.3104,4.3311,4.3422,4.3772,4.3867,4.3819,4.3533,4.347,4.3375,4.3025,4.2691,4.2437,4.2389,4.2103,4.1849,4.1849,4.1849,4.1849,4.1849,4.1849,4.1849,4.1849,4.1849,4.1849,4.1849,4.1849,4.1849,4.1849,4.1849,4.1849,4.1849,4.1849,4.1849,4.1849,4.1849,4.1849,4.1849,4.1849,4.1849,4.1849,4.3856,4.4969,4.507,4.6699,4.74,4.7094,4.6727,4.6305,0.0,0.0,0.0,0.0,0.0,0.0,3.2411,0.0,3.4703,0.0,0.0,0.0,0.0,0.0,0.0,0.0,0.0,0.0,0.0,0.0,0.0,0.0,0.0,0.0,0.0,0.0,0.0,0.0,3.7591,3.7671,3.7671,3.7671,3.7671,3.7671,3.7671,3.7766,3.7973,3.8131,3.8402,3.8799,3.9085,3.9323,3.9546,3.9704,3.9768,3.9768,3.9768,3.9768,3.9784,3.999,4.0165,4.0308,4.0499,4.0785,4.1118,4.1261,4.1532,4.1849,4.1849,4.1849,4.1881,4.2088,4.2532,4.3041,4.3311,4.3549,4.374,4.3899,4.3788,4.3597,4.3454,4.3247,4.3009,4.2675,4.2485,4.2326,4.2119,4.1945,4.1849,4.1849,4.1849,4.1849,4.1849,4.1849,4.1849,4.1849,4.1849,4.1849,4.1849,4.1849,4.1849,4.1849,4.1849,4.1849,4.1849,4.1849,4.1849,4.1849,4.1849,4.1849,4.1849,4.1849,4.1849,4.1849,4.3365,4.4464,4.507,4.5974,4.6676,4.7094,4.6672,4.6269,2.4991,0.0,0.0,0.0,0.0,0.0,0.0,0.0,0.0,0.0,0.0,0.0,0.0,0.0,0.0,0.0,0.0,0.0,0.0,0.0,0.0,0.0,0.0,0.0,0.0,0.0,0.0,3.7502,3.7673,3.7766,3.7671,3.7766,3.7766,3.7671,3.7766,3.7941,3.8195,3.8386,3.8735,3.9228,3.9323,3.9514,3.9768,3.9768,3.9768,3.9768,3.9768,3.9768,3.9784,4.0038,4.0213,4.0324,4.0658,4.1007,4.1309,4.1309,4.1532,4.1865,4.1961,4.2056,4.2183,4.2548,4.3009,4.3422,4.3518,4.3661,4.3819,4.3915,4.3613,4.3263,4.3263,4.3009,4.266,4.2326,4.2246,4.2167,4.1897,4.1849,4.1849,4.1849,4.1849,4.1849,4.1849,4.1849,4.1849,4.1849,4.1849,4.1849,4.1849,4.1849,4.1849,4.1849,4.1849,4.1849,4.1849,4.1849,4.1849,4.1849,4.1849,4.1849,4.1849,4.1849,4.1849,4.1849,4.3162,4.4228,4.4916,4.5565,4.6265,4.6929,4.6507,4.6158,0.0,0.0,0.0,2.916,0.0,0.0,0.0,0.0,3.6498,0.0,0.0,0.0,0.0,0.0,0.0,0.0,0.0,0.0,0.0,0.0,0.0,0.0,0.0,0.0,0.0,0.0,3.7289,3.6947,3.7709,3.8036,3.7687,3.8004,3.802,3.7687,3.8004,3.8195,3.8195,3.8862,3.9196,3.9228,3.9577,3.9752,3.9768,3.9768,3.9768,3.9768,3.9768,3.9768,3.9768,3.9784,3.999,4.0324,4.0658,4.1007,4.1309,4.1309,4.1532,4.1897,4.2246,4.258,4.2898,4.3263,4.339,4.347,4.3819,4.3692,4.3502,4.3835,4.3438,4.2898,4.2898,4.266,4.231,4.1945,4.1865,4.1865,4.1849,4.1849,4.1849,4.1849,4.1849,4.1849,4.1849,4.1849,4.1849,4.1849,4.1849,4.1849,4.1849,4.1849,4.1849,4.1849,4.1849,4.1849,4.1849,4.1849,4.1849,4.1849,4.1849,4.1849,4.1849,4.1849,4.1849,4.1849,4.3958,4.4899,4.4539,4.6225,4.6892,4.6489,4.6085,4.5902,0.0,0.0,2.4689,2.7278,0.0,0.0,0.0,0.0,0.0,0.0,0.0,0.0,0.0,0.0,0.0,0.0,0.0,0.0,0.0,0.0,0.0,0.0,0.0,0.0,0.0,0.0,0.0,3.7788,3.8038,3.8147,3.8036,3.7909,3.7909,3.802,3.8131,3.8417,3.8878,3.9101,3.9339,3.9577,3.9704,3.9768,3.9768,3.9768,3.9768,3.9768,3.9768,3.9768,3.9784,4.0022,4.0308,4.0626,4.0737,4.115,4.1659,4.1659,4.1897,4.2246,4.2596,4.2787,4.2946,4.3295,4.3406,4.3422,4.3549,4.3502,4.339,4.3263,4.2914,4.2548,4.2548,4.2294,4.1992,4.1865,4.1849,4.1849,4.1849,4.1849,4.1849,4.1849,4.1849,4.1849,4.1849,4.1849,4.1849,4.1849,4.1849,4.1849,4.1849,4.1849,4.1849,4.1849,4.1849,4.1849,4.1849,4.1849,4.1849,4.1849,4.1849,4.1849,4.1849,4.1849,4.1849,4.1849,4.3263,4.4194,4.4522,4.554,4.6199,4.647,4.6067,4.5883,2.4739,2.4226,0.0,2.6289,2.5778,0.0,3.0295,0.0,0.0,0.0,0.0,0.0,0.0,0.0,0.0,0.0,0.0,0.0,0.0,0.0,0.0,0.0,0.0,0.0,0.0,0.0,3.8335,3.8151,3.8292,3.837,0.0,3.8163,3.8147,3.837,3.8497,3.8783,3.9212,3.9355,3.953,3.9768,3.9768,3.9768,3.9768,3.9768,3.9768,3.9768,3.9768,3.9768,3.98,4.0149,4.0419,4.0642,4.088,4.1325,4.1849,4.1849,4.2231,4.2787,4.2993,4.3152,4.3279,4.3375,4.3406,4.339,4.3263,4.3136,4.3025,4.2914,4.2548,4.2231,4.2358,4.2119,4.1849,4.1849,4.1849,4.1849,4.1849,4.1849,4.1849,4.1849,4.1849,4.1849,4.1849,4.1849,4.1849,4.1849,4.1849,4.1849,4.1849,4.1849,4.1849,4.1849,4.1849,4.1849,4.1849,4.1849,4.1849,4.1849,4.1849,4.1849,4.1849,4.1849,4.1722,4.1468,4.3,4.3874,4.3923,4.5187,4.6,4.6269,4.6012,4.5883]}]]